     2.11           OBSERVATION DATA    G (GPS)             RINEX VERSION / TYPE
teqc 2010Oct21 OPUS Account 20111028 16:59:22UTC            PGM / RUN BY / DATE
H 1527                                                      MARKER NAME
3068                                                        MARKER NUMBER
CSMIDDLETON NGS                                             OBSERVER / AGENCY
4619K01307 TRIMBLE NETR5 4.41                               REC # / TYPE / VERS
12668873 TRM41249.00 NONE                                   ANT # / TYPE
  -730969.6925 -5587696.8841  2977263.8696                  APPROX POSITION XYZ
        1.9990        0.0000        0.0000                  ANTENNA: DELTA H/E/N
     1     1                                                WAVELENGTH FACT L1/2
     5    L1    L2    C1    P1    P2                        # / TYPES OF OBSERV
    15                                                      LEAP SECONDS
  2011     8    25     0     0    0.0000000     GPS         TIME OF FIRST OBS
                                                            END OF HEADER
 11  8 25  0  0  0.0000000  0  9G10G04G12G05G09G25G17G30G02
 109712797.89318  85490631.85756  20877616.813                    20877626.965
 114109383.72518  88916551.50655  21714263.109                    21714272.832
 112894311.36418  87969664.50517  21483070.633                    21483079.477
 115360482.11617  89891381.64017  21952338.727                    21952350.059
 124296286.38117  96854330.89954  23652806.383                    23652819.539
 127100058.82616  99039066.01916  24186344.023                    24186357.656
 121794805.20217  94905107.18516  23176774.297                    23176785.402
 127112341.15916  99048665.17153  24188684.188                    24188696.438
 108482800.61418  84532241.86356  20643557.516                    20643564.320
 11  8 25  0  0 30.0000000  0  9G10G04G12G05G09G25G17G30G02
 109714385.905 7  85491869.27646  20877919.305                    20877928.910
 114185948.964 8  88976212.71945  21728832.750                    21728843.164
 112833134.001 7  87921993.862 7  21471429.125                    21471437.949
 115271111.527 7  89821742.349 7  21935332.359                    21935343.277
 124373484.750 7  96914485.35244  23667496.914                    23667509.980
 127000267.987 6  98961306.997 6  24167354.398                    24167367.852
 121846429.149 7  94945333.577 6  23186597.813                    23186609.336
 127010226.498 6  98969095.39743  24169252.320                    24169263.496
 108482683.026 7  84532150.24546  20643535.086                    20643542.094
 11  8 25  0  1  0.0000000  0  9G10G04G12G05G09G25G17G30G02
 109716603.911 7  85493597.59646  20878341.383                    20878351.242
 114262645.369 8  89035976.14445  21743427.672                    21743437.938
 112772380.581 8  87874653.556 7  21459868.516                    21459877.332
 115182049.252 7  89752343.290 7  21918384.320                    21918395.121
 124450849.867 7  96974769.72644  23682218.758                    23682231.625
 126900646.621 6  98883680.035 6  24148396.602                    24148410.258
 121898209.901 7  94985682.164 6  23196451.625                    23196462.543
 126908332.077 6  98889697.20643  24149862.102                    24149873.273
 108482849.165 7  84532279.72046  20643566.641                    20643573.379
 11  8 25  0  1 30.0000000  0  9G10G04G12G05G09G25G17G30G02
 109719452.535 8  85495817.31446  20878883.320                    20878893.383
 114339471.041 8  89095840.29545  21758047.352                    21758057.520
 112712053.773 8  87827645.683 7  21448388.148                    21448397.289
 115093298.342 7  89683186.868 7  21901495.344                    21901506.055
 124528378.576 7  97035181.60144  23696971.984                    23696985.074
 126801197.557 6  98806187.342 6  24129472.672                    24129486.305
 121950148.590 7  95026153.826 6  23206335.219                    23206346.020
 126806660.896 6  98810473.02843  24130514.766                    24130526.613
 108483298.101 8  84532629.54946  20643652.219                    20643659.059
 11  8 25  0  2  0.0000000  0  9G10G04G12G05G09G25G17G30G02
 109722931.864 8  85498528.49746  20879545.438                    20879555.336
 114416424.208 8  89155803.79045  21772690.711                    21772700.805
 112652155.924 8  87780972.073 7  21436989.992                    21436999.074
 115004861.849 7  89614275.432 7  21884666.664                    21884677.480
 124606067.483 7  97095718.31144  23711755.766                    23711768.977
 126701923.269 6  98728830.835 6  24110581.133                    24110594.824
 122002245.597 7  95066748.843 6  23216248.703                    23216259.652
 126705215.756 6  98731424.94043  24111210.906                    24111221.855
 108484028.988 8  84533199.08446  20643790.781                    20643798.293
 11  8 25  0  2 30.0000000  0  9G10G04G12G05G09G25G17G30G02
 109727041.783 8  85501731.05146  20880327.906                    20880337.418
 114493502.782 8  89215865.01045  21787358.219                    21787368.363
 112592689.369 7  87734634.528 7  21425674.125                    21425682.719
 114916742.613 7  89545611.215 7  21867897.461                    21867908.883
 124683913.301 7  97156377.24744  23726569.383                    23726581.887
 126602826.434 6  98651612.639 6  24091723.172                    24091737.137
 122054501.371 7  95107467.568 6  23226192.789                    23226204.195
 126603999.441 6  98652555.19343  24091949.461                    24091960.426
 108485040.473 8  84533987.26946  20643983.594                    20643990.539
 11  8 25  0  3  0.0000000  0  9G10G04G12G05G09G25G17G30G02
 109731782.499 8  85505425.12746  20881229.742                    20881239.332
 114570704.644 8  89276022.30745  21802049.750                    21802059.805
 112533656.211 8  87688634.689 7  21414440.078                    21414449.160
 114828943.207 7  89477196.203 7  21851190.070                    21851200.465
 124761912.694 7  97217155.87843  23741412.570                    23741425.363
 126503909.580 6  98574534.661 6  24072900.531                    24072913.246
 122106916.579 7  95148310.524 6  23236167.664                    23236178.234
 126503014.802 6  98573865.95343  24072733.203                    24072744.301
 108486331.240 8  84534993.07746  20644229.109                    20644236.180
 11  8 25  0  3 30.0000000  0  9G10G04G12G05G09G25G17G30G02
 109737154.369 7  85509611.02046  20882251.664                    20882261.578
 114648027.939 8  89336274.20845  21816763.508                    21816773.750
 112475058.970 8  87642974.534 7  21403289.430                    21403298.586
 114741466.532 7  89409032.675 7  21834543.586                    21834554.191
 124840062.077 7  97278051.34543  23756283.922                    23756296.918
 126405175.356 6  98497599.014 6  24054111.805                    24054125.535
 122159491.872 7  95189278.235 6  23246172.078                    23246183.207
 126402264.461 6  98495359.31043  24053561.148                    24053571.719
 108487900.246 7  84536215.70246  20644527.602                    20644534.844
 11  8 25  0  4  0.0000000  0  9G10G04G12G05G09G25G17G30G02
 109743157.091 8  85514288.48846  20883394.297                    20883403.785
 114725470.805 8  89396619.29745  21831499.992                    21831510.383
 112416899.866 8  87597655.781 7  21392222.391                    21392230.930
 114654315.460 7  89341122.872 7  21817959.336                    21817969.828
 124918358.248 7  97339061.19843  23771183.180                    23771196.215
 126306626.435 7  98420807.739 6  24035358.719                    24035371.387
 122212227.610 7  95230370.980 6  23256206.875                    23256218.660
 126301751.380 6  98417037.49543  24034433.289                    24034445.090
 108489746.194 7  84537654.12746  20644879.047                    20644886.102
 11  8 25  0  4 30.0000000  0  9G10G04G12G05G09G25G17G30G02
 109749790.394 8  85519457.32646  20884656.250                    20884666.258
 114803031.189 8  89457055.94145  21846259.984                    21846269.832
 112359180.923 8  87552680.005 7  21381238.984                    21381247.680
 114567492.812 7  89273468.978 7  21801437.352                    21801448.129
 124996797.691 7  97400182.68143  23786109.734                    23786122.918
 126208265.358 7  98344162.815 6  24016640.734                    24016653.438
 122265124.621 7  95271589.402 6  23266273.273                    23266284.488
 126201478.418 6  98338902.82443  24015352.563                    24015363.652
 108491868.199 8  84539307.66246  20645282.703                    20645289.402
 11  8 25  0  5  0.0000000  0  9G10G04G12G05G09G25G17G30G02
 109757054.112 8  85525117.39246  20886038.719                    20886048.191
 114880707.271 7  89517582.73945  21861041.086                    21861051.418
 112301904.378 8  87508048.963 7  21370339.305                    21370348.648
 114481001.098 7  89206072.932 7  21784978.484                    21784989.148
 125075377.008 6  97461413.14243  23801063.008                    23801076.836
 126110094.684 7  98267666.285 6  23997959.852                    23997972.922
 122318183.399 7  95312933.854 6  23276370.063                    23276381.426
 126101448.227 6  98260957.29043  23996317.367                    23996328.391
 108494264.731 8  84541175.11446  20645738.734                    20645745.852
 11  8 25  0  5 30.0000000  0  9G10G04G12G05G09G25G17G30G02
 109764948.554 8  85531268.94046  20887540.781                    20887550.793
 114958497.117 7  89578198.18645  21875844.078                    21875853.930
 112245072.712 8  87463764.573 7  21359524.484                    21359533.023
 114394843.431 7  89138937.195 7  21768583.320                    21768593.527
 125154092.904 6  97522750.01044  23816041.695                    23816056.047
 126012117.155 7  98191320.250 6  23979315.227                    23979327.992
 122371404.379 7  95354404.690 6  23286497.500                    23286509.156
 126001663.778 6  98183203.24343  23977329.047                    23977340.156
 108496934.801 8  84543255.70846  20646246.461                    20646253.703
 11  8 25  0  6  0.0000000  0  9G10G04G12G05G09G25G17G30G02
 109773473.627 8  85537911.88746  20889162.922                    20889172.719
 115036398.881 7  89638900.84945  21890668.070                    21890677.934
 112188688.423 8  87419828.777 7  21348795.266                    21348803.637
 114309022.769 8  89072064.046 7  21752252.445                    21752262.305
 125232942.115 6  97584190.76644  23831046.867                    23831061.207
 125914335.493 7  98115126.852 6  23960707.852                    23960720.473
 122424788.346 7  95396002.537 6  23296656.906                    23296667.305
 125902127.963 6  98105642.97843  23958387.719                    23958399.652
 108499877.419 8  84545548.67146  20646806.719                    20646813.820
 11  8 25  0  6 30.0000000  0  9G10G04G12G05G09G25G17G30G02
 109782628.775 8  85545045.80346  20890904.977                    20890914.547
 115114410.686 8  89699689.25445  21905513.313                    21905523.430
 112132753.295 8  87376242.986 7  21338150.984                    21338159.777
 114223541.282 7  89005455.213 7  21735985.406                    21735995.848
 125311921.194 6  97645732.71044  23846075.898                    23846090.484
 125816752.196 7  98039088.028 7  23942138.078                    23942151.383
 122478335.626 7  95437727.635 6  23306846.203                    23306857.738
 125802843.459 6  98028278.48944  23939494.797                    23939506.070
 108503090.951 8  84548052.74546  20647418.250                    20647425.020
 11  8 25  0  7  0.0000000  0  9G10G04G12G05G09G25G17G30G02
 109792414.439 8  85552671.03546  20892767.695                    20892776.883
 115192530.558 7  89760561.86945  21920379.016                    21920389.387
 112077269.778 8  87333009.103 7  21327592.680                    21327601.695
 114138402.540 8  88939113.439 7  21719783.898                    21719794.547
 125391026.766 6  97707373.15343  23861129.250                    23861143.625
 125719369.965 7  97963205.885 7  23923607.023                    23923620.270
 122532047.022 7  95479580.611 6  23317067.586                    23317078.566
 125703813.223 6  97951112.13744  23920649.539                    23920660.672
 108506574.687 8  84550767.36846  20648081.141                    20648088.188
 11  8 25  0  7 30.0000000  0  9G10G04G12G05G09G25G17G30G02
 109802830.077 8  85560787.14746  20894749.109                    20894758.934
 115270756.793 8  89821517.33945  21935264.930                    21935275.629
 112022240.068 8  87290128.830 7  21317120.633                    21317129.797
 114053608.953 8  88873040.617 7  21703647.891                    21703658.789
 125470255.568 6  97769109.67743  23876206.281                    23876220.523
 125622191.481 7  97887482.489 7  23905114.508                    23905127.051
 122585922.777 7  95521561.670 6  23327319.922                    23327330.992
 125605040.188 6  97874146.21643  23901853.414                    23901865.453
 108510327.241 8  84553691.45646  20648795.430                    20648802.355
 11  8 25  0  8  0.0000000  0  9G10G04G12G05G09G25G17G30G02
 109813875.821 8  85569394.26546  20896851.188                    20896860.887
 115349087.486 8  89882554.19745  21950171.297                    21950181.594
 111967666.620 8  87247604.089 7  21306735.492                    21306744.727
 113969163.479 8  88807239.064 7  21687578.641                    21687589.176
 125549604.414 6  97830939.74944  23891306.602                    23891320.395
 125525219.542 7  97811920.027 7  23886660.828                    23886674.438
 122639963.752 7  95563671.486 6  23337603.359                    23337614.422
 125506527.108 6  97797382.86143  23883106.719                    23883118.625
 108514347.763 8  84556824.34246  20649560.273                    20649567.320
 11  8 25  0  8 30.0000000  0  9G10G04G12G05G09G25G17G30G02
 109825550.879 8  85578491.74146  20899073.148                    20899082.543
 115427520.485 8  89943670.78345  21965096.422                    21965106.324
 111913550.885 8  87205436.001 7  21296438.180                    21296446.887
 113885068.442 8  88741710.571 7  21671575.313                    21671586.160
 125629069.523 7  97892860.38544  23906428.266                    23906442.277
 125428456.311 7  97736520.174 7  23868247.922                    23868260.898
 122694170.141 7  95605910.191 6  23347918.508                    23347929.402
 125408276.547 6  97720824.03443  23864410.852                    23864421.996
 108518634.304 8  84560164.52546  20650376.047                    20650382.793
 11  8 25  0  9  0.0000000  0  9G10G04G12G05G09G25G17G30G02
 109837855.071 8  85588079.45846  20901414.547                    20901424.277
 115506054.309 8  90004865.93145  21980040.914                    21980051.277
 111859895.596 8  87163626.710 7  21286227.500                    21286236.484
 113801326.738 7  88676457.406 7  21655640.203                    21655650.371
 125708647.811 7  97954869.23744  23921571.852                    23921585.715
 125331904.762 7  97661285.263 7  23849874.031                    23849887.305
 122748542.728 7  95648278.396 6  23358265.422                    23358276.469
 125310291.581 6  97644472.24443  23845764.148                    23845775.664
 108523186.234 8  84563711.50046  20651242.219                    20651249.293
 11  8 25  0  9 30.0000000  0  9G10G04G12G05G09G25G17G30G02
 109850787.890 8  85598157.00046  20903875.203                    20903884.863
 115584687.179 7  90066138.25845  21995004.133                    21995014.211
 111806702.958 8  87122177.917 7  21276105.313                    21276114.227
 113717941.294 8  88611481.830 7  21639772.461                    21639782.934
 125788336.126 7  98016963.81644  23936736.070                    23936750.234
 125235567.628 7  97586217.440 6  23831542.195                    23831555.270
 122803082.168 7  95690776.625 6  23368643.563                    23368655.246
 125212575.175 6  97568329.72343  23827170.398                    23827180.703
 108528002.718 8  84567464.61946  20652158.711                    20652165.398
 11  8 25  0 10  0.0000000  0  9G10G04G12G05G09G25G17G30G02
 109864349.178 8  85608724.26746  20906456.148                    20906465.453
 115663416.925 7  90127486.07545  22009985.609                    22009996.418
 111753974.586 8  87081090.887 7  21266071.492                    21266080.539
 113634914.644 8  88546785.849 7  21623972.789                    21623982.766
 125868130.580 7  98079141.10844  23951920.352                    23951934.781
 125139447.280 7  97511318.506 6  23813250.875                    23813263.551
 122857788.682 7  95733405.022 6  23379053.883                    23379065.656
 125115129.766 6  97492398.34843  23808625.734                    23808637.672
 108533081.423 8  84571422.06946  20653125.258                    20653131.914
 11  8 25  0 10 30.0000000  0  9G10G04G12G05G09G25G17G30G02
 109878538.960 8  85619781.26846  20909155.922                    20909165.965
 115742242.241 7  90188908.36045  22024986.063                    22024995.918
 111701713.189 8  87040367.743 7  21256126.563                    21256135.465
 113552249.690 7  88482371.696 7  21608242.461                    21608252.355
 125948028.080 7  98141398.69044  23967125.203                    23967139.125
 125043546.714 7  97436590.821 6  23795001.695                    23795014.371
 122912663.104 7  95776164.249 6  23389496.766                    23389507.762
 125017958.552 6  97416680.68943  23790135.344                    23790145.953
 108538422.055 8  84575583.62146  20654141.297                    20654148.387
 11  8 25  0 11  0.0000000  0  9G10G04G12G05G09G25G17G30G02
 109893356.297 8  85631327.27246  20911975.828                    20911985.125
 115821160.931 7  90250403.40945  22040004.086                    22040014.371
 111649920.723 8  87000009.997 7  21246270.758                    21246279.426
 113469949.049 7  88418241.432 7  21592580.469                    21592590.871
 126028025.359 7  98203734.03444  23982348.195                    23982362.680
 124947868.544 7  97362036.421 6  23776794.695                    23776807.621
 122967705.581 7  95819054.444 6  23399970.508                    23399981.910
 124921064.378 6  97341178.83743  23771696.625                    23771707.730
 108544023.151 8  84579948.12646  20655207.344                    20655214.047
 11  8 25  0 11 30.0000000  0  9G10G04G12G05G09G25G17G30G02
 109908800.675 8  85643361.87746  20914914.594                    20914924.238
 115900171.174 7  90311969.78845  22055038.922                    22055049.082
 111598598.919 8  86960018.998 7  21236504.164                    21236513.191
 113388015.373 8  88354397.106 7  21576989.367                    21576999.570
 126108119.004 7  98266144.44944  23997589.836                    23997604.035
 124852415.101 7  97287657.147 6  23758630.844                    23758643.426
 123022916.735 7  95862076.074 6  23410476.578                    23410487.762
 124824449.620 6  97265894.72043  23753311.484                    23753322.285
 108549883.298 8  84584514.49546  20656322.297                    20656329.613
 11  8 25  0 12  0.0000000  0  9G10G04G12G05G09G25G17G30G02
 109924871.809 8  85655884.85446  20917973.016                    20917982.914
 115979271.261 7  90373606.19045  22070091.070                    22070101.500
 111547750.420 8  86920396.812 7  21226828.141                    21226837.074
 113306451.490 8  88290840.932 7  21561467.930                    21561477.910
 126188305.821 7  98328627.53444  24012848.523                    24012862.832
 124757189.339 7  97213455.261 6  23740509.297                    23740522.406
 123078297.247 7  95905229.663 7  23421015.813                    23421027.090
 124728117.354 6  97190830.72043  23734979.781                    23734990.523
 108556001.530 8  84589281.95746  20657486.820                    20657493.637
 11  8 25  0 12 30.0000000  0  9G10G04G12G05G09G25G17G30G02
 109941569.416 8  85668896.00346  20921150.234                    20921160.004
 116058459.492 7  90435311.27045  22085160.180                    22085170.633
 111497377.029 8  86881144.829 7  21217242.492                    21217251.223
 113225259.996 7  88227574.929 7  21546017.680                    21546027.582
 126268582.680 7  98391180.74343  24028124.813                    24028139.031
 124662193.833 7  97139432.828 6  23722432.813                    23722445.461
 123133847.566 7  95948515.589 6  23431587.438                    23431598.316
 124632070.487 7  97115989.09743  23716702.961                    23716712.746
 108562376.786 8  84594249.69646  20658699.945                    20658706.738
 11  8 25  0 13  0.0000000  0  9G10G04G12G05G09G25G17G30G02
 109958892.852 8  85682394.80246  20924446.875                    20924456.480
 116137734.150 7  90497083.70345  22100245.617                    22100255.910
 111447480.763 8  86842264.637 7  21207747.906                    21207756.801
 113144443.571 7  88164601.185 7  21530638.781                    21530649.090
 126348945.929 6  98453801.26443  24043417.750                    24043431.238
 124567431.351 7  97065591.952 6  23704400.031                    23704412.797
 123189568.131 7  95991934.164 6  23442190.023                    23442201.355
 124536311.754 7  97041371.93743  23698481.016                    23698491.000
 108569007.576 8  84599416.56846  20659961.750                    20659968.395
 11  8 25  0 13 30.0000000  0  9G10G04G12G05G09G25G17G30G02
 109976841.689 8  85696380.92246  20927862.547                    20927872.543
 116217093.580 7  90558922.19345  22115347.320                    22115357.465
 111398063.798 8  86803757.938 7  21198343.813                    21198352.488
 113064004.968 8  88101921.842 7  21515332.047                    21515341.766
 126429392.472 6  98516486.69043  24058726.297                    24058740.484
 124472904.727 7  96991934.869 6  23686411.930                    23686424.711
 123245459.468 7  96035485.821 6  23452825.648                    23452836.973
 124440844.127 7  96966981.66243  23680313.789                    23680323.883
 108575893.086 8  84604781.92446  20661271.875                    20661278.762
 11  8 25  0 14  0.0000000  0  9G10G04G12G05G09G25G17G30G02
 109995415.090 8  85710853.72146  20931396.891                    20931406.453
 116296535.887 7  90620825.27545  22130464.742                    22130475.074
 111349128.302 8  86765626.399 7  21189031.930                    21189040.777
 112983946.781 8  88039538.929 7  21500097.422                    21500107.309
 126509919.075 6  98579234.52443  24074050.227                    24074064.148
 124378616.391 7  96918463.485 6  23668469.383                    23668482.348
 123301522.058 7  96079170.905 6  23463493.992                    23463505.324
 124345670.327 7  96892820.30044  23662202.688                    23662213.172
 108583031.668 8  84610344.46946  20662630.078                    20662637.184
 11  8 25  0 14 30.0000000  0  9G10G04G12G05G09G25G17G30G02
 110014613.050 8  85725813.17946  20935050.188                    20935059.559
 116376059.685 7  90682791.85445  22145597.719                    22145607.961
 111300676.542 8  86727871.799 7  21179811.820                    21179820.188
 112904271.911 8  87977454.701 7  21484935.469                    21484945.828
 126590522.595 6  98642042.28343  24089388.563                    24089402.492
 124284569.397 7  96845180.193 6  23650572.953                    23650585.730
 123357756.625 7  96122989.996 6  23474195.094                    23474206.195
 124250793.433 7  96818890.31244  23644148.406                    23644158.938
 108590422.779 8  84616103.79046  20664036.797                    20664043.586
 11  8 25  0 15  0.0000000  0  9G10G04G12G05G09G25G17G30G02
 110034434.472 8  85741258.45946  20938822.234                    20938831.684
 116455662.744 7  90744820.18945  22160745.461                    22160756.203
 111252710.163 8  86690495.430 7  21170683.789                    21170692.695
 112824982.918 8  87915671.150 7  21469847.227                    21469857.430
 126671199.513 6  98704907.23343  24104740.867                    24104754.785
 124190765.924 7  96772086.657 6  23632722.227                    23632735.203
 123414163.287 7  96166943.171 6  23484929.305                    23484940.414
 124156215.902 7  96745193.55144  23626150.695                    23626161.391
 108598064.459 8  84622058.37146  20665490.969                    20665497.922
 11  8 25  0 15 30.0000000  0  9G10G04G12G05G09G25G17G30G02
 110054878.714 8  85757189.04746  20942712.227                    20942722.027
 116535343.520 7  90806909.09945  22175908.391                    22175918.813
 111205230.849 8  86653498.585 7  21161648.773                    21161657.418
 112746081.769 7  87854189.823 7  21454832.789                    21454842.496
 126751946.430 6  98767826.70443  24120106.188                    24120120.980
 124097208.817 7  96699185.115 7  23614918.969                    23614932.648
 123470742.633 6  96211030.908 6  23495696.023                    23495707.641
 124061940.620 7  96671732.30444  23608210.383                    23608221.168
 108605955.663 8  84628207.37446  20666992.422                    20666999.207
 11  8 25  0 16  0.0000000  0  9G10G04G12G05G09G25G17G30G02
 110075945.048 8  85773604.37446  20946721.195                    20946731.047
 116615100.265 7  90869057.20545  22191085.500                    22191095.902
 111158240.485 8  86616882.747 7  21152706.727                    21152715.695
 112667571.495 8  87793013.070 7  21439892.945                    21439903.145
 126832760.054 6  98830798.19043  24135485.430                    24135499.262
 124003900.753 7  96626477.640 7  23597163.250                    23597175.652
 123527495.112 7  96255253.569 6  23506495.172                    23506506.684
 123967970.412 7  96598508.78144  23590328.727                    23590339.008
 108614095.052 8  84634549.77146  20668541.414                    20668548.367
 11  8 25  0 16 30.0000000  0  9G10G04G12G05G09G25G17G30G02
 110097633.060 8  85790504.12646  20950848.070                    20950857.684
 116694931.577 7  90931263.40745  22206276.938                    22206287.391
 111111741.660 8  86580649.923 7  21143858.313                    21143867.086
 112589455.060 8  87732143.207 7  21425027.227                    21425037.785
 126913637.413 6  98893819.31343  24150875.664                    24150889.578
 123910844.672 7  96553966.498 6  23579454.758                    23579467.527
 123584421.222 6  96299611.530 6  23517328.008                    23517339.188
 123874308.470 7  96525525.46643  23572504.969                    23572515.863
 108622482.003 8  84641085.07846  20670137.664                    20670144.313
 11  8 25  0 17  0.0000000  0  9G10G04G12G05G09G25G17G30G02
 110119941.687 8  85807887.47446  20955093.305                    20955103.027
 116774835.551 7  90993526.22745  22221482.336                    22221492.609
 111065736.137 8  86544801.486 7  21135104.008                    21135112.418
 112511734.800 7  87671582.049 7  21410237.734                    21410247.840
 126994575.215 6  98956887.52843  24166277.680                    24166291.988
 123818042.923 7  96481653.572 7  23561795.094                    23561808.188
 123641521.427 6  96344105.159 6  23528193.664                    23528205.621
 123780957.305 6  96452784.31944  23554741.031                    23554751.828
 108631114.932 8  84647812.05746  20671780.000                    20671786.934
 11  8 25  0 17 30.0000000  0  9G10G04G12G05G09G25G17G30G02
 110142870.299 8  85825753.92246  20959456.516                    20959466.551
 116854810.616 7  91055844.44545  22236700.758                    22236711.320
 111020225.869 8  86509338.970 7  21126443.547                    21126452.027
 112434413.398 8  87611331.685 7  21395524.305                    21395534.039
 127075570.050 6  99020000.16544  24181690.172                    24181705.348
 123725498.259 7  96409540.958 7  23544184.516                    23544197.453
 123698796.673 6  96388735.189 6  23539093.289                    23539104.629
 123687919.671 6  96380287.51343  23537036.859                    23537047.063
 108639992.651 8  84654729.77246  20673469.594                    20673476.441
 11  8 25  0 18  0.0000000  0  9G10G04G12G05G09G25G17G30G02
 110166417.885 8  85844102.69546  20963937.203                    20963947.559
 116934855.031 7  91118216.71045  22251933.078                    22251943.332
 110975212.548 8  86474263.687 7  21117878.094                    21117886.219
 112357492.982 8  87551393.777 7  21380886.594                    21380896.082
 127156618.696 6  99083154.75343  24197113.703                    24197128.820
 123633213.415 7  96337630.788 7  23526623.031                    23526636.254
 123756246.818 6  96433501.464 6  23550025.836                    23550036.781
 123595198.623 6  96308037.41344  23519392.648                    23519402.770
 108649114.222 8  84661837.50446  20675205.508                    20675212.391
 11  8 25  0 18 30.0000000  0  9G10G04G12G05G09G25G17G30G02
 110190583.697 8  85862933.20046  20968536.031                    20968545.523
 117014966.871 7  91180641.51345  22267177.656                    22267187.816
 110930698.173 8  86439577.186 7  21109406.977                    21109415.777
 112280976.257 7  87491770.432 7  21366325.820                    21366335.770
 127237717.675 6  99146348.57444  24212547.242                    24212561.770
 123541190.933 7  96265925.087 7  23509111.891                    23509125.207
 123813872.217 6  96478404.317 6  23560991.313                    23561002.684
 123502796.748 6  96236036.01344  23501809.227                    23501819.359
 108658477.743 8  84669133.76046  20676987.289                    20676993.832
 11  8 25  0 19  0.0000000  0  9G10G04G12G05G09G25G17G30G02
 110215366.652 8  85882244.60346  20973251.906                    20973261.895
 117095145.217 7  91243118.12845  22282435.406                    22282445.715
 110886684.815 8  86405281.093 7  21101031.773                    21101039.641
 112204865.911 8  87432463.745 7  21351842.414                    21351852.285
 127318864.144 7  99209579.38644  24227989.531                    24228003.789
 123449433.694 7  96194426.035 7  23491651.227                    23491663.770
 123871673.457 6  96523444.193 6  23571990.492                    23572002.336
 123410717.076 6  96164285.68543  23484286.883                    23484297.102
 108668082.525 8  84676618.02446  20678814.961                    20678821.844
 11  8 25  0 19 30.0000000  0  9G10G04G12G05G09G25G17G30G02
 110240765.983 8  85902036.29246  20978085.742                    20978095.070
 117175387.761 7  91305644.75745  22297704.945                    22297715.516
 110843174.347 8  86371376.857 7  21092751.602                    21092760.367
 112129164.659 8  87373475.822 7  21337437.055                    21337446.719
 127400054.787 7  99272844.57944  24243439.250                    24243453.875
 123357944.144 7  96123135.568 7  23474241.617                    23474253.484
 123929651.169 7  96568621.584 6  23583023.336                    23583034.891
 123318962.157 6  96092788.43243  23466826.094                    23466836.949
 108677927.198 8  84684289.19946  20680688.375                    20680695.316
 11  8 25  0 20  0.0000000  0  9G10G04G12G05G09G25G17G30G02
 110266780.889 8  85922307.65746  20983036.133                    20983045.496
 117255693.236 7  91368220.40345  22312986.563                    22312997.324
 110800168.002 8  86337865.446 7  21084568.008                    21084576.629
 112053874.794 8  87314808.471 7  21323109.625                    21323119.590
 127481286.276 7  99336141.62044  24258896.695                    24258912.047
 123266725.067 7  96052055.845 7  23456883.148                    23456895.262
 123987805.752 6  96613936.797 6  23594089.898                    23594101.633
 123227534.839 6  96021546.43343  23449427.891                    23449438.703
 108688010.636 8  84692146.42546  20682607.336                    20682613.934
 11  8 25  0 20 30.0000000  0  9G10G04G12G05G09G25G17G30G02
 110293410.384 8  85943057.93046  20988102.969                    20988112.730
 117336059.919 7  91430843.77145  22328280.070                    22328290.113
 110757668.056 8  86304748.626 7  21076480.461                    21076488.820
 111978998.745 8  87256463.565 7  21308861.148                    21308870.730
 127562555.439 7  99399468.05344  24274362.219                    24274377.031
 123175779.201 7  95981189.012 7  23439576.523                    23439588.848
 124046137.512 6  96659390.052 6  23605190.508                    23605201.652
 123136437.999 6  95950561.96543  23432093.219                    23432103.102
 108698331.402 8  84700188.59046  20684571.008                    20684577.738
 11  8 25  0 21  0.0000000  0  9G10G04G12G05G09G25G17G30G02
 110320653.417 8  85964286.28746  20993287.820                    20993297.000
 117416485.919 7  91493513.35045  22343583.805                    22343594.781
 110715676.141 8  86272027.687 7  21068489.578                    21068498.066
 111904539.029 7  87198443.076 7  21294691.750                    21294701.781
 127643858.818 6  99462821.11444  24289833.805                    24289848.535
 123085108.920 7  95910536.910 7  23422322.023                    23422334.699
 124104646.708 6  96704981.579 6  23616324.219                    23616335.816
 123045674.218 7  95879837.04543  23414821.305                    23414831.641
 108708888.058 8  84708414.56246  20686579.750                    20686586.914
 11  8 25  0 21 30.0000000  0  9G10G04G12G05G09G25G17G30G02
 110348509.017 8  85985991.96846  20998588.680                    20998597.914
 117496970.018 7  91556228.19845  22358899.852                    22358910.691
 110674194.267 8  86239704.174 7  21060595.633                    21060604.457
 111830498.075 8  87140748.905 7  21280602.039                    21280612.336
 127725193.449 6  99526198.53044  24305311.320                    24305326.590
 122994717.191 7  95840101.881 6  23405121.016                    23405133.730
 124163333.887 6  96750711.800 6  23627492.094                    23627503.402
 122955246.430 7  95809373.92944  23397613.711                    23397623.430
 108719679.880 8  84716823.77046  20688633.781                    20688640.324
 11  8 25  0 22  0.0000000  0  9G10G04G12G05G09G25G17G30G02
 110376976.599 8  86008174.51046  21004005.227                    21004015.086
 117577510.848 7  91618987.25845  22374226.250                    22374236.750
 110633224.710 8  86207779.858 7  21052799.883                    21052808.195
 111756878.973 7  87083383.439 7  21266592.766                    21266602.734
 127806556.439 6  99589598.04044  24320794.352                    24320810.074
 122904606.993 7  95769886.213 6  23387973.602                    23387985.891
 124222199.801 6  96796581.291 6  23638693.914                    23638705.469
 122865157.793 7  95739175.03444  23380469.805                    23380480.047
 108730706.201 8  84725415.72046  20690731.813                    20690738.523
 11  8 25  0 22 30.0000000  0  9G10G04G12G05G09G25G17G30G02
 110406054.582 8  86030832.70146  21009538.617                    21009548.742
 117658106.580 7  91681789.09745  22389563.250                    22389573.410
 110592768.220 8  86176255.343 7  21045101.039                    21045109.559
 111683683.316 8  87026347.941 7  21252664.086                    21252674.258
 127887944.244 6  99653016.88344  24336282.219                    24336297.215
 122814780.449 7  95699891.553 6  23370880.094                    23370892.523
 124281244.303 7  96842589.971 6  23649929.297                    23649941.266
 122775410.518 7  95669242.19444  23363391.539                    23363401.660
 108741964.711 8  84734188.58846  20692874.117                    20692880.820
 11  8 25  0 23  0.0000000  0  9G10G04G12G05G09G25G17G30G02
 110435742.180 8  86053965.91746  21015188.281                    21015197.793
 117738755.636 7  91744632.47344  22404910.148                    22404920.867
 110552827.326 8  86145132.594 7  21037500.242                    21037509.211
 111610913.952 8  86969644.605 7  21238816.828                    21238826.852
 127969353.748 6  99716452.63743  24351773.602                    24351789.676
 122725240.452 7  95630120.195 6  23353841.055                    23353853.813
 124340468.153 7  96888738.381 6  23661199.891                    23661211.207
 122686007.585 7  95599577.63843  23346378.867                    23346389.711
 108753454.591 8  84743141.73846  20695060.289                    20695067.398
 11  8 25  0 23 30.0000000  0  9G10G04G12G05G09G25G17G30G02
 110466038.279 8  86077573.30446  21020953.594                    21020962.789
 117819456.585 7  91807516.30444  22420267.016                    22420277.645
 110513403.404 8  86114412.676 7  21029998.328                    21030006.785
 111538573.339 8  86913275.362 7  21225050.531                    21225060.160
 128050781.908 6  99779902.92943  24367270.023                    24367285.051
 122635989.796 7  95560574.289 6  23336857.148                    23336869.848
 124399871.690 6  96935026.794 6  23672504.492                    23672515.406
 122596951.899 7  95530183.68144  23329431.750                    23329442.313
 108765174.953 8  84752274.49246  20697290.867                    20697297.680
 11  8 25  0 24  0.0000000  0  9G10G04G12G05G09G25G17G30G02
 110496941.203 8  86101653.53646  21026833.852                    21026843.234
 117900207.726 7  91870439.23245  22435633.859                    22435644.391
 110474497.750 8  86084096.596 7  21022594.938                    21022603.301
 111466663.567 8  86857241.837 7  21211366.938                    21211376.539
 128132225.108 6  99843364.91343  24382767.148                    24382782.758
 122547030.819 7  95491255.684 7  23319929.219                    23319941.488
 124459455.176 6  96981455.434 6  23683841.719                    23683853.609
 122508246.009 7  95461062.31344  23312551.578                    23312561.863
 108777123.712 8  84761585.21346  20699564.641                    20699571.523
 11  8 25  0 24 30.0000000  0  9G10G04G12G05G09G25G17G30G02
 110528450.164 8  86126205.98946  21032829.898                    21032839.457
 117981007.583 7  91933400.12844  22451009.461                    22451020.078
 110436112.862 8  86054186.310 7  21015290.516                    21015299.266
 111395187.547 8  86801546.304 7  21197765.188                    21197775.098
 128213680.756 6  99906836.63043  24398268.281                    24398283.617
 122458366.530 7  95422166.698 6  23303056.508                    23303069.488
 124519219.010 6  97028024.586 6  23695214.563                    23695226.645
 122419892.824 7  95392215.75644  23295738.391                    23295749.160
 108789300.442 8  84771073.58346  20701882.125                    20701888.516
 11  8 25  0 25  0.0000000  0  9G10G04G12G05G09G25G17G30G02
 110560563.988 8  86151229.77146  21038940.570                    21038950.691
 118061854.654 7  91996397.83144  22466394.539                    22466404.805
 110398249.883 8  86024682.704 7  21008085.234                    21008093.352
 111324147.376 8  86746190.384 7  21184246.906                    21184256.668
 128295145.332 6  99970315.27843  24413770.781                    24413785.859
 122369999.399 7  95353309.269 6  23286240.625                    23286252.965
 124579163.718 6  97074734.699 6  23706622.156                    23706633.613
 122331895.048 6  95323646.15344  23278992.484                    23279003.316
 108801703.631 8  84780738.40446  20704242.164                    20704249.266
 11  8 25  0 25 30.0000000  0  9G10G04G12G05G09G25G17G30G02
 110593281.495 8  86176723.95246  21045166.633                    21045176.496
 118142747.464 7  92059431.16845  22481787.586                    22481798.109
 110360910.464 8  85995587.076 7  21000979.703                    21000988.363
 111253545.341 8  86691175.883 7  21170811.594                    21170821.578
 128376616.077 6 100033798.74443  24429274.055                    24429289.375
 122281932.310 7  95284685.634 6  23269481.688                    23269494.293
 124639289.455 6  97121585.848 6  23718063.141                    23718075.949
 122244255.459 6  95255355.67644  23262315.961                    23262326.363
 108814332.488 8  84790579.07846  20706645.219                    20706652.121
 11  8 25  0 26  0.0000000  0  9G10G04G12G05G09G25G17G30G02
 110626601.586 8  86202687.68546  21051507.211                    21051517.043
 118223684.487 7  92122498.94145  22497189.461                    22497199.945
 110324096.643 8  85966901.001 7  20993974.398                    20993983.082
 111183383.702 8  86636504.530 7  21157460.227                    21157469.605
 128458089.747 6 100097284.48143  24444777.719                    24444793.355
 122194167.641 7  95216297.657 7  23252781.438                    23252793.770
 124699596.596 6  97168578.378 6  23729539.828                    23729551.055
 122156976.743 7  95187346.37344  23245706.672                    23245717.566
 108827185.322 8  84800594.28546  20709091.250                    20709097.988
 11  8 25  0 26 30.0000000  0  9G10G04G12G05G09G25G17G30G02
 110660522.767 8  86229119.79346  21057962.391                    21057971.871
 118304664.321 7  92185600.08745  22512599.391                    22512609.508
 110287809.929 8  85938625.657 7  20987069.031                    20987077.672
 111113665.098 8  86582178.418 7  21144193.039                    21144202.590
 128539562.789 6 100160769.73543  24460281.906                    24460298.043
 122106708.216 7  95148147.528 7  23236138.070                    23236150.059
 124760085.651 6  97215712.658 6  23741050.914                    23741062.031
 122070061.659 6  95119620.41144  23229168.000                    23229178.473
 108840261.099 8  84810783.19746  20711579.352                    20711586.359
 11  8 25  0 27  0.0000000  0  9G10G04G12G05G09G25G17G30G02
 110695043.993 8  86256019.47246  21064531.477                    21064541.434
 118385685.352 7  92248733.35544  22528017.125                    22528027.555
 110252051.385 8  85910761.870 7  20980264.758                    20980273.219
 111044391.843 8  86528199.319 7  21131010.492                    21131020.348
 128621032.364 6 100224252.24243  24475785.633                    24475801.332
 122019556.557 7  95080237.219 7  23219553.664                    23219565.957
 124820756.795 6  97262988.840 6  23752596.047                    23752607.641
 121983512.893 6  95052179.92744  23212697.461                    23212708.504
 108853558.448 8  84821144.76346  20714109.875                    20714116.480
 11  8 25  0 27 30.0000000  0  9G10G04G12G05G09G25G17G30G02
 110730163.940 8  86283385.69246  21071214.617                    21071224.508
 118466746.457 7  92311897.83645  22543442.555                    22543453.063
 110216823.152 8  85883311.319 7  20973560.875                    20973569.137
 110975566.182 8  86474568.999 7  21117913.531                    21117923.480
 128702495.417 6 100287729.67743  24491288.523                    24491303.371
 121932715.570 7  95012568.987 7  23203028.234                    23203041.188
 124881610.573 6  97310407.301 6  23764175.672                    23764188.102
 121897333.442 6  94985027.18744  23196297.977                    23196308.313
 108867076.431 8  84831678.26246  20716682.023                    20716688.984
 11  8 25  0 28  0.0000000  0  9G10G04G12G05G09G25G17G30G02
 110765881.084 8  86311217.25746  21078010.984                    21078020.930
 118547845.941 7  92375092.21944  22558875.609                    22558885.680
 110182126.499 8  85856274.978 7  20966958.148                    20966966.582
 110907190.159 8  86421289.046 7  21104901.836                    21104912.055
 128783948.709 6 100351199.55643  24506788.547                    24506803.734
 121846187.724 7  94945144.757 7  23186562.453                    23186574.574
 124942647.295 6  97357968.317 6  23775790.398                    23775802.688
 121811525.711 7  94918164.11144  23179969.438                    23179980.055
 108880813.792 8  84842382.71046  20719296.258                    20719303.129
 11  8 25  0 28 30.0000000  0  9G10G04G12G05G09G25G17G30G02
 110802193.818 8  86339512.90746  21084921.328                    21084931.141
 118628982.122 7  92438315.19744  22574314.789                    22574325.711
 110147963.030 8  85829654.115 7  20960457.164                    20960465.840
 110839266.403 8  86368361.511 7  21091976.555                    21091986.074
 128865389.226 6 100414659.44943  24522286.219                    24522301.512
 121759975.632 7  94877966.546 7  23170157.016                    23170169.008
 125003866.953 6  97405671.886 6  23787440.766                    23787452.668
 121726092.433 7  94851592.78744  23163712.438                    23163722.910
 108894769.023 8  84853256.92546  20721951.891                    20721958.664
 11  8 25  0 29  0.0000000  0  9G10G04G12G05G09G25G17G30G02
 110839100.636 8  86368271.48146  21091944.266                    21091954.090
 118710153.784 7  92501565.82444  22589760.906                    22589772.203
 110114334.303 8  85803449.924 7  20954057.773                    20954066.195
 110771796.854 8  86315787.905 7  21079137.195                    21079147.383
 128946813.814 6 100478106.95143  24537780.875                    24537796.402
 121674081.848 7  94811036.381 7  23153812.086                    23153823.969
 125065269.995 6  97453518.361 6  23799125.680                    23799137.496
 121641036.385 7  94785315.40144  23147526.117                    23147536.684
 108908941.033 8  84864300.04846  20724648.469                    20724655.652
 11  8 25  0 29 30.0000000  0  9G10G04G12G05G09G25G17G30G02
 110876600.831 8  86397492.42146  21099080.773                    21099089.785
 118791359.698 7  92564843.13744  22605214.656                    22605224.953
 110081241.910 8  85777663.655 7  20947760.859                    20947769.035
 110704784.135 8  86263570.263 7  21066385.305                    21066395.031
 129028219.366 6 100541539.61743  24553272.055                    24553287.219
 121588509.358 7  94744356.554 7  23137527.805                    23137539.852
 125126856.918 6  97501508.125 6  23810844.672                    23810856.531
 121556360.419 7  94719334.20444  23131412.344                    23131423.309
 108923329.011 8  84875511.46246  20727386.742                    20727393.395
 11  8 25  0 30  0.0000000  0  9G10G04G12G05G09G25G17G30G02
 110914692.381 8  86427174.16146  21106329.125                    21106338.504
 118872598.278 7  92628145.88044  22620673.094                    22620684.133
 110048687.023 8  85752296.227 7  20941565.336                    20941574.047
 110638230.189 8  86211710.107 7  21053720.563                    21053730.422
 129109602.896 6 100604955.14643  24568758.648                    24568774.895
 121503260.403 7  94677928.834 7  23121305.609                    23121317.859
 125188627.885 6  97549641.295 6  23822599.828                    23822611.270
 121472066.870 7  94653650.98044  23115372.773                    23115382.590
 108937931.123 8  84886889.73946  20730165.492                    20730171.957
 11  8 25  0 30 30.0000000  0  9G10G04G12G05G09G25G17G30G02
 110953374.220 8  86457315.87046  21113689.758                    21113699.652
 118953868.010 7  92691472.91444  22636138.602                    22636149.191
 110016671.395 8  85727348.996 7  20935472.906                    20935481.801
 110572137.491 8  86160209.367 7  21041143.313                    21041152.887
 129190961.233 6 100668351.01643  24584240.820                    24584256.965
 121418337.798 7  94611755.418 7  23105145.336                    23105157.410
 125250583.402 6  97597918.290 6  23834389.719                    23834401.000
 121388158.687 7  94588268.05344  23099405.117                    23099415.820
 108952746.421 8  84898434.13246  20732984.648                    20732991.492
 11  8 25  0 31  0.0000000  0  9G10G04G12G05G09G25G17G30G02
 110992644.769 8  86487916.29346  21121163.063                    21121172.691
 119035167.741 7  92754823.33944  22651610.000                    22651620.355
 109985196.615 8  85702823.198 7  20929483.563                    20929492.461
 110506507.713 8  86109069.337 7  21028654.281                    21028663.902
 129272291.419 6 100731724.92043  24599717.727                    24599733.848
 121333744.194 7  94545838.339 7  23089047.922                    23089060.121
 125312723.504 6  97646339.111 6  23846214.273                    23846225.539
 121304638.459 7  94523187.41544  23083511.492                    23083521.668
 108967773.703 8  84910143.70346  20735844.281                    20735851.156
 11  8 25  0 31 30.0000000  0  9G10G04G12G05G09G25G17G30G02
 111032502.261 8  86518974.08146  21128747.930                    21128757.082
 119116496.042 7  92818196.02644  22667085.336                    22667096.379
 109954263.406 8  85678719.405 7  20923597.328                    20923605.895
 110441343.422 8  86058292.035 7  21016253.961                    21016263.844
 129353590.201 6 100795074.35743  24615188.633                    24615204.746
 121249482.261 7  94480179.715 7  23073012.898                    23073025.539
 125375048.631 6  97694904.098 6  23858074.750                    23858085.641
 121221508.980 7  94458411.24244  23067692.875                    23067702.285
 108983011.916 8  84922017.63846  20738743.664                    20738750.770
 11  8 25  0 32  0.0000000  0  9G10G04G12G05G09G25G17G30G02
 111072945.082 8  86550487.96246  21136443.797                    21136453.363
 119197851.185 7  92881589.61844  22682567.203                    22682578.246
 109923873.378 8  85655038.872 8  20917814.461                    20917822.918
 110376646.272 8  86007878.732 7  21003942.227                    21003952.332
 129434854.548 6 100858396.92643  24630652.953                    24630669.977
 121165554.300 7  94414781.318 7  23057042.461                    23057054.129
 125437558.923 6  97743613.380 6  23869970.031                    23869980.922
 121138772.609 7  94393941.37644  23051948.094                    23051958.371
 108998459.397 8  84934054.63646  20741683.234                    20741690.289
 11  8 25  0 32 30.0000000  0  9G10G04G12G05G09G25G17G30G02
 111113972.081 8  86582457.05246  21144250.844                    21144260.277
 119279232.322 7  92945003.44344  22698053.664                    22698063.781
 109894028.272 8  85631782.954 7  20912135.078                    20912143.566
 110312419.307 8  85957831.804 7  20991720.344                    20991730.207
 129516081.946 6 100921690.70143  24646110.188                    24646126.734
 121081963.407 7  94349645.574 7  23041135.414                    23041147.371
 125500254.757 6  97792467.232 6  23881901.086                    23881911.742
 121056432.429 7  94329780.25244  23036279.734                    23036289.512
 109014115.816 8  84946254.45146  20744662.578                    20744669.410
 11  8 25  0 33  0.0000000  0  9G10G04G12G05G09G25G17G30G02
 111155581.560 8  86614880.02346  21152169.031                    21152178.633
 119360637.902 7  93008436.32944  22713544.594                    22713555.148
 109864729.377 8  85608952.652 7  20906559.141                    20906568.266
 110248664.099 8  85908152.486 7  20979588.242                    20979597.742
 129597268.918 6 100984952.97443  24661560.109                    24661576.324
 120998711.901 7  94284774.284 7  23025293.078                    23025305.250
 125563136.275 6  97841465.786 6  23893866.555                    23893877.594
 120974490.879 7  94265929.75144  23020686.891                    23020696.758
 109029979.286 8  84958615.60146  20747681.523                    20747688.727
 11  8 25  0 33 30.0000000  0  9G10G04G12G05G09G25G17G30G02
 111197771.871 8  86647755.57546  21160197.289                    21160207.156
 119442066.559 7  93071887.19344  22729040.328                    22729050.398
 109835977.877 8  85586548.884 7  20901088.375                    20901096.637
 110185382.966 8  85858842.567 7  20967546.164                    20967556.027
 129678412.516 6 101048181.43143  24677000.820                    24677018.105
 120915802.543 7  94220169.603 6  23009515.563                    23009527.938
 125626203.924 6  97890609.380 6  23905868.203                    23905878.836
 120892950.553 7  94202391.87344  23005169.953                    23005179.824
 109046048.908 8  84971137.38246  20750739.203                    20750746.316
 11  8 25  0 34  0.0000000  0  9G10G04G12G05G09G25G17G30G02
 111240541.873 8  86681082.85445  21168335.891                    21168345.559
 119523517.295 7  93135355.26744  22744539.953                    22744550.375
 109807775.678 8  85564573.141 7  20895721.484                    20895730.277
 110122578.023 8  85809903.699 7  20955594.555                    20955604.008
 129759510.018 6 101111373.94943  24692433.953                    24692450.230
 120833238.039 7  94155833.662 7  22993804.016                    22993816.184
 125689458.077 6  97939898.299 6  23917905.086                    23917915.859
 120811814.339 7  94139168.87744  22989730.641                    22989740.398
 109062323.683 8  84983819.02846  20753836.250                    20753843.070
 11  8 25  0 34 30.0000000  0  9G10G04G12G05G09G25G17G30G02
 111283889.123 7  86714859.92746  21176584.609                    21176594.527
 119604988.417 7  93198839.19644  22760043.461                    22760054.078
 109780122.899 8  85543025.514 7  20890459.430                    20890467.910
 110060251.361 8  85761337.536 7  20943734.391                    20943743.684
 129840557.962 6 101174527.84143  24707856.516                    24707873.734
 120751020.788 7  94091768.295 6  22978158.844                    22978170.859
 125752898.832 6  97989332.621 6  23929977.781                    23929988.746
 120731084.515 7  94076262.56044  22974367.672                    22974377.754
 109078802.021 8  84996659.28646  20756972.109                    20756978.859
 11  8 25  0 35  0.0000000  0  9G10G04G12G05G09G25G17G30G02
 111327812.190 8  86749085.69346  21184943.352                    21184952.969
 119686478.715 7  93262338.09544  22775550.461                    22775561.074
 109753021.486 8  85521907.529 7  20885302.180                    20885311.070
 109998405.022 8  85713145.634 7  20931965.234                    20931974.730
 129921553.457 6 101237640.82543  24723269.820                    24723286.711
 120669153.450 7  94027975.609 6  22962580.539                    22962592.023
 125816526.397 6  98038912.521 6  23942084.938                    23942096.727
 120650763.908 7  94013675.10744  22959083.383                    22959093.328
 109095482.984 8  85009657.44846  20760146.305                    20760153.355
 11  8 25  0 35 30.0000000  0  9G10G04G12G05G09G25G17G30G02
 111372309.490 7  86783758.91646  21193410.789                    21193420.434
 119767986.931 7  93325850.97644  22791060.875                    22791071.230
 109726472.549 8  85501220.044 7  20880250.336                    20880258.699
 109937040.867 8  85665329.457 7  20920288.086                    20920297.434
 130002493.593 6 101300710.74543  24738672.055                    24738689.133
 120587638.634 7  93964457.616 7  22947068.234                    22947080.105
 125880340.929 6  98088638.090 6  23954228.531                    23954240.227
 120570855.039 7  93951408.49144  22943876.836                    22943887.703
 109112365.242 8  85022812.46646  20763359.133                    20763365.859
 11  8 25  0 36  0.0000000  0  9G10G04G12G05G09G25G17G30G02
 111417379.275 8  86818878.21945  21201987.055                    21201996.316
 119849511.538 7  93389376.62444  22806574.516                    22806584.965
 109700477.257 8  85480963.968 7  20875303.414                    20875311.984
 109876160.954 8  85617890.620 7  20908702.922                    20908712.398
 130083375.514 6 101363735.26743  24754063.820                    24754081.277
 120506478.672 7  93901216.123 7  22931623.977                    22931636.301
 125944342.567 6  98138509.461 6  23966407.234                    23966419.719
 120491360.369 7  93889464.61344  22928749.367                    22928759.422
 109129447.501 8  85036123.31746  20766609.570                    20766616.680
 11  8 25  0 36 30.0000000  0  9G10G04G12G05G09G25G17G30G02
 111463019.502 8  86854442.02545  21210672.234                    21210682.125
 119931051.375 7  93452914.11244  22822090.742                    22822101.441
 109675036.893 8  85461140.298 7  20870462.352                    20870470.637
 109815767.274 8  85570830.664 7  20897210.289                    20897220.020
 130164196.189 6 101426712.00642  24769444.273                    24769460.395
 120425676.186 7  93838253.212 7  22916247.617                    22916259.820
 126008531.764 6  98188526.980 6  23978623.141                    23978634.535
 120412282.445 7  93827845.46044  22913701.367                    22913711.918
 109146728.478 8  85049589.01846  20769898.055                    20769905.109
 11  8 25  0 37  0.0000000  0  9G10G04G12G05G09G25G17G30G02
 111509228.973 8  86890449.41545  21219465.570                    21219474.707
 120012605.406 7  93516462.66544  22837609.930                    22837620.699
 109650152.821 8  85441750.109 7  20865726.930                    20865735.617
 109755861.862 8  85524151.173 7  20885810.570                    20885820.008
 130244952.801 6 101489638.86443  24784812.117                    24784829.082
 120345234.033 7  93775571.065 7  22900940.063                    22900951.992
 126072908.563 6  98238690.675 6  23990872.992                    23990884.715
 120333624.219 7  93766553.36944  22898733.750                    22898743.672
 109164207.528 8  85063209.06446  20773224.078                    20773231.066
 11  8 25  0 37 30.0000000  0  9G10G04G12G05G09G25G17G30G02
 111556005.737 8  86926898.84445  21228367.023                    21228376.695
 120094172.499 7  93580021.39044  22853131.875                    22853142.691
 109625826.334 8  85422794.406 7  20861097.680                    20861106.340
 109696447.055 8  85477853.967 7  20874504.578                    20874513.492
 130325642.335 6 101552513.46943  24800166.930                    24800184.316
 120265154.932 7  93713171.830 7  22885701.703                    22885713.211
 126137473.335 6  98289000.841 6  24003158.680                    24003171.387
 120255388.259 7  93705590.31244  22883845.664                    22883856.070
 109181883.682 8  85076982.70246  20776587.633                    20776594.746
 11  8 25  0 38  0.0000000  0  9G10G04G12G05G09G25G17G30G02
 111603347.628 8  86963788.63545  21237376.094                    21237385.473
 120175750.838 7  93643588.88144  22868655.898                    22868666.281
 109602057.701 8  85404273.400 8  20856574.852                    20856583.691
 109637524.203 8  85431940.111 7  20863291.820                    20863301.078
 130406261.246 6 101615333.00143  24815508.852                    24815525.855
 120185440.872 7  93651057.053 7  22870531.992                    22870544.926
 126202226.033 6  98339457.424 6  24015481.195                    24015493.590
 120177576.671 7  93644957.94044  22869038.930                    22869049.176
 109199754.394 8  85090907.94546  20779988.438                    20779994.980
 11  8 25  0 38 30.0000000  0  9G10G04G12G05G09G25G17G30G02
 111651253.349 8  87001117.77345  21246492.188                    21246501.598
 120257339.942 6  93707164.76944  22884181.961                    22884191.977
 109578848.944 8  85386188.666 7  20852158.367                    20852167.156
 109579095.566 8  85386411.354 7  20852173.164                    20852182.008
 130486807.472 6 101678095.97143  24830836.305                    24830853.340
 120106094.833 7  93589229.035 7  22855433.063                    22855445.297
 126267167.047 6  98390060.763 6  24027839.078                    24027851.297
 120100192.487 7  93584658.61044  22854313.023                    22854322.813
 109217820.126 8  85104985.15246  20783426.305                    20783433.223
 11  8 25  0 39  0.0000000  0  9G10G04G12G05G09G25G17G30G02
 111699720.403 8  87038884.32246  21255714.969                    21255724.441
 120338938.022 7  93770747.64244  22899709.297                    22899719.938
 109556200.514 8  85368540.538 7  20847848.617                    20847857.016
 109521162.912 8  85341269.078 7  20841148.703                    20841158.234
 130567277.679 6 101740799.69743  24846150.016                    24846167.152
 120027119.109 7  93527689.589 7  22840404.469                    22840417.113
 126332296.218 6  98440810.713 6  24040232.898                    24040244.953
 120023237.859 7  93524694.00444  22839668.508                    22839679.594
 109236078.825 8  85119212.72246  20786900.633                    20786908.031
 11  8 25  0 39 30.0000000  0  9G10G04G12G05G09G25G17G30G02
 111748746.921 8  87077086.81445  21265044.383                    21265054.125
 120420543.931 7  93834336.63644  22915238.305                    22915249.512
 109534113.528 8  85351329.911 7  20843645.492                    20843654.145
 109463727.933 8  85296514.592 8  20830219.266                    20830228.176
 130647669.068 6 101803441.99943  24861448.445                    24861464.891
 119948516.172 7  93466440.602 7  22825446.969                    22825458.750
 126397613.960 6  98491707.599 6  24052662.711                    24052674.703
 119946715.333 7  93465066.10844  22825107.094                    22825117.141
 109254529.362 8  85133589.77546  20790411.672                    20790418.527
 11  8 25  0 40  0.0000000  0  8G10G04G12G05G25G17G30G02
 111798332.414 8  87115724.86945  21274480.070                    21274489.746
 120502157.354 7  93897931.47244  22930768.422                    22930780.109
 109512590.335 8  85334558.603 7  20839549.883                    20839558.465
 109406793.923 8  85252150.490 8  20819385.367                    20819394.102
 119870289.721 7  93405485.002 7  22810560.828                    22810573.156
 126463121.632 6  98542752.505 6  24065128.195                    24065140.344
 119870628.582 7  93405777.77244  22810628.633                    22810638.703
 109273172.003 8  85148116.52246  20793959.633                    20793966.289
 11  8 25  0 40 30.0000000  0  8G10G04G12G05G25G17G30G02
 111848473.767 8  87154796.06045  21284021.766                    21284031.539
 120583776.333 6  93961530.64044  22946300.633                    22946311.664
 109491630.878 8  85318226.564 7  20835561.156                    20835569.820
 109350361.505 8  85208177.237 8  20808646.242                    20808655.699
 119792441.135 7  93344823.838 7  22795746.539                    22795758.590
 126528818.352 6  98593944.698 6  24077629.750                    24077642.484
 119794978.908 7  93346830.02344  22796232.508                    22796242.848
 109292004.124 8  85162790.91546  20797543.313                    20797550.074
 11  8 25  0 41  0.0000000  0  8G10G04G12G05G25G17G30G02
 111899168.946 7  87194298.81245  21293668.414                    21293678.188
 120665399.521 7  94025133.07544  22961832.930                    22961843.680
 109471235.698 8  85302334.236 7  20831680.000                    20831688.688
 109294432.396 8  85164596.152 8  20798003.570                    20798012.727
 119714972.865 7  93284459.023 7  22781004.656                    22781016.957
 126594703.616 6  98645283.832 6  24090167.695                    24090179.887
 119719768.738 7  93288224.76044  22781920.758                    22781930.371
 109311024.342 8  85177611.87546  20801162.391                    20801169.164
 11  8 25  0 41 30.0000000  0  8G10G04G12G05G25G17G30G02
 111950416.031 7  87234231.61645  21303420.594                    21303430.523
 120747025.696 7  94088737.84944  22977366.195                    22977376.758
 109451405.904 8  85286882.460 7  20827906.578                    20827914.969
 109239008.644 8  85121408.866 8  20787456.859                    20787466.051
 119637887.333 7  93224392.424 7  22766335.891                    22766347.418
 126660777.852 6  98696770.202 6  24102741.664                    24102753.055
 119645000.609 7  93229963.93944  22767692.898                    22767703.008
 109330231.634 8  85192578.61246  20804817.625                    20804824.125
 11  8 25  0 42  0.0000000  0  8G10G04G12G05G25G17G30G02
 112002213.412 7  87274593.22045  21313277.273                    21313286.891
 120828654.253 7  94152344.48544  22992899.563                    22992909.934
 109432143.126 8  85271872.522 7  20824241.195                    20824249.512
 109184092.037 8  85078616.750 8  20777006.438                    20777015.516
 119561187.585 7  93164626.447 7  22751740.438                    22751752.188
 126727041.518 6  98748404.207 6  24115350.766                    24115362.711
 119570677.294 7  93172049.73044  22753549.141                    22753559.285
 109349625.434 8  85207690.66946  20808507.891                    20808514.508
 11  8 25  0 42 30.0000000  0  8G10G04G12G05G25G17G30G02
 112054558.632 7  87315381.72045  21323238.484                    21323247.773
 120910283.524 7  94215951.67344  23008433.414                    23008444.195
 109413447.767 8  85257304.717 7  20820683.500                    20820691.723
 109129684.190 8  85036221.065 8  20766652.391                    20766662.039
 119484875.879 7  93105162.819 7  22737218.719                    22737230.918
 126793494.726 7  98800185.889 6  24127996.328                    24128008.875
 119496801.155 7  93114483.96244  22739490.906                    22739500.945
 109369204.549 8  85222947.13446  20812233.453                    20812240.316
 11  8 25  0 43  0.0000000  0  8G10G04G12G05G25G17G30G02
 112107449.592 7  87356595.46045  21333303.281                    21333312.809
 120991912.379 7  94279558.55044  23023966.242                    23023976.961
 109395320.629 8  85243179.693 7  20817233.938                    20817242.508
 109075786.732 8  84994223.091 8  20756396.313                    20756405.707
 119408954.317 7  93046003.222 7  22722771.547                    22722783.723
 126860137.287 7  98852115.114 6  24140678.281                    24140690.207
 119423374.324 7  93057268.31144  22725518.063                    22725528.004
 109388967.175 8  85238346.59746  20815994.422                    20816001.125
 11  8 25  0 43 30.0000000  0  8G10G04G12G05G25G17G30G02
 112160884.829 8  87398233.31545  21343471.813                    21343481.020
 121073539.993 7  94343164.45844  23039499.688                    23039510.207
 109377762.809 8  85229498.281 7  20813892.734                    20813901.270
 109022401.933 8  84952624.588 8  20746237.094                    20746246.883
 119333425.844 7  92987149.900 7  22708398.805                    22708410.508
 126926969.532 7  98904192.165 6  24153395.758                    24153407.703
 119350399.513 7  93000404.88744  22711631.445                    22711641.465
 109408912.697 8  85253888.56646  20819789.984                    20819796.938
 11  8 25  0 44  0.0000000  0  8G10G04G12G05G25G17G30G02
 112214862.152 7  87440293.56645  21353743.180                    21353752.629
 121155165.215 7  94406768.50644  23055032.852                    23055043.012
 109360775.030 8  85216261.065 7  20810660.313                    20810668.879
 108969531.234 8  84911426.685 8  20736176.383                    20736185.789
 119258292.812 7  92928604.709 7  22694101.477                    22694112.930
 126993991.460 7  98956417.021 6  24166149.617                    24166161.461
 119277879.181 7  92943895.59844  22697831.086                    22697841.422
 109429039.955 8  85269572.14846  20823619.992                    20823626.816
 11  8 25  0 44 30.0000000  0  8G10G04G12G05G25G17G30G02
 112269379.502 8  87482774.63945  21364117.000                    21364127.246
 121236786.864 7  94470369.80144  23070564.313                    23070575.164
 109344358.265 8  85203468.828 7  20807535.648                    20807544.793
 108917176.425 8  84870630.802 8  20726213.250                    20726222.848
 119183557.739 7  92870369.646 7  22679879.500                    22679891.547
 127061203.366 6  99008789.942 5  24178939.875                    24178951.414
 119205815.665 7  92887742.30244  22684117.836                    22684127.848
 109449347.848 8  85285396.50846  20827484.375                    20827491.504
 11  8 25  0 45  0.0000000  0  8G10G04G12G05G25G17G30G02
 112324434.506 8  87525674.62945  21374593.867                    21374603.402
 121318404.010 7  94533967.56344  23086095.242                    23086106.230
 109328513.271 8  85191122.092 7  20804520.758                    20804529.176
 108865339.146 8  84830238.160 8  20716348.844                    20716358.359
 119109223.008 7  92812446.528 7  22665734.195                    22665746.047
 127128605.208 6  99061310.852 5  24191765.648                    24191777.309
 119134211.357 7  92831946.80644  22670491.844                    22670501.977
 109469835.284 8  85301360.74746  20831382.102                    20831390.301
 11  8 25  0 45 30.0000000  0  8G10G04G12G05G25G17G30G02
 112380025.296 8  87568992.11945  21385172.680                    21385182.363
 121400015.518 7  94597560.90544  23101625.695                    23101636.730
 109313240.892 8  85179221.546 7  20801614.352                    20801622.805
 108814020.965 8  84790250.009 8  20706583.328                    20706592.797
 119035291.086 7  92754837.263 7  22651665.414                    22651677.324
 127196197.206 6  99113979.928 5  24204627.945                    24204639.656
 119063068.656 7  92776510.98244  22656953.922                    22656964.129
 109490501.101 8  85317463.99046  20835315.469                    20835322.531
 11  8 25  0 46  0.0000000  0  8G10G04G12G05G25G17G30G02
 112436149.516 7  87612725.28745  21395852.227                    21395862.336
 121481619.980 7  94661148.77044  23117154.305                    23117165.637
 109298541.650 8  85167767.611 7  20798817.359                    20798825.770
 108763223.477 8  84750667.602 8  20696917.063                    20696926.383
 118961764.264 7  92697543.656 7  22637673.766                    22637685.410
 127263979.213 6  99166797.074 5  24217526.602                    24217538.563
 118992389.818 7  92721436.61744  22643504.086                    22643514.367
 109511343.961 8  85333705.18646  20839281.609                    20839288.531
 11  8 25  0 46 30.0000000  0  8G10G04G12G05G25G17G30G02
 112492804.884 8  87656872.31345  21406633.453                    21406643.250
 121563216.461 7  94724730.44243  23132681.531                    23132691.898
 109284416.335 8  85156760.880 8  20796129.078                    20796137.816
 108712948.417 8  84711492.271 7  20687350.031                    20687358.961
 118888644.956 7  92640567.597 7  22623759.469                    22623771.781
 127331951.349 6  99219762.354 6  24230461.266                    24230473.637
 118922177.044 7  92666725.41944  22630142.734                    22630153.043
 109532362.729 8  85350083.44346  20843281.320                    20843288.383
 11  8 25  0 47  0.0000000  0  8G10G04G12G05G25G17G30G02
 112549989.524 7  87701431.75945  21417515.250                    21417524.984
 121644803.883 7  94788305.04543  23148207.172                    23148217.500
 109270865.258 8  85146201.609 7  20793550.539                    20793559.168
 108663197.050 8  84672725.009 7  20677882.234                    20677891.789
 118815935.547 7  92583910.932 7  22609923.414                    22609935.387
 127400113.556 6  99272875.721 6  24243431.891                    24243444.402
 118852432.777 7  92612379.29045  22616871.383                    22616881.363
 109553556.266 8  85366597.88946  20847314.289                    20847321.707
 11  8 25  0 47 30.0000000  0  8G10G04G12G05G25G17G30G02
 112607701.482 8  87746402.10645  21428497.625                    21428507.348
 121726381.588 7  94851872.07144  23163730.898                    23163742.180
 109257890.113 8  85136091.126 7  20791081.313                    20791089.680
 108613971.669 8  84634367.605 8  20668515.195                    20668524.309
 118743638.807 7  92527575.834 7  22596165.711                    22596177.395
 127468466.169 6  99326137.490 6  24256438.922                    24256451.027
 118783159.682 7  92558400.29745  22603688.961                    22603699.016
 109574924.149 8  85383248.17546  20851380.563                    20851387.605
 11  8 25  0 48  0.0000000  0  8G10G04G12G05G25G17G30G02
 112665938.608 7  87791781.67045  21439579.570                    21439589.871
 121807948.376 7  94915430.58344  23179252.836                    23179263.805
 109245491.278 8  85126429.698 7  20788721.945                    20788730.516
 108565273.252 8  84596420.827 7  20659248.133                    20659257.398
 118671757.092 7  92471564.121 7  22582486.891                    22582499.297
 127537009.134 6  99379547.570 6  24269483.125                    24269494.816
 118714359.998 7  92504790.19045  22590596.563                    22590606.863
 109596464.998 8  85400033.24546  20855479.375                    20855486.445
 11  8 25  0 48 30.0000000  0  8G10G04G12G05G25G17G30G02
 112724698.513 7  87837568.59245  21450761.625                    21450771.313
 121889503.262 6  94978979.83944  23194771.625                    23194782.793
 109233669.047 8  85117217.578 7  20786472.195                    20786480.984
 108517103.592 8  84558886.075 8  20650081.750                    20650091.156
 118600292.827 7  92415877.694 7  22568887.805                    22568900.051
 127605742.333 6  99433105.873 6  24282561.430                    24282574.074
 118646036.027 7  92451550.77445  22577594.992                    22577605.309
 109618177.757 8  85416952.28446  20859611.375                    20859618.543
 11  8 25  0 49  0.0000000  0  8G10G04G12G05G25G17G30G02
 112783978.320 7  87883760.63845  21462041.484                    21462051.820
 121971045.059 6  95042518.86244  23210288.930                    23210299.664
 109222423.939 8  85108455.157 7  20784332.242                    20784340.879
 108469463.856 8  84521764.246 8  20641016.016                    20641025.047
 118529247.852 7  92360517.992 7  22555368.578                    22555380.504
 127674665.836 6  99486812.467 6  24295677.109                    24295689.977
 118578189.622 7  92398683.48545  22564684.414                    22564694.758
 109640060.837 8  85434004.03746  20863775.625                    20863782.441
 11  8 25  0 49 30.0000000  0  8G10G04G12G05G25G17G30G02
 112843776.233 8  87930356.40645  21473421.117                    21473430.996
 122052572.888 6  95106047.03144  23225803.578                    23225814.309
 109211756.616 8  85100142.960 7  20782302.227                    20782310.930
 108422355.726 8  84485056.647 8  20632051.734                    20632060.828
 118458624.873 7  92305487.132 7  22541929.133                    22541941.664
 127743779.671 6  99540667.381 6  24308829.656                    24308841.918
 118510823.328 7  92346190.28945  22551864.656                    22551874.945
 109662113.499 8  85451187.92046  20867972.391                    20867978.855
 11  8 25  0 50  0.0000000  0  8G10G04G12G05G25G17G30G02
 112904090.490 7  87977354.51545  21484898.273                    21484908.105
 122134085.992 7  95169563.71544  23241314.711                    23241326.094
 109201668.003 7  85092281.714 7  20780382.711                    20780391.160
 108375780.956 8  84448764.662 8  20623188.805                    20623198.016
 118388426.459 7  92250787.073 7  22528570.828                    22528582.547
 127813084.045 6  99594670.761 6  24322017.766                    24322030.090
 118443939.573 7  92294073.09945  22539137.320                    22539147.254
 109684335.010 7  85468503.37746  20872200.445                    20872207.242
 11  8 25  0 50 30.0000000  0  8G10G04G12G05G25G17G30G02
 112964918.144 7  88024752.68945  21496473.469                    21496483.742
 122215583.047 7  95233067.89844  23256823.539                    23256834.453
 109192158.053 8  85084871.359 7  20778573.047                    20778581.578
 108329740.607 8  84412889.109 8  20614427.734                    20614437.012
 118318654.755 7  92196419.543 7  22515293.672                    22515305.930
 127882578.502 7  99648822.260 6  24335242.250                    24335254.402
 118377540.474 7  92242333.57144  22526501.805                    22526512.422
 109706723.858 7  85485949.21546  20876460.914                    20876468.508
 11  8 25  0 51  0.0000000  0  8G10G04G12G05G25G17G30G02
 113026256.765 7  88072549.01445  21508146.430                    21508156.059
 122297063.029 7  95296558.75844  23272328.727                    23272339.746
 109183227.396 8  85077912.410 7  20776873.523                    20776881.863
 108284236.109 8  84377431.092 8  20605768.828                    20605777.863
 118249311.915 7  92142386.186 7  22502098.188                    22502110.789
 127952263.371 7  99703122.131 6  24348502.703                    24348515.672
 118311628.001 7  92190973.21845  22513959.516                    22513969.445
 109729278.858 8  85503524.52746  20880753.289                    20880760.449
 11  8 25  0 51 30.0000000  0  9G10G04G12G05G29G25G17G30G02
 113088104.902 7  88120742.36645  21519915.469                    21519925.461
 122378525.279 7  95360035.80944  23287830.117                    23287841.547
 109174876.651 8  85071405.333 7  20775284.484                    20775293.004
 108239268.948 8  84342391.785 8  20597211.609                    20597220.852
 129567399.58716 100961635.75116  24655857.813                    24655868.496
 118180400.454 7  92088688.980 7  22488984.422                    22488996.875
 128022138.620 7  99757570.345 6  24361799.203                    24361811.934
 118246204.597 7  92139993.95744  22501509.047                    22501519.184
 109751999.195 8  85521228.68546  20885076.445                    20885084.008
 11  8 25  0 52  0.0000000  0  9G10G04G12G05G29G25G17G30G02
 113150459.965 7  88169330.72445  21531781.094                    21531790.938
 122459969.089 7  95423498.50444  23303328.289                    23303339.762
 109167106.865 8  85065350.950 7  20773805.953                    20773814.488
 108194841.047 8  84307772.688 8  20588756.844                    20588765.945
 129487711.774 6 100899541.407 6  24640693.500                    24640705.133
 118111923.065 7  92035330.004 7  22475953.766                    22475965.766
 128092204.620 6  99812167.199 6  24375132.805                    24375145.176
 118181272.850 7  92089397.79045  22489153.430                    22489163.383
 109774884.184 8  85539061.13746  20889431.531                    20889438.523
 11  8 25  0 52 30.0000000  0  9G10G04G12G05G29G25G17G30G02
 113213320.150 7  88218312.69345  21543743.445                    21543752.891
 122541393.864 6  95486946.36144  23318823.344                    23318834.043
 109159918.544 8  85059749.652 7  20772438.586                    20772446.621
 108150953.805 8  84273574.877 8  20580405.625                    20580414.887
 129407944.007 6 100837384.754 6  24625514.141                    24625525.906
 118043882.307 7  91982311.269 7  22463005.906                    22463018.051
 128162461.626 7  99866912.907 6  24388502.047                    24388514.656
 118116835.215 7  92039186.66545  22476891.117                    22476901.652
 109797932.975 8  85557021.22846  20893817.305                    20893824.738
 11  8 25  0 53  0.0000000  0  9G10G04G12G05G29G25G17G30G02
 113276682.144 7  88267685.67545  21555800.430                    21555810.133
 122622797.866 6  95550378.01644  23334313.320                    23334324.738
 109153311.224 8  85054601.094 7  20771180.758                    20771189.168
 108107607.860 8  84239798.850 8  20572156.641                    20572166.266
 129328095.524 7 100775165.212 6  24610319.766                    24610331.539
 117976279.667 7  91929633.930 7  22450142.031                    22450154.207
 128232908.897 7  99921806.865 6  24401908.141                    24401920.125
 118052892.959 7  91989361.54344  22464723.000                    22464733.242
 109821143.879 8  85575107.64046  20898234.695                    20898241.664
 11  8 25  0 53 30.0000000  0  9G10G04G12G05G29G25G17G30G02
 113340543.460 7  88317447.74745  21567952.391                    21567962.645
 122704180.087 6  95613792.69444  23349799.523                    23349811.246
 109147285.314 8  85049905.574 7  20770034.102                    20770042.996
 108064804.240 8  84206445.417 8  20564011.727                    20564020.840
 129248167.054 7 100712883.325 6  24595109.664                    24595121.145
 117909117.364 7  91877299.719 7  22437361.352                    22437373.473
 128303546.153 7  99976848.856 6  24415349.258                    24415362.086
 117989448.244 7  91939924.11744  22452650.180                    22452660.027
 109844515.668 8  85593319.42246  20902682.180                    20902689.297
 11  8 25  0 54  0.0000000  0  9G10G04G12G05G29G25G17G30G02
 113404901.713 8  88367597.03545  21580199.953                    21580210.031
 122785539.554 6  95677189.66644  23365282.398                    23365293.969
 109141841.102 8  85045663.327 7  20768998.195                    20769006.723
 108022544.364 8  84173515.687 8  20555969.883                    20555978.910
 129168159.091 7 100650539.535 6  24579884.008                    24579896.395
 117842397.625 7  91825310.352 7  22424665.242                    22424676.816
 128374373.297 6 100032038.825 6  24428827.922                    24428840.246
 117926503.114 7  91890875.98545  22440671.914                    22440682.469
 109868047.326 8  85611655.76446  20907160.023                    20907167.477
 11  8 25  0 54 30.0000000  0  9G10G04G12G05G29G25G17G30G02
 113469754.773 8  88418131.87245  21592540.953                    21592551.141
 122866875.670 6  95740568.40544  23380759.852                    23380772.035
 109136979.131 8  85041874.776 7  20768072.891                    20768081.426
 107980829.731 8  84141010.819 8  20548031.969                    20548041.230
 129088072.528 7 100588134.485 6  24564645.039                    24564656.031
 117776122.945 7  91773667.802 7  22412053.359                    22412065.012
 128445390.440 6 100087376.839 6  24442342.031                    24442354.410
 117864060.038 7  91842219.08045  22428789.914                    22428799.844
 109891738.024 8  85630116.04646  20911668.516                    20911675.180
 11  8 25  0 55  0.0000000  0  9G10G04G12G05G29G25G17G30G02
 113535100.080 7  88469050.29045  21604975.430                    21604985.527
 122948187.530 6  95803928.24944  23396233.094                    23396244.922
 109132699.760 7  85038540.189 7  20767258.563                    20767267.004
 107939661.563 8  84108931.761 8  20540197.797                    20540207.336
 129007907.764 7 100525668.489 6  24549389.836                    24549401.523
 117710295.506 7  91722373.748 7  22399526.852                    22399538.504
 128516597.424 6 100142862.793 6  24455892.023                    24455904.867
 117802120.886 7  91793954.82344  22417003.094                    22417013.078
 109915586.743 8  85648699.45146  20916206.617                    20916213.711
 11  8 25  0 55 30.0000000  0  9G10G04G12G05G29G25G17G30G02
 113600934.724 7  88520350.01345  21617504.078                    21617513.340
 123029473.996 6  95867268.31143  23411702.227                    23411713.027
 109129003.178 7  85035659.728 7  20766554.969                    20766563.742
 107899041.114 8  84077279.492 8  20532468.039                    20532476.719
 128927665.340 6 100463141.994 6  24534120.055                    24534131.871
 117644917.197 7  91671429.651 7  22387085.203                    22387097.418
 128587994.135 6 100198496.577 6  24469478.242                    24469490.211
 117740687.496 7  91746084.68144  22405312.758                    22405322.746
 109939592.026 7  85667404.86546  20920774.875                    20920781.402
 11  8 25  0 56  0.0000000  0  9G10G04G12G05G29G25G17G30G02
 113667256.910 7  88572029.60745  21630124.633                    21630134.777
 123110734.401 6  95930588.05543  23427165.242                    23427176.551
 109125888.857 8  85033232.948 7  20765962.789                    20765971.066
 107858969.386 8  84046054.775 8  20524842.813                    20524851.820
 128847346.093 6 100400555.610 6  24518835.930                    24518846.965
 117579990.557 7  91620837.488 7  22374730.516                    22374742.453
 128659580.536 6 100254278.128 6  24483100.461                    24483113.641
 117679762.292 7  91698610.51045  22393719.125                    22393729.281
 109963753.392 7  85686231.87846  20925372.430                    20925379.461
 11  8 25  0 56 30.0000000  0  9G10G04G12G05G29G25G17G30G02
 113734064.345 7  88624087.33645  21642837.867                    21642847.410
 123191968.127 6  95993887.01643  23442623.867                    23442635.152
 109123358.075 7  85031260.907 7  20765481.305                    20765489.277
 107819447.608 8  84015258.608 8  20517321.977                    20517331.121
 128766950.170 6 100337909.522 5  24503537.070                    24503548.270
 117515517.886 7  91570599.086 7  22362461.578                    22362473.379
 128731356.774 6 100310207.675 5  24496759.297                    24496772.215
 117619347.340 7  91651533.96545  22382222.281                    22382232.605
 109988069.864 8  85705179.78046  20929999.852                    20930006.941
 11  8 25  0 57  0.0000000  0  8G10G04G12G05G29G25G30G02
 113801355.119 7  88676521.71045  21655642.500                    21655652.598
 123273175.098 6  96057165.13343  23458076.617                    23458087.703
 109121412.121 8  85029744.567 8  20765110.828                    20765119.574
 107780477.848 8  83984892.597 8  20509906.266                    20509915.668
 128686479.948 6 100275205.508 6  24488224.242                    24488234.641
 117451502.285 7  91520716.848 7  22350279.891                    22350292.082
 117559445.587 7  91604857.33845  22370823.578                    22370833.332
 110012541.125 8  85724248.30046  20934656.828                    20934663.805
 11  8 25  0 57 30.0000000  0  8G10G04G12G05G29G25G30G02
 113869126.087 7  88729330.26345  21668538.891                    21668548.332
 123354353.712 7  96120421.14843  23473524.352                    23473536.156
 109120049.683 8  85028682.923 7  20764851.695                    20764860.320
 107742060.631 8  83954957.132 8  20502595.664                    20502604.879
 128605935.026 6 100212443.289 5  24472896.445                    24472908.453
 117387945.011 7  91471191.744 7  22338185.406                    22338196.730
 117500058.160 7  91558581.46345  22359522.594                    22359532.117
 110037165.452 8  85743436.07646  20939342.633                    20939349.453
 11  8 25  0 58  0.0000000  0  8G10G04G12G05G29G25G30G02
 113937374.114 7  88782510.52945  21681526.320                    21681535.637
 123435502.572 6  96183653.98343  23488966.953                    23488978.363
 109119270.803 8  85028075.995 7  20764703.320                    20764711.855
 107704196.335 8  83925452.514 8  20495390.234                    20495399.789
 128525315.498 6 100149622.929 5  24457555.602                    24457566.879
 117324847.710 7  91422025.063 7  22326178.211                    22326189.887
 117441186.522 7  91512707.51545  22348319.859                    22348329.426
 110061941.151 8  85762741.81746  20944057.125                    20944064.152
 11  8 25  0 58 30.0000000  0  8G10G04G12G05G29G25G30G02
 114006097.084 7  88836060.88945  21694603.813                    21694613.523
 123516621.082 6  96246863.16843  23504403.414                    23504413.992
 109119075.612 8  85027923.891 8  20764666.406                    20764674.785
 107666886.225 8  83896379.725 8  20488290.891                    20488299.598
 128444622.126 6 100086745.032 6  24442200.281                    24442211.168
 117262212.784 7  91373218.667 7  22314258.938                    22314270.867
 117382832.893 7  91467237.20945  22337215.234                    22337224.961
 110086867.595 8  85782165.02646  20948800.617                    20948807.160
 11  8 25  0 59  0.0000000  0  8G10G04G12G05G29G25G30G02
 114075292.065 7  88889979.04545  21707771.484                    21707780.629
 123597708.295 6  96310047.97843  23519833.656                    23519845.078
 109119464.370 8  85028226.830 7  20764739.867                    20764748.555
 107630131.619 8  83867739.802 8  20481296.477                    20481305.422
 128363855.587 6 100023810.147 6  24426830.828                    24426841.453
 117200042.303 7  91324774.173 7  22302428.445                    22302439.883
 117324999.108 7  91422171.96245  22326210.094                    22326219.422
 110111943.804 8  85801704.92646  20953572.414                    20953579.559
 11  8 25  0 59 30.0000000  0  8G10G04G12G05G29G25G30G02
 114144956.680 8  88944263.15945  21721028.219                    21721037.328
 123678763.624 6  96373207.94543  23535257.766                    23535268.453
 109120436.504 8  85028984.322 7  20764925.031                    20764933.547
 107593933.090 8  83839533.188 8  20474407.984                    20474416.961
 128283016.640 6  99960818.825 6  24411447.492                    24411458.430
 117138338.279 7  91276693.142 7  22290686.336                    22290698.145
 117267687.055 7  91377513.27045  22315303.453                    22315313.586
 110137168.760 8  85821360.74246  20958372.313                    20958379.039
 11  8 25  1  0  0.0000000  0  8G10G04G12G05G29G25G30G02
 114215089.006 8  88998911.72045  21734373.625                    21734383.633
 123759786.535 6  96436342.63943  23550676.336                    23550687.586
 109121993.152 8  85030197.289 7  20765221.406                    20765230.105
 107558292.163 8  83811761.064 8  20467625.563                    20467635.020
 128202106.335 6  99897771.919 6  24396050.414                    24396061.332
 117077103.353 7  91228977.638 7  22279034.063                    22279045.766
 117210899.141 7  91333262.99845  22304496.883                    22304506.836
 110162541.971 8  85841132.08146  20963200.703                    20963207.582
 11  8 25  1  0 30.0000000  0  8G10G04G12G05G29G25G30G02
 114285686.151 8  89053922.46845  21747808.047                    21747817.895
 123840776.093 7  96499451.35144  23566087.867                    23566100.105
 109124133.878 8  85031865.383 7  20765628.711                    20765637.430
 107523209.723 8  83784424.136 8  20460949.688                    20460958.453
 128121124.827 6  99834669.534 6  24380640.156                    24380651.191
 117016339.247 7  91181629.010 7  22267470.883                    22267482.844
 117154636.975 7  91289422.39045  22293791.094                    22293800.371
 110188062.126 8  85861017.91946  20968057.297                    20968064.121
 11  8 25  1  1  0.0000000  0  8G10G04G12G05G29G25G30G02
 114356745.024 7  89109293.01045  21761330.008                    21761339.730
 123921731.525 7  96562533.47844  23581493.508                    23581505.191
 109126858.568 8  85033988.513 7  20766147.242                    20766155.746
 107488686.615 8  83757523.044 8  20454380.320                    20454388.785
 128040073.106 6  99771512.442 6  24365216.039                    24365227.805
 116956048.035 8  91134648.870 7  22255997.680                    22256009.656
 117098902.361 7  91245992.85445  22283184.867                    22283194.297
 110213728.233 8  85881017.48446  20972941.109                    20972948.125
 11  8 25  1  1 30.0000000  0  8G10G04G12G05G29G25G30G02
 114428263.516 7  89165021.68545  21774939.813                    21774948.930
 124002652.074 7  96625588.42844  23596891.766                    23596902.969
 109130167.058 8  85036566.555 7  20766776.672                    20766785.609
 107454723.734 8  83731058.490 8  20447917.281                    20447925.984
 127958951.763 6  99708301.112 6  24349779.148                    24349790.352
 116896231.872 7  91088038.876 7  22244615.297                    22244626.809
 117043697.269 7  91202975.93945  22272679.945                    22272689.391
 110239539.294 8  85901129.99346  20977852.977                    20977860.031
 11  8 25  1  2  0.0000000  0  8G10G04G12G05G29G25G30G02
 114500239.189 7  89221106.61845  21788636.156                    21788645.785
 124083537.154 7  96688615.72743  23612284.094                    23612294.691
 109134059.554 8  85039599.662 7  20767517.258                    20767525.805
 107421322.366 8  83705031.479 8  20441560.875                    20441569.988
 127877761.789 6  99645036.272 6  24334329.461                    24334340.824
 116836892.999 7  91041800.811 7  22233323.281                    22233335.164
 116989023.689 7  91160373.17445  22262275.336                    22262285.441
 110265494.767 8  85921355.03346  20982791.961                    20982799.109
 11  8 25  1  2 30.0000000  0  8G10G04G12G05G29G25G30G02
 114572669.064 7  89277545.46345  21802419.086                    21802428.445
 124164385.805 7  96751614.63643  23627668.867                    23627680.063
 109138535.866 8  85043087.695 7  20768369.539                    20768377.781
 107388483.090 8  83679442.466 8  20435311.766                    20435320.746
 127796503.864 6  99581718.492 6  24318866.227                    24318877.703
 116778033.220 8  90995936.068 7  22222122.586                    22222134.172
 116934883.228 7  91118185.82445  22251972.914                    22251982.715
 110291593.394 8  85941691.62546  20987758.516                    20987765.531
 11  8 25  1  3  0.0000000  0  8G10G04G12G05G29G25G30G02
 114645550.688 7  89334336.33045  21816288.023                    21816297.586
 124245197.454 7  96814584.72843  23643046.828                    23643058.301
 109143595.909 8  85047030.578 7  20769332.008                    20769340.563
 107356206.728 8  83654292.085 8  20429169.734                    20429178.766
 127715178.495 6  99518348.168 6  24303390.813                    24303401.754
 116719654.564 8  90950446.210 7  22211013.719                    22211024.727
 116881277.711 7  91076415.32145  22241771.930                    22241781.859
 110317834.210 8  85962139.00946  20992752.164                    20992758.727
 11  8 25  1  3 30.0000000  0  8G10G04G12G05G29G25G30G02
 114718881.083 7  89391476.87745  21830242.172                    21830252.355
 124325970.986 6  96877525.09843  23658417.313                    23658429.016
 109149239.185 8  85051427.925 7  20770406.094                    20770414.922
 107324493.631 8  83629580.610 8  20423135.211                    20423143.930
 127633786.457 6  99454925.846 6  24287902.789                    24287913.211
 116661758.683 8  90905332.549 7  22199996.500                    22200008.203
 116828208.608 7  91035062.80345  22231673.406                    22231683.309
 110344215.819 8  85982696.11046  20997772.305                    20997778.887
 11  8 25  1  4  0.0000000  0  8G10G04G12G05G29G25G30G02
 114792658.110 8  89448965.46345  21844281.516                    21844291.316
 124406706.177 6  96940435.56843  23673781.102                    23673792.262
 109155465.899 8  85056279.907 7  20771590.938                    20771599.547
 107293345.346 8  83605309.249 8  20417207.820                    20417216.801
 127552328.707 7  99391452.328 6  24272401.883                    24272412.617
 116604348.059 7  90860597.012 7  22189071.875                    22189083.125
 116775678.121 7  90994129.96645  22221677.156                    22221686.504
 110370738.094 8  86003362.81846  21002819.297                    21002826.207
 11  8 25  1  4 30.0000000  0  8G10G04G12G05G29G25G30G02
 114866879.136 8  89506800.01945  21858405.633                    21858415.320
 124487402.370 6  97003315.67943  23689137.219                    23689148.672
 109162276.326 8  85061586.718 7  20772887.047                    20772895.645
 107262762.604 8  83581478.570 8  20411388.039                    20411396.871
 127470806.052 7  99327928.229 6  24256888.648                    24256899.008
 116547424.658 7  90816241.111 7  22178239.594                    22178251.145
 116723688.065 7  90953618.25545  22211783.961                    22211793.859
 110397400.073 8  86024138.38746  21007893.203                    21007899.953
 11  8 25  1  5  0.0000000  0  8G10G04G12G05G29G25G30G02
 114941541.131 7  89564978.18145  21872613.484                    21872622.605
 124568058.456 6  97066164.51943  23704485.305                    23704497.164
 109169669.258 8  85067347.432 7  20774294.031                    20774302.094
 107232745.624 8  83558088.741 8  20405675.875                    20405685.035
 127389219.053 7  99264353.987 6  24241362.578                    24241373.734
 116490989.943 7  90772266.018 7  22167500.523                    22167511.836
 116672239.605 7  90913528.56145  22201993.383                    22202003.004
 110424200.174 8  86045021.57946  21012992.695                    21012999.301
 11  8 25  1  5 30.0000000  0  8G10G04G12G05G29G25G30G02
 115016641.414 7  89623497.86645  21886904.211                    21886913.973
 124648674.075 7  97128981.89243  23719825.961                    23719836.906
 109177645.157 8  85073562.401 7  20775811.719                    20775820.375
 107203295.549 8  83535140.656 8  20400071.547                    20400080.930
 127307568.730 7  99200730.385 6  24225825.445                    24225835.980
 116435046.243 8  90728673.538 7  22156854.805                    22156866.309
 116621334.792 7  90873862.48845  22192306.703                    22192316.105
 110451137.996 8  86066012.08946  21018118.688                    21018126.012
 11  8 25  1  6  0.0000000  0  8G10G04G12G05G29G25G30G02
 115092177.736 7  89682357.32745  21901278.086                    21901288.203
 124729248.792 6  97191767.32843  23735158.617                    23735170.250
 109186203.363 8  85080231.120 7  20777440.258                    20777448.777
 107174413.230 8  83512634.984 8  20394575.594                    20394584.258
 127225855.933 7  99137058.106 6  24210276.453                    24210286.902
 116379595.593 8  90685465.244 7  22146302.594                    22146313.902
 116570975.423 7  90834621.43945  22182723.773                    22182733.555
 110478212.865 8  86087109.37746  21023271.383                    21023278.230
 11  8 25  1  6 30.0000000  0  8G10G04G12G05G29G25G30G02
 115168147.214 7  89741554.31445  21915734.563                    21915744.590
 124809781.577 7  97254520.13243  23750483.703                    23750495.551
 109195343.665 8  85087353.420 7  20779179.641                    20779188.332
 107146099.031 8  83490572.006 8  20389187.484                    20389196.586
 127144081.459 6  99073337.757 6  24194715.000                    24194725.547
 116324639.677 8  90642642.459 7  22135845.039                    22135856.715
 116521162.999 7  90795806.58345  22173244.656                    22173254.320
 110505423.539 8  86108312.50546  21028449.219                    21028456.254
 11  8 25  1  7  0.0000000  0  8G10G04G12G05G29G25G30G02
 115244546.937 7  89801086.55345  21930272.969                    21930282.813
 124890271.659 7  97317239.61443  23765800.539                    23765811.957
 109205065.689 8  85094929.012 7  20781029.492                    20781038.199
 107118353.464 8  83468952.106 8  20383907.922                    20383916.801
 127062246.012 6  99009569.915 6  24179141.992                    24179152.816
 116270180.211 8  90600206.534 7  22125481.602                    22125493.305
 116471898.947 7  90757419.01445  22163870.047                    22163879.270
 110532768.864 8  86129620.55046  21033652.719                    21033659.480
 11  8 25  1  7 30.0000000  0  8G10G04G12G05G29G25G30G02
 115321374.209 7  89860951.94145  21944893.008                    21944902.621
 124970718.533 7  97379925.46343  23781109.164                    23781120.789
 109215369.135 8  85102957.651 7  20782990.172                    20782999.250
 107091177.465 8  83447776.031 8  20378736.273                    20378745.105
 126980350.485 6  98945755.256 6  24163557.445                    24163568.383
 116216219.166 8  90558158.971 7  22115213.195                    22115224.617
 116423185.034 7  90719460.14145  22154599.844                    22154609.602
 110560248.204 8  86151033.01746  21038881.883                    21038889.027
 11  8 25  1  8  0.0000000  0  8G10G04G12G05G29G25G30G02
 115398626.513 7  89921148.52045  21959593.508                    21959603.094
 125051121.774 6  97442577.33443  23796409.453                    23796420.738
 109226253.551 8  85111439.003 7  20785061.313                    20785070.551
 107064571.552 8  83427044.182 8  20373673.672                    20373682.328
 126898395.672 6  98881894.385 6  24147961.438                    24147973.520
 116162758.516 7  90516501.329 7  22105039.828                    22105051.695
 116375022.910 7  90681931.22845  22145435.047                    22145444.500
 110587860.735 8  86172549.27646  21044136.266                    21044143.035
 11  8 25  1  8 30.0000000  0  8G10G04G12G05G29G25G30G02
 115476301.141 7  89981674.19945  21974374.477                    21974384.258
 125131480.798 7  97505194.74443  23811701.250                    23811712.504
 109237718.741 8  85120372.905 7  20787243.367                    20787252.223
 107038536.318 8  83406757.008 8  20368719.258                    20368728.031
 126816382.301 6  98817987.895 6  24132355.148                    24132366.762
 116109800.132 8  90475235.076 7  22094962.344                    22094973.676
 116327414.208 7  90644833.54045  22136375.164                    22136384.719
 110615605.604 8  86194168.64746  21049415.945                    21049422.617
 11  8 25  1  9  0.0000000  0  8G10G04G12G05G29G25G30G02
 115554394.947 7  90042526.50545  21989235.188                    21989245.070
 125211794.770 7  97567777.05343  23826984.508                    23826995.254
 109249764.128 8  85129758.902 7  20789535.477                    20789544.234
 107013072.361 8  83386914.993 8  20363873.531                    20363881.883
 126734311.459 6  98754036.614 6  24116737.625                    24116749.188
 116057345.658 8  90434361.466 7  22084980.297                    22084992.113
 116280360.263 7  90608168.13945  22127420.992                    22127431.266
 110643481.900 8  86215890.43746  21054720.914                    21054727.754
 11  8 25  1  9 30.0000000  0  8G10G04G12G05G29G25G30G02
 115632905.756 7  90103703.74045  22004175.156                    22004185.199
 125292063.400 6  97630324.04443  23842259.500                    23842270.262
 109262389.779 8  85139597.053 7  20791937.953                    20791946.277
 106988180.505 8  83367518.762 8  20359136.836                    20359145.180
 126652184.708 6  98690041.807 6  24101109.141                    24101120.715
 116005397.280 8  90393882.221 7  22075094.930                    22075106.492
 116233862.999 7  90571936.51845  22118573.070                    22118582.805
 110671489.392 8  86237714.45746  21060050.703                    21060057.168
 11  8 25  1 10  0.0000000  0  8G10G04G12G05G29G25G30G02
 115711830.815 7  90165203.76545  22019194.398                    22019204.008
 125372285.969 7  97692835.13943  23857524.797                    23857536.063
 109275594.792 8  85149886.658 7  20794450.984                    20794459.621
 106963860.805 8  83348568.368 8  20354508.719                    20354517.590
 126570002.384 6  98626003.668 6  24085469.875                    24085481.086
 115953956.597 7  90353798.588 7  22065306.344                    22065318.008
 116187923.824 7  90536139.76545  22109831.039                    22109840.938
 110699626.790 8  86259639.69346  21065404.836                    21065411.426
 11  8 25  1 10 30.0000000  0  8G10G04G12G05G29G25G30G02
 115791167.079 7  90227024.21645  22034291.648                    22034301.391
 125452461.806 7  97755309.84443  23872781.898                    23872793.094
 109289378.289 8  85160627.029 7  20797073.906                    20797082.719
 106940113.914 8  83330064.321 8  20349989.703                    20349998.578
 126487764.958 6  98561922.627 6  24069821.750                    24069832.371
 115903025.072 8  90314111.711 7  22055614.375                    22055625.773
 116142543.837 7  90500778.74345  22101195.688                    22101205.371
 110727892.902 8  86281665.23546  21070783.563                    21070790.641
 11  8 25  1 11  0.0000000  0  8G10G04G12G05G29G25G30G02
 115870911.627 7  90289162.81245  22049466.406                    22049476.074
 125532590.332 7  97817747.63543  23888029.961                    23888040.871
 109303739.794 8  85171817.798 7  20799806.984                    20799815.508
 106916940.089 8  83312006.822 8  20345579.984                    20345588.801
 126405473.387 6  98497799.392 6  24054162.109                    24054172.391
 115852604.515 8  90274822.975 7  22046019.383                    22046031.043
 116097724.576 7  90465854.65045  22092666.945                    22092676.102
 110756286.926 8  86303790.44046  21076186.938                    21076193.652
 11  8 25  1 11 30.0000000  0  8G10G04G12G05G29G25G30G02
 115951061.708 7  90351617.39645  22064718.367                    22064728.484
 125612670.845 6  97880148.04143  23903268.727                    23903279.758
 109318678.913 8  85183458.661 7  20802649.805                    20802658.176
 106894339.559 8  83294396.035 8  20341279.391                    20341288.074
 126323128.977 6  98433635.006 6  24038492.031                    24038502.992
 115802696.595 8  90235933.706 7  22036522.211                    22036533.652
 116053467.452 7  90431368.58245  22084245.070                    22084254.621
 110784808.006 8  86326014.64646  21081614.164                    21081620.930
 11  8 25  1 12  0.0000000  0  8G10G04G12G05G29G25G30G02
 116031614.320 7  90414385.64845  22080047.469                    22080057.117
 125692702.613 6  97942510.44943  23918498.180                    23918509.570
 109334194.786 8  85195548.932 8  20805602.320                    20805611.113
 106872312.758 8  83277232.316 8  20337087.820                    20337096.367
 126240732.055 6  98369429.699 6  24022812.594                    24022822.910
 115753302.764 8  90197445.030 7  22027122.773                    22027134.488
 116009773.518 7  90397321.38045  22075930.164                    22075940.043
 110813454.953 8  86348336.93446  21087065.477                    21087072.016
 11  8 25  1 12 30.0000000  0  8G10G04G12G05G29G25G30G02
 116112567.288 7  90477465.86845  22095452.039                    22095461.762
 125772685.589 6  98004834.86643  23933718.445                    23933729.355
 109350287.161 8  85208088.427 7  20808664.289                    20808673.406
 106850860.464 8  83260516.272 8  20333005.422                    20333014.395
 126158284.266 7  98305184.755 6  24007123.109                    24007134.063
 115704425.169 8  90159358.611 7  22017821.734                    22017833.453
 115966644.736 7  90363714.54245  22067723.094                    22067733.023
 110842227.786 8  86370757.32446  21092541.008                    21092547.750
 11  8 25  1 13  0.0000000  0  8G10G04G12G05G29G25G30G02
 116193918.001 7  90540856.03045  22110932.484                    22110942.387
 125852619.214 6  98067120.80243  23948928.727                    23948940.605
 109366955.752 8  85221076.928 7  20811836.430                    20811845.383
 106829983.223 8  83244248.325 8  20329032.539                    20329041.129
 126075786.795 7  98240901.098 6  23991424.344                    23991435.180
 115656065.731 8  90121675.963 7  22008619.141                    22008630.535
 115924082.622 7  90330549.27045  22059623.867                    22059633.754
 110871125.895 8  86393275.32246  21098039.945                    21098046.730
 11  8 25  1 13 30.0000000  0  8G10G04G12G05G29G25G30G02
 116275663.326 7  90604553.65045  22126488.266                    22126497.945
 125932502.967 6  98129367.87843  23964130.555                    23964141.840
 109384199.461 8  85234513.569 7  20815117.961                    20815126.418
 106809680.959 8  83228428.399 8  20325169.063                    20325177.820
 125993240.145 6  98176579.121 6  23975716.586                    23975727.102
 115608225.848 8  90084398.154 7  21999515.406                    21999527.301
 115882088.404 7  90297826.51045  22051632.344                    22051642.035
 110900148.063 8  86415889.99246  21103562.688                    21103569.496
 11  8 25  1 14  0.0000000  0  8G10G04G12G05G29G25G30G02
 116357799.636 7  90668555.95245  22142118.383                    22142127.910
 126012335.754 6  98191575.21643  23979322.586                    23979334.059
 109402017.296 8  85248397.590 7  20818508.398                    20818517.188
 106789953.932 8  83213056.719 8  20321415.117                    20321423.965
 125910645.270 7  98112219.575 6  23959998.758                    23960009.348
 115560906.619 8  90047526.054 7  21990511.180                    21990522.590
 115840662.786 7  90265546.82045  22043749.203                    22043759.344
 110929292.915 8  86438600.25846  21109108.641                    21109115.715
 11  8 25  1 14 30.0000000  0  8G10G04G12G05G29G25G30G02
 116440324.867 7  90732861.31745  22157822.547                    22157831.301
 126092117.328 6  98253742.66643  23994504.367                    23994515.809
 109420408.879 8  85262728.683 7  20822008.406                    20822017.156
 106770802.203 8  83198133.317 8  20317770.672                    20317779.801
 125828002.853 6  98047822.985 6  23944272.461                    23944282.848
 115514109.974 8  90011061.151 7  21981605.938                    21981617.660
 115799807.257 7  90233711.36545  22035974.969                    22035984.590
 110958559.948 8  86461405.72646  21114678.266                    21114684.836
 11  8 25  1 15  0.0000000  0  8G10G04G12G05G29G25G30G02
 116523236.440 7  90797467.72344  22173599.664                    22173609.711
 126171847.861 6  98315870.30643  24009676.648                    24009687.938
 109439373.568 8  85277506.356 7  20825616.883                    20825625.941
 106752226.716 8  83183658.939 8  20314235.648                    20314244.750
 125745314.385 7  97983390.504 6  23928537.188                    23928548.121
 115467837.853 8  89975004.987 7  21972800.734                    21972812.391
 115759523.701 7  90202321.60045  22028309.375                    22028319.195
 110987948.978 8  86484306.26446  21120270.453                    21120277.559
 11  8 25  1 15 30.0000000  0  8G10G04G12G05G29G25G30G02
 116606531.294 7  90862372.78844  22189450.000                    22189460.008
 126251526.406 6  98377957.46443  24024839.195                    24024850.563
 109458910.702 8  85292730.095 7  20829335.094                    20829343.934
 106734227.454 8  83169633.571 8  20310810.492                    20310819.316
 125662580.691 7  97918922.780 6  23912793.398                    23912804.063
 115422091.543 8  89939358.539 7  21964095.297                    21964107.156
 115719812.893 7  90171378.12945  22020752.227                    22020762.246
 111017459.001 8  86507301.09046  21125886.367                    21125893.047
 11  8 25  1 16  0.0000000  0  8G10G04G12G05G29G25G30G02
 116690206.505 7  90927574.24644  22205373.148                    22205382.641
 126331152.423 6  98440003.68343  24039991.328                    24040002.367
 109479019.039 8  85308398.923 7  20833161.438                    20833170.176
 106716804.379 8  83156057.174 8  20307495.102                    20307503.797
 125579802.726 7  97854420.532 6  23897041.539                    23897051.617
 115376872.619 8  89904123.034 7  21955490.617                    21955502.008
 115680676.168 7  90140881.99945  22013305.094                    22013314.859
 111047089.020 8  86530389.41946  21131524.367                    21131531.320
 11  8 25  1 16 30.0000000  0  8G10G04G12G05G29G25G30G02
 116774259.208 7  90993069.84445  22221368.031                    22221377.672
 126410725.575 6  98502008.68043  24055133.141                    24055145.133
 109499697.927 8  85324512.343 7  20837096.547                    20837105.438
 106699957.876 8  83142930.049 8  20304289.391                    20304298.434
 125496981.828 7  97789884.824 6  23881281.320                    23881291.184
 115332182.701 8  89869299.741 7  21946986.289                    21946997.957
 115642114.652 7  90110834.07945  22005967.375                    22005977.063
 111076838.524 8  86553570.85246  21137185.703                    21137192.387
 11  8 25  1 17  0.0000000  0  8G10G04G12G05G29G25G30G02
 116858686.688 7  91058857.48245  22237434.023                    22237443.563
 126490245.159 6  98563971.98843  24070265.813                    24070277.445
 109520946.513 8  85341069.685 7  20841139.922                    20841148.797
 106683688.052 8  83130252.292 8  20301193.477                    20301202.129
 125414118.653 7  97725316.169 6  23865513.102                    23865523.191
 115288023.046 8  89834889.643 7  21938583.180                    21938594.414
 115604129.503 7  90081235.28645  21998738.531                    21998748.293
 111106706.402 8  86576844.51946  21142869.688                    21142876.129
 11  8 25  1 17 30.0000000  0  8G10G04G12G05G29G25G30G02
 116943486.170 7  91124934.99945  22253571.047                    22253580.719
 126569711.009 6  98625893.37143  24085387.969                    24085398.313
 109542763.938 8  85358070.283 7  20845291.570                    20845300.578
 106667994.965 8  83118023.937 8  20298207.109                    20298215.715
 125331214.342 7  97660715.479 6  23849736.367                    23849747.230
 115244395.344 7  89800894.051 7  21930280.883                    21930292.469
 115566721.843 7  90052086.49345  21991619.805                    21991629.691
 111136692.142 8  86600210.04146  21148575.516                    21148582.391
 11  8 25  1 18  0.0000000  0  8G10G04G12G05G29G25G30G02
 117028654.719 7  91191300.08545  22269777.469                    22269787.656
 126649122.444 6  98687772.35643  24100499.086                    24100510.586
 109565149.339 8  85375513.445 7  20849551.195                    20849560.242
 106652878.541 8  83106244.929 8  20295330.375                    20295339.313
 125248269.885 7  97596083.493 6  23833952.648                    23833962.879
 115201300.997 8  89767314.062 7  21922080.484                    21922092.055
 115529892.919 7  90023388.63945  21984611.633                    21984621.887
 111166794.890 8  86623666.73046  21154303.648                    21154310.918
 11  8 25  1 18 30.0000000  0  8G10G04G12G05G29G25G30G02
 117114189.397 7  91257950.48845  22286054.195                    22286064.488
 126728479.134 6  98749608.69643  24115600.523                    24115611.172
 109588101.744 8  85393398.438 7  20853919.164                    20853927.676
 106638339.151 8  83094915.551 8  20292563.523                    20292572.297
 125165286.461 6  97531421.124 6  23818161.102                    23818171.695
 115158741.466 8  89734150.806 7  21913981.617                    21913993.348
 115493643.760 7  89995142.56445  21977713.484                    21977723.402
 111197013.978 8  86647214.07446  21160054.633                    21160061.328
 11  8 25  1 19  0.0000000  0  8G10G04G12G05G29G25G30G02
 117200087.670 7  91324884.19444  22302400.180                    22302410.547
 126807780.708 6  98811402.10643  24130691.094                    24130702.438
 109611620.337 8  85411724.611 7  20858394.305                    20858402.973
 106624376.484 8  83084035.571 8  20289906.750                    20289915.492
 125082265.237 7  97466729.290 6  23802363.281                    23802373.480
 115116718.090 8  89701405.331 7  21905984.609                    21905995.996
 115457975.271 7  89967348.95745  21970926.547                    21970935.926
 111227348.802 8  86670851.60146  21165826.906                    21165834.133
 11  8 25  1 19 30.0000000  0  8G10G04G12G05G29G25G30G02
 117286346.342 7  91392098.73345  22318814.789                    22318824.516
 126887026.567 6  98873152.05743  24145771.109                    24145782.133
 109635703.672 8  85430490.838 7  20862977.508                    20862986.371
 106610990.630 8  83073605.063 8  20287359.141                    20287368.023
 124999206.976 7  97402008.563 6  23786557.117                    23786567.984
 115075232.123 8  89669078.625 7  21898090.109                    21898101.773
 115422888.500 7  89940008.62745  21964249.922                    21964259.379
 111257798.271 8  86694578.46246  21171620.938                    21171628.004
 11  8 25  1 20  0.0000000  0  8G10G04G12G05G29G25G30G02
 117372962.802 7  91459592.07345  22335297.961                    22335307.699
 126966216.627 7  98934858.55443  24160839.953                    24160851.488
 109660351.248 8  85449696.736 7  20867667.570                    20867676.719
 106598181.877 8  83063624.226 8  20284921.750                    20284931.082
 124916113.144 7  97337260.112 6  23770745.453                    23770756.055
 115034285.330 8  89637172.037 7  21890297.867                    21890309.758
 115388384.779 7  89913122.62645  21957683.641                    21957692.898
 111288362.147 8  86718394.47546  21177437.563                    21177444.152
 11  8 25  1 20 30.0000000  0  8G10G04G12G05G29G25G30G02
 117459933.571 7  91527361.47644  22351847.742                    22351857.059
 127045350.104 6  98996520.94443  24175898.898                    24175910.086
 109685561.779 8  85469341.291 7  20872465.219                    20872473.781
 106585950.041 8  83054092.947 8  20282594.336                    20282602.863
 124832984.701 7  97272484.689 6  23754926.109                    23754936.773
 114993878.755 8  89605686.408 7  21882609.008                    21882620.711
 115354464.822 7  89886691.51145  21951228.820                    21951238.625
 111319039.324 8  86742298.78146  21183275.094                    21183281.953
 11  8 25  1 21  0.0000000  0  8G10G04G12G05G29G25G30G02
 117547256.422 7  91595405.26644  22368464.383                    22368474.414
 127124426.804 6  99058139.08943  24190946.734                    24190958.117
 109711334.272 7  85489423.741 7  20877369.758                    20877378.695
 106574295.218 8  83045011.289 8  20280376.492                    20280385.492
 124749822.786 7  97207683.203 6  23739101.016                    23739111.590
 114954013.893 8  89574622.884 7  21875023.094                    21875034.637
 115321129.705 7  89860716.11645  21944885.117                    21944895.363
 111349829.331 8  86766291.00046  21189134.266                    21189141.281
 11  8 25  1 21 30.0000000  0  9G10G04G12G05G29G25G26G30G02
 117634928.047 7  91663720.80744  22385147.813                    22385157.727
 127203446.309 6  99119712.71043  24205984.195                    24205994.363
 109737667.654 8  85509943.252 7  20882380.867                    20882389.613
 106563216.864 8  83036378.831 8  20278268.406                    20278277.223
 124666628.406 7  97142856.422 6  23723268.859                    23723280.020
 114914691.884 8  89543982.356 7  21867540.039                    21867551.730
 130556591.02316                  24844102.375
 115288380.165 7  89835197.00845  21938653.555                    21938663.105
 111380731.278 8  86790370.44546  21195014.445                    21195021.027
 11  8 25  1 22  0.0000000  0  9G10G04G12G05G29G25G26G30G02
 117722944.883 7  91732305.33344  22401896.977                    22401906.656
 127282407.603 6  99181240.99842  24221009.930                    24221021.152
 109764560.260 8  85530898.509 7  20887498.375                    20887506.566
 106552714.610 8  83028195.276 8  20276269.789                    20276278.688
 124583402.291 7  97078004.908 6  23707432.609                    23707442.777
 114875913.489 8  89513765.429 7  21860161.109                    21860172.531
 130465236.010 6 101661318.40253  24826717.742                    24826733.031
 115256216.643 7  89810134.54045  21932532.906                    21932542.027
 111411743.874 7  86814536.10746  21200916.102                    21200922.961
 11  8 25  1 22 30.0000000  0  9G10G04G12G05G29G25G26G30G02
 117811304.141 7  91801156.69244  22418711.586                    22418720.848
 127361310.175 6  99242723.49943  24236023.594                    24236035.059
 109792010.823 8  85552288.540 7  20892721.906                    20892730.598
 106542787.999 8  83020460.270 8  20274380.969                    20274390.047
 124500144.947 7  97013129.066 6  23691589.180                    23691599.660
 114837679.788 8  89483972.941 7  21852885.625                    21852896.938
 130373738.864 6 101590022.33643  24809306.414                    24809322.055
 115224639.812 7  89785529.22345  21926524.055                    21926533.723
 111442866.218 8  86838787.28346  21206838.813                    21206845.703
 11  8 25  1 23  0.0000000  0  9G10G04G12G05G29G25G26G30G02
 117900004.095 7  91870273.52645  22435590.219                    22435600.309
 127440154.730 6  99304160.78442  24251026.633                    24251038.699
 109820018.833 7  85574112.944 7  20898051.531                    20898060.504
 106533437.971 8  83013174.562 8  20272601.758                    20272610.660
 124416858.922 7  96948230.860 6  23675740.352                    23675750.617
 114799993.084 8  89454606.673 7  21845713.766                    21845725.500
 130282103.149 6 101518618.26543  24791868.914                    24791883.301
 115193651.657 7  89761382.61945  21920627.086                    21920637.125
 111474098.546 7  86863124.16746  21212781.906                    21212788.578
 11  8 25  1 23 30.0000000  0  9G10G04G12G05G29G25G26G30G02
 117989041.746 7  91939653.51644  22452532.836                    22452543.285
 127518941.085 5  99365552.73542  24266018.930                    24266031.988
 109848583.621 8  85596371.199 7  20903487.484                    20903496.090
 106524664.488 8  83006338.100 8  20270931.883                    20270940.926
 124333545.701 7  96883311.487 6  23659886.320                    23659896.414
 114762854.737 8  89425667.711 7  21838647.023                    21838658.223
 130190331.813 6 101447108.51842  24774404.016                    24774419.086
 115163253.078 7  89737695.42045  21914842.344                    21914851.754
 111505441.244 8  86887547.05246  21218746.469                    21218752.965
 11  8 25  1 24  0.0000000  0  9G10G04G12G05G29G25G26G30G02
 118078414.066 7  92009294.26544  22469540.539                    22469550.441
 127597668.768 6  99426898.97442  24281002.008                    24281013.285
 109877703.723 8  85619062.170 7  20909028.406                    20909037.391
 106516467.113 8  82999950.558 8  20269372.047                    20269381.270
 124250206.267 7  96818371.713 6  23644026.875                    23644037.457
 114726265.760 8  89397156.810 7  21831683.852                    21831695.563
 130098427.658 6 101375495.21142  24756915.695                    24756930.859
 115133444.746 7  89714468.16045  21909170.602                    21909179.828
 111536892.788 8  86912054.75546  21224731.281                    21224738.082
 11  8 25  1 24 30.0000000  0  9G10G04G12G05G29G25G26G30G02
 118168118.201 7  92079193.56444  22486610.625                    22486620.227
 127676337.180 6  99488199.01542  24295971.469                    24295983.496
 109907378.331 8  85642185.222 7  20914675.766                    20914684.652
 106508845.329 8  82994011.533 8  20267921.672                    20267930.180
 124166841.380 7  96753412.119 6  23628163.422                    23628173.848
 114690227.281 8  89369074.881 7  21824826.102                    21824837.637
 130006393.344 6 101303780.54242  24739401.234                    24739416.320
 115104227.348 7  89691701.36045  21903610.516                    21903620.141
 111568452.316 8  86936646.60246  21230736.820                    21230743.684
 11  8 25  1 25  0.0000000  0  9G10G04G12G05G29G25G26G30G02
 118258151.351 7  92149349.27044  22503743.070                    22503753.070
 127754946.122 6  99549452.74342  24310930.695                    24310942.387
 109937605.330 8  85665738.704 7  20920427.359                    20920436.313
 106501799.444 8  82988521.252 8  20266580.953                    20266589.848
 124083452.549 7  96688433.880 6  23612295.273                    23612305.762
 114654740.605 8  89341422.922 7  21818073.156                    21818084.816
 129914232.040 6 101231966.93242  24721862.844                    24721878.535
 115075601.769 7  89669395.72445  21898162.742                    21898172.063
 111600119.622 8  86961322.42246  21236762.984                    21236770.164
 11  8 25  1 25 30.0000000  0  9G10G04G12G05G29G25G26G30G02
 118348510.363 7  92219758.87744  22520938.016                    22520947.859
 127833495.214 6  99610659.88343  24325878.367                    24325889.293
 109968383.764 8  85689721.885 7  20926284.352                    20926293.160
 106495328.761 8  82983479.185 8  20265349.688                    20265358.391
 124000040.691 7  96623437.706 6  23596422.203                    23596432.668
 114619806.485 8  89314201.522 7  21811425.641                    21811437.043
 129821946.235 5 101160056.24942  24704302.094                    24704316.758
 115047568.514 7  89647551.62445  21892828.281                    21892838.121
 111631893.551 7  86986081.32646  21242809.336                    21242816.172
 11  8 25  1 26  0.0000000  0  9G10G04G12G05G29G25G26G30G02
 118439192.285 7  92290420.09344  22538194.320                    22538204.473
 127911984.023 6  99671819.95343  24340814.672                    24340825.422
 109999712.616 8  85714133.954 7  20932246.469                    20932255.031
 106489432.792 8  82978884.953 8  20264227.359                    20264235.941
 123916607.342 7  96558424.798 6  23580544.906                    23580555.824
 114585426.207 8  89287411.689 7  21804883.203                    21804894.848
 129729538.735 5 101088050.77142  24686717.031                    24686731.723
 115020128.296 7  89626169.64345  21887607.000                    21887616.531
 111663773.536 8  87010922.86846  21248875.695                    21248882.715
 11  8 25  1 26 30.0000000  0  9G10G04G12G05G29G25G26G30G02
 118530194.452 7  92361330.84844  22555511.117                    22555521.324
 127990412.336 6  99732932.95643  24355738.578                    24355749.699
 110031590.106 8  85738973.540 7  20938312.391                    20938320.855
 106484111.257 8  82974738.318 8  20263214.852                    20263223.746
 123833153.467 7  96493395.889 6  23564664.484                    23564674.711
 114551600.910 8  89261054.303 7  21798446.422                    21798458.012
 129637012.519 6 101015952.78343  24669110.008                    24669124.984
 114993281.870 7  89605250.35145  21882497.664                    21882507.707
 111695759.212 8  87035846.76546  21254962.273                    21254968.941
 11  8 25  1 27  0.0000000  0  9G10G04G12G05G29G25G26G30G02
 118621513.916 6  92432488.85144  22572888.844                    22572899.059
 128068779.926 6  99793998.60143  24370651.563                    24370662.707
 110064015.087 7  85764239.735 7  20944482.641                    20944491.488
 106479364.228 8  82971039.361 8  20262311.750                    20262320.363
 123749680.392 7  96428352.040 6  23548780.328                    23548790.242
 114518331.626 8  89235130.175 7  21792115.602                    21792127.320
 129544370.678 6 100943764.68843  24651480.281                    24651494.863
 114967029.885 7  89584794.25945  21877502.203                    21877512.012
 111727849.952 8  87060852.53846  21261069.000                    21261076.066
 11  8 25  1 27 30.0000000  0  9G10G04G12G05G29G25G26G30G02
 118713147.675 7  92503891.75344  22590326.055                    22590336.129
 128147086.495 6  99855016.71043  24385552.266                    24385564.199
 110096986.187 7  85789931.490 7  20950757.094                    20950765.398
 106475190.931 8  82967787.468 8  20261517.352                    20261525.957
 123666189.525 6  96363294.323 6  23532892.219                    23532902.809
 114485619.348 7  89209640.085 7  21785890.664                    21785902.258
 129451615.787 6 100871488.44943  24633829.867                    24633844.398
 114941372.873 7  89564801.79045  21872620.313                    21872629.805
 111760045.101 7  87085939.66546  21267195.672                    21267202.574
 11  8 25  1 28  0.0000000  0  9G10G04G12G05G29G25G26G30G02
 118805093.066 7  92575537.47644  22607822.992                    22607832.848
 128225331.841 7  99915987.11743  24400442.500                    24400453.590
 110130502.191 7  85816047.843 7  20957134.961                    20957143.375
 106471591.395 8  82964982.652 8  20260832.313                    20260840.938
 123582682.084 6  96298223.697 6  23517001.453                    23517011.535
 114453465.311 8  89184584.981 7  21779772.070                    21779783.207
 129358750.886 6 100799126.54743  24616156.930                    24616171.875
 114916311.716 7  89545273.61545  21867851.172                    21867860.926
 111792344.212 7  87111107.79046  21273341.719                    21273348.906
 11  8 25  1 28 30.0000000  0  9G10G04G12G05G29G25G26G30G02
 118897346.753 7  92647423.44044  22625378.008                    22625388.203
 128303515.457 7  99976909.40243  24415320.625                    24415331.445
 110164561.430 8  85842587.500 7  20963616.078                    20963624.789
 106468564.590 8  82962624.125 8  20260256.125                    20260265.297
 123499159.057 6  96233140.933 6  23501106.547                    23501117.613
 114421870.209 8  89159965.413 7  21773759.836                    21773770.695
 129265778.942 6 100726681.15843  24598465.883                    24598479.563
 114891846.596 7  89526209.88545  21863195.477                    21863205.121
 111824746.430 8  87136356.26246  21279507.852                    21279514.684
 11  8 25  1 29  0.0000000  0  9G10G04G12G05G29G25G26G30G02
 118989906.072 7  92719547.54444  22642991.578                    22643002.043
 128381637.267 7 100037783.52343  24430185.914                    24430197.129
 110199162.661 8  85869549.481 7  20970200.648                    20970209.078
 106466110.175 8  82960711.607 8  20259789.211                    20259797.914
 123415621.671 6  96168046.964 6  23485210.867                    23485220.984
 114390835.077 8  89135782.179 7  21767853.742                    21767865.227
 129172702.689 6 100654154.47843  24580753.016                    24580767.895
 114867978.236 7  89507611.15745  21858653.492                    21858663.199
 111857251.294 7  87161684.71346  21285693.172                    21285700.121
 11  8 25  1 29 30.0000000  0  9G10G04G12G05G29G25G26G30G02
 119082768.306 6  92791907.72044  22660663.258                    22660672.805
 128459696.890 7 100098609.18343  24445040.695                    24445051.949
 110234304.273 8  85896932.542 7  20976887.695                    20976896.367
 106464228.062 8  82959245.054 8  20259431.344                    20259440.250
 123332071.633 7  96102943.126 6  23469311.070                    23469321.715
 114360361.005 8  89112036.143 7  21762054.727                    21762066.188
 129079525.304 6 100581549.01643  24563022.164                    24563035.770
 114844707.180 7  89489477.86045  21854225.281                    21854234.887
 111889858.367 7  87187092.81246  21291898.313                    21291905.293
 11  8 25  1 30  0.0000000  0  9G10G04G12G05G29G25G26G30G02
 119175930.182 6  92864501.37644  22678390.953                    22678401.246
 128537694.244 7 100159386.33843  24459882.875                    24459893.934
 110269984.756 8  85924735.505 7  20983677.500                    20983686.164
 106462917.348 8  82958223.737 8  20259181.672                    20259190.629
 123248510.161 7  96037830.368 6  23453410.461                    23453420.527
 114330448.726 8  89088727.861 7  21756362.758                    21756373.809
 128986249.383 6 100508866.75243  24545271.461                    24545286.313
 114822033.844 7  89471810.31245  21849910.516                    21849919.730
 111922566.750 7  87212579.84746  21298122.109                    21298129.473
 11  8 25  1 30 30.0000000  0  9G10G04G12G05G29G25G26G30G02
 119269388.621 6  92937326.09644  22696175.461                    22696185.664
 128615628.963 7 100220114.68143  24474713.367                    24474724.746
 110306202.507 8  85952957.111 7  20990569.313                    20990578.559
 106462177.132 8  82957646.961 8  20259040.867                    20259049.586
 123164938.055 7  95972709.327 6  23437506.453                    23437516.930
 114301098.966 8  89065857.913 7  21750777.555                    21750788.883
 128892878.065 6 100436110.11743  24527504.523                    24527518.051
 114799958.358 7  89454608.62545  21845709.523                    21845719.297
 111955375.680 7  87238145.23546  21304365.922                    21304372.805
 11  8 25  1 31  0.0000000  0  9G10G04G12G05G29G25G26G30G02
 119363141.110 6  93010379.98644  22714016.078                    22714025.871
 128693500.698 7 100280793.95243  24489531.953                    24489543.691
 110342956.326 8  85981596.445 7  20997563.523                    20997572.277
 106462007.338 8  82957514.675 8  20259008.273                    20259017.016
 123081356.958 7  95907581.263 6  23421601.563                    23421611.656
 114272312.842 8  89043427.159 7  21745299.867                    21745311.020
 128799414.347 6 100363281.49543  24509718.352                    24509732.004
 114778481.567 7  89437873.44945  21841622.906                    21841632.352
 111988284.990 7  87263788.84246  21310628.438                    21310635.215
 11  8 25  1 31 30.0000000  0  9G10G04G12G05G29G25G26G30G02
 119457184.745 6  93083660.71444  22731912.133                    22731921.598
 128771309.393 6 100341424.08943  24504337.828                    24504349.863
 110380244.298 8  86010651.991 7  21004659.063                    21004667.695
 106462407.655 8  82957826.629 8  20259084.563                    20259093.148
 122997768.436 7  95842447.422 6  23405695.273                    23405705.477
 114244091.404 8  89021436.422 7  21739929.422                    21739941.031
 128705861.438 6 100290383.28642  24491915.508                    24491928.906
 114757603.933 7  89421605.14745  21837649.891                    21837659.238
 112021294.294 7  87289510.37646  21316909.648                    21316916.559
 11  8 25  1 32  0.0000000  0  9G10G04G12G05G29G25G26G30G02
 119551516.504 6  93157165.96444  22749862.516                    22749872.617
 128849054.582 6 100402004.75443  24519132.563                    24519143.762
 110418064.918 8  86040122.580 7  21011856.109                    21011864.820
 106463377.218 8  82958582.143 8  20259268.789                    20259278.109
 122914173.581 7  95777308.622 6  23389788.125                    23389797.652
 114216435.168 8  88999886.108 7  21734666.992                    21734678.512
 128612222.070 6 100217417.77342  24474096.203                    24474110.086
 114737325.656 7  89405803.87345  21833791.164                    21833801.004
 112054402.372 7  87315308.86446  21323210.203                    21323217.098
 11  8 25  1 32 30.0000000  0  9G10G04G12G05G29G25G26G30G02
 119646133.780 6  93230893.70144  22767867.563                    22767877.414
 128926736.439 6 100462536.04743  24533915.227                    24533926.961
 110456416.801 8  86070007.153 7  21019154.133                    21019163.523
 106464915.170 8  82959780.561 8  20259561.758                    20259570.477
 122830573.691 7  95712165.884 6  23373879.500                    23373889.602
 114189345.071 8  88978776.933 7  21729511.367                    21729523.215
 128518499.103 6 100144387.11243  24456261.484                    24456274.938
 114717647.151 8  89390469.94745  21830046.359                    21830056.133
 112087609.579 8  87341184.58946  21329529.125                    21329536.379
 11  8 25  1 33  0.0000000  0  9G10G04G12G05G29G25G26G30G02
 119741033.291 6  93304841.34844  22785926.844                    22785936.645
 129004354.763 6 100523017.82842  24548685.094                    24548696.809
 110495298.172 8  86100304.306 7  21026553.469                    21026561.898
 106467021.070 7  82961421.543 8  20259962.516                    20259971.246
 122746970.097 7  95647020.252 6  23357969.695                    23357979.746
 114162821.768 8  88958109.412 7  21724464.250                    21724475.973
 128424695.937 6 100071293.91343  24438412.000                    24438424.164
 114698568.606 7  89375603.51545  21826416.164                    21826425.938
 112120915.107 7  87367136.94146  21335867.031                    21335873.586
 11  8 25  1 33 30.0000000  0  9G10G04G12G05G29G25G26G30G02
 119836212.287 6  93379006.78544  22804038.594                    22804048.250
 129081909.187 6 100583449.89042  24563443.219                    24563455.121
 110534707.358 8  86131012.743 7  21034052.570                    21034061.320
 106469694.519 8  82963504.756 8  20260471.430                    20260480.043
 122663364.570 6  95581873.109 6  23342060.234                    23342070.039
 114136866.228 8  88937884.315 7  21719525.164                    21719536.754
 128330815.431 6  99998140.51643  24420545.773                    24420559.777
 114680090.603 7  89361205.05145  21822899.594                    21822909.520
 112154318.451 7  87393165.50346  21342223.609                    21342230.605
 11  8 25  1 34  0.0000000  0  9G10G04G12G05G29G25G26G30G02
 119931667.612 6  93453387.52744  22822203.414                    22822213.004
 129159399.531 6 100643831.89742  24578188.742                    24578200.813
 110574642.467 8  86162130.984 7  21041652.117                    21041661.160
 106472934.214 8  82966029.209 8  20261087.516                    20261096.055
 122579758.449 6  95516725.516 6  23326150.273                    23326160.109
 114111478.978 8  88918102.033 7  21714693.891                    21714705.605
 128236860.513 7  99924929.07443  24402666.805                    24402680.391
 114662213.134 8  89347274.53045  21819497.594                    21819507.465
 112187818.973 7  87419269.80146  21348598.391                    21348605.410
 11  8 25  1 34 30.0000000  0  9G10G04G12G05G29G25G26G30G02
 120027396.227 6  93527981.22244  22840419.992                    22840429.133
 129236825.409 6 100704163.78242  24592921.891                    24592935.160
 110615102.189 8  86193658.024 7  21049350.992                    21049359.949
 106476739.397 8  82968994.306 8  20261811.742                    20261820.457
 122496152.819 7  95451578.293 6  23310241.039                    23310250.648
 114086660.552 8  88898763.000 7  21709971.320                    21709982.984
 128142834.131 6  99851661.96444  24384774.117                    24384787.480
 114644936.312 8  89333812.04445  21816210.141                    21816219.566
 112221415.761 7  87445449.10546  21354991.953                    21354998.699
 11  8 25  1 35  0.0000000  0  9G10G04G12G05G29G25G26G30G02
 120123395.905 6  93602786.14544  22858687.844                    22858697.672
 129314186.966 6 100764445.61842  24607644.609                    24607656.188
 110656084.776 8  86225592.487 7  21057149.938                    21057158.496
 106481109.801 8  82972399.831 8  20262643.422                    20262652.371
 122412549.256 6  95386432.665 6  23294331.578                    23294341.203
 114062411.925 7  88879867.974 7  21705356.609                    21705368.316
 128048739.619 6  99778341.77343  24366868.242                    24366881.762
 114628260.706 7  89320818.04145  21813037.000                    21813046.473
 112255108.786 7  87471703.41646  21361403.391                    21361410.258
 11  8 25  1 35 30.0000000  0  9G10G04G12G05G29G25G26G30G02
 120219663.258 6  93677799.63044  22877007.109                    22877016.609
 129391484.164 6 100824677.21142  24622353.148                    24622365.500
 110697588.428 8  86257932.964 7  21065048.094                    21065057.223
 106486044.603 8  82976245.144 8  20263582.469                    20263591.129
 122328949.035 6  95321289.642 6  23278423.078                    23278432.938
 114038733.847 8  88861417.532 7  21700851.000                    21700862.785
 127954580.173 6  99704970.98043  24348950.313                    24348964.055
 114612186.558 8  89308292.70945  21809978.656                    21809987.484
 112288897.820 8  87498032.52846  21367832.875                    21367840.387
 11  8 25  1 36  0.0000000  0  9G10G04G12G05G29G25G26G30G02
 120316195.517 7  93753019.53944  22895376.797                    22895386.348
 129468716.389 6 100884858.23642  24637050.586                    24637061.930
 110739611.443 8  86290678.151 7  21073044.555                    21073053.238
 106491542.628 8  82980529.334 8  20264628.453                    20264637.535
 122245353.731 6  95256150.467 6  23262514.789                    23262525.527
 114015626.581 7  88843411.878 7  21696453.859                    21696465.219
 127860358.557 6  99631551.75543  24331020.266                    24331034.738
 114596713.637 8  89296235.87545  21807033.844                    21807043.383
 112322781.775 7  87524435.60946  21374280.844                    21374287.883
 11  8 25  1 36 30.0000000  0  9G10G04G12G05G29G25G26G30G02
 120412990.374 7  93828444.07944  22913796.586                    22913805.898
 129545883.963 6 100944988.80042  24651734.391                    24651746.418
 110782152.241 8  86323826.799 7  21081139.875                    21081148.465
 106497603.597 8  82985252.185 8  20265781.961                    20265790.313
 122161764.778 6  95191016.230 6  23246608.883                    23246618.711
 113993091.166 8  88825851.819 7  21692166.094                    21692177.441
 127766077.980 6  99558086.60943  24313078.641                    24313093.105
 114581842.464 8  89284647.94345  21804203.836                    21804213.727
 112356760.790 7  87550912.77146  21380747.375                    21380754.152
 11  8 25  1 37  0.0000000  0  9G10G04G12G05G29G25G26G30G02
 120510044.465 7  93904070.61844  22932265.281                    22932275.250
 129622986.516 6 101005068.76442  24666407.086                    24666418.457
 110825208.613 8  86357377.189 7  21089333.289                    21089342.242
 106504226.237 8  82990412.710 8  20267042.219                    20267050.859
 122078183.490 6  95125887.960 6  23230703.586                    23230713.816
 113971127.811 8  88808737.535 7  21687986.188                    21687997.680
 127671741.572 6  99484577.95243  24295127.313                    24295140.887
 114567572.882 8  89273528.78645  21801488.766                    21801498.090
 112390834.064 8  87577463.38746  21387230.750                    21387238.160
 11  8 25  1 37 30.0000000  0  8G10G12G05G29G25G26G30G02
 120607355.227 7  93979897.15944  22950782.391                    22950792.691
 110868779.188 8  86391328.273 7  21097624.547                    21097633.465
 106511410.247 8  82996010.653 8  20268409.172                    20268417.824
 121994611.805 7  95060767.172 6  23214800.531                    23214810.809
 113949737.702 8  88792069.930 7  21683915.805                    21683927.145
 127577352.926 6  99411028.56243  24277165.320                    24277179.340
 114553905.566 7  89262878.92745  21798887.883                    21798897.523
 112425001.716 7  87604087.52946  21393732.578                    21393739.418
 11  8 25  1 38  0.0000000  0  8G10G12G05G29G25G26G30G02
 120704919.351 7  94055921.12644  22969348.953                    22969358.629
 110912861.881 8  86425678.396 7  21106013.055                    21106022.086
 106519154.493 8  83002045.149 8  20269882.953                    20269891.801
 121911050.732 7  94995654.677 6  23198899.289                    23198909.645
 113928920.808 8  88775848.995 7  21679954.227                    21679966.012
 127482914.842 7  99337440.66543  24259194.797                    24259207.855
 114540840.030 8  89252698.00945  21796401.594                    21796410.914
 112459262.724 8  87630784.43246  21400252.258                    21400259.570
 11  8 25  1 38 30.0000000  0  8G10G12G05G29G25G26G30G02
 120802733.870 7  94132140.21744  22987961.914                    22987971.707
 110957455.156 8  86460426.374 7  21114499.133                    21114507.746
 106527458.154 8  83008515.560 8  20271462.930                    20271471.746
 121827502.079 7  94930551.846 6  23183001.211                    23183011.016
 113908677.791 8  88760075.226 7  21676102.578                    21676113.992
 127388430.254 7  99263816.50843  24241214.383                    24241227.441
 114528376.370 7  89242986.07145  21794029.625                    21794039.320
 112493616.669 8  87657553.75046  21406789.594                    21406796.672
 11  8 25  1 39  0.0000000  0  8G10G12G05G29G25G26G30G02
 120900795.749 6  94208552.06044  23006621.945                    23006632.922
 111002556.289 8  86495570.095 7  21123081.391                    21123090.340
 106536319.136 8  83015420.239 8  20273149.211                    20273158.063
 121743966.709 7  94865459.366 6  23167104.438                    23167114.684
 113889008.559 8  88744748.564 7  21672359.063                    21672370.754
 127293901.910 7  99190158.18243  24223226.711                    24223239.250
 114516514.132 7  89233742.78645  21791772.227                    21791782.363
 112528062.841 8  87684394.93146  21413344.867                    21413351.926
 11  8 25  1 39 30.0000000  0  8G10G12G05G29G25G26G30G02
 120999102.441 6  94285154.64544  23025328.945                    23025339.813
 111048164.013 8  86531108.560 7  21131760.242                    21131769.082
 106545737.558 8  83022759.291 8  20274941.813                    20274950.051
 121660446.385 7  94800378.622 6  23151211.516                    23151221.707
 113869914.064 8  88729869.753 7  21668725.719                    21668737.543
 127199333.543 7  99116468.71543  24205230.531                    24205242.516
 114505253.636 7  89224968.38745  21789629.609                    21789639.141
 112562600.778 8  87711307.62446  21419917.281                    21419924.125
 11  8 25  1 40  0.0000000  0  8G10G12G05G29G25G26G30G02
 121097650.909 6  94361945.61744  23044082.648                    23044092.648
 111094276.407 8  86567040.272 7  21140535.414                    21140544.258
 106555711.995 8  83030531.603 8  20276839.492                    20276848.188
 121576942.937 7  94735311.021 7  23135320.594                    23135330.855
 113851394.504 8  88715438.937 7  21665201.461                    21665213.000
 127104727.867 7  99042750.14343  24187227.414                    24187239.867
 114494594.662 8  89216662.71045  21787601.117                    21787610.734
 112597230.407 8  87738291.76646  21426506.750                    21426513.613
 11  8 25  1 40 30.0000000  0  8G10G12G05G29G25G26G30G02
 121196438.244 6  94438922.77543  23062881.203                    23062891.277
 111140890.795 8  86603363.152 7  21149405.852                    21149414.543
 106566241.458 8  83038736.402 8  20278843.313                    20278851.824
 121493457.460 7  94670257.431 6  23119434.328                    23119444.227
 113833450.389 8  88701456.526 7  21661786.758                    21661798.273
 127010088.388 6  98969005.22943  24169217.727                    24169230.723
 114484537.275 8  89208825.80845  21785686.938                    21785697.016
 112631951.326 8  87765347.03346  21433114.117                    21433120.855
 11  8 25  1 41  0.0000000  0  8G10G12G05G29G25G26G30G02
 121295461.676 6  94516083.86244  23081724.703                    23081735.020
 111188005.968 8  86640076.256 7  21158371.484                    21158380.473
 106577325.202 8  83047373.111 8  20280952.297                    20280961.117
 121409991.763 7  94605219.272 6  23103551.672                    23103561.172
 113816082.279 8  88687922.943 7  21658482.180                    21658493.445
 126915418.322 6  98895236.50043  24151202.578                    24151215.410
 114475081.503 7  89201457.69745  21783888.000                    21783897.008
 112666763.331 8  87792473.27946  21439738.195                    21439745.406
 11  8 25  1 41 30.0000000  0  8G10G12G05G29G25G26G30G02
 121394718.549 6  94593426.85543  23100612.383                    23100622.824
 111235620.010 8  86677178.089 7  21167432.008                    21167440.883
 106588962.488 8  83056441.145 8  20283166.609                    20283175.680
 121326547.579 7  94540197.871 6  23087672.461                    23087682.031
 113799290.601 8  88674838.523 7  21655286.281                    21655297.727
 126820721.005 6  98821446.59043  24133181.211                    24133194.531
 114466227.311 8  89194558.34645  21782203.141                    21782212.586
 112701666.293 8  87819670.40046  21446380.531                    21446387.438
 11  8 25  1 42  0.0000000  0  8G10G12G05G29G25G26G30G02
 121494206.049 6  94670949.58544  23119544.398                    23119554.746
 111283731.261 8  86714667.348 7  21176587.273                    21176596.004
 106601152.182 8  83065939.624 8  20285486.617                    20285494.711
 121243126.531 7  94475194.524 6  23071797.672                    23071807.699
 113783075.739 8  88662203.570 7  21652201.039                    21652212.375
 126725999.566 6  98747637.87843  24115156.250                    24115170.184
 114457974.489 7  89188127.60545  21780632.883                    21780641.813
 112736659.834 8  87846938.09646  21453039.148                    21453046.367
 11  8 25  1 42 30.0000000  0  8G10G12G05G29G25G26G30G02
 121593921.071 7  94748649.58543  23138520.156                    23138529.879
 111332337.068 8  86752541.993 7  21185836.883                    21185845.594
 106613892.841 8  83075867.439 8  20287910.867                    20287919.699
 121159729.864 7  94410210.160 6  23055927.445                    23055937.363
 113767437.624 8  88650018.027 7  21649225.227                    21649236.668
 126631257.262 6  98673812.89143  24097127.813                    24097141.168
 114450322.543 7  89182165.07145  21779176.227                    21779185.844
 112771742.658 8  87874275.37046  21459715.461                    21459722.641
 11  8 25  1 43  0.0000000  0  8G10G12G05G29G25G26G30G02
 121693860.843 6  94826524.72444  23157537.977                    23157547.543
 111381435.519 8  86790800.508 7  21195180.016                    21195188.664
 106627183.306 8  83086223.663 8  20290440.234                    20290448.797
 121076359.157 7  94345246.035 6  23040062.820                    23040072.414
 113752376.625 8  88638282.185 7  21646359.094                    21646370.660
 126536497.168 6  98599974.05443  24079096.063                    24079108.504
 114443271.297 8  89176670.61245  21777834.313                    21777844.238
 112806914.902 8  87901682.31546  21466408.539                    21466415.734
 11  8 25  1 43 30.0000000  0  8G10G12G05G29G25G26G30G02
 121794022.391 7  94904572.65844  23176598.055                    23176607.496
 111431024.169 8  86829440.995 7  21204616.242                    21204625.234
 106641022.032 8  83097007.103 8  20293073.383                    20293081.984
 120993015.732 7  94280303.178 6  23024202.969                    23024212.938
 113737892.663 8  88626995.984 7  21643603.047                    21643614.461
 126441722.248 6  98526123.62243  24061060.758                    24061074.094
 114436820.190 7  89171643.79545  21776606.891                    21776616.879
 112842176.151 8  87929158.61646  21473118.461                    21473124.965
 11  8 25  1 44  0.0000000  0  8G10G12G05G29G25G26G30G02
 121894403.477 7  94982791.66744  23195699.531                    23195710.121
 111481101.637 8  86868462.383 7  21214145.750                    21214154.563
 106655408.972 8  83108217.726 8  20295811.180                    20295819.770
 120909701.653 7  94215383.192 6  23008348.234                    23008358.676
 113723986.600 8  88616160.080 7  21640956.805                    21640967.887
 126346936.297 7  98452264.56443  24043022.820                    24043035.961
 114430969.656 8  89167084.95345  21775493.625                    21775503.129
 112877526.408 8  87956704.27846  21479845.297                    21479852.520
 11  8 25  1 44 30.0000000  0  8G10G12G05G29G25G26G30G02
 121995000.944 7  95061179.29744  23214843.422                    23214852.813
 111531666.008 8  86907863.175 7  21223767.852                    21223776.684
 106670342.465 8  83119854.234 8  20298652.773                    20298661.539
 120826418.650 7  94150487.398 6  22992500.734                    22992510.344
 113710658.605 8  88605774.619 7  21638420.438                    21638432.031
 126252142.644 7  98378399.53043  24024984.844                    24024996.676
 114425719.214 7  89162993.71545  21774494.641                    21774503.879
 112912965.074 8  87984318.81946  21486589.000                    21486596.008
 11  8 25  1 45  0.0000000  0  8G10G12G05G29G25G26G30G02
 122095811.947 7  95139733.31744  23234027.031                    23234036.547
 111582714.557 8  86947641.251 7  21233481.898                    21233491.289
 106685821.268 8  83131915.654 8  20301598.258                    20301606.801
 120743167.927 7  94085616.760 6  22976658.336                    22976668.051
 113697908.537 8  88595839.482 7  21635994.125                    21636005.355
 126157344.069 7  98304530.64643  24006944.703                    24006957.262
 114421068.305 8  89159369.64045  21773609.578                    21773619.332
 112948491.639 8  88012001.85846  21493349.578                    21493356.414
 11  8 25  1 45 30.0000000  0  8G10G12G05G29G25G26G30G02
 122196833.385 7  95218451.29644  23253250.539                    23253260.711
 111634245.322 8  86987795.078 7  21243287.945                    21243296.996
 106701844.089 8  83144400.983 8  20304647.586                    20304656.023
 120659951.051 7  94020772.508 6  22960822.805                    22960832.848
 113685736.524 8  88586354.780 7  21633677.711                    21633689.367
 126062544.073 6  98230660.66543  23988905.141                    23988917.625
 114417016.491 8  89156212.38945  21772838.352                    21772848.004
 112984105.879 8  88039753.21346  21500126.930                    21500133.766
 11  8 25  1 46  0.0000000  0  8G10G12G05G29G25G26G30G02
 122298062.252 7  95297330.90544  23272513.461                    23272523.754
 111686255.492 8  87028322.466 7  21253185.000                    21253194.164
 106718409.230 8  83157308.900 8  20307799.625                    20307808.227
 120576769.629 7  93955955.879 6  22944993.930                    22945003.652
 113674142.325 8  88577320.322 7  21631471.883                    21631483.426
 125967745.745 6  98156791.99743  23970865.430                    23970877.348
 114413563.116 7  89153521.45345  21772181.188                    21772190.879
 113019807.158 8  88067572.38846  21506920.625                    21506927.516
 11  8 25  1 46 30.0000000  0  8G10G12G05G29G25G26G30G02
 122399495.966 7  95376370.16444  23291816.070                    23291825.355
 111738743.454 8  87069222.162 7  21263173.383                    21263182.051
 106735515.834 8  83170638.736 8  20311055.195                    20311063.504
 120493625.393 7  93891168.215 6  22929172.195                    22929181.582
 113663126.441 8  88568736.491 7  21629375.344                    21629386.891
 125872952.418 6  98082927.26143  23952826.313                    23952838.992
 114410708.035 8  89151296.70945  21771637.984                    21771647.344
 113055595.452 8  88095459.36646  21513730.852                    21513737.609
 11  8 25  1 47  0.0000000  0  8G10G12G05G29G25G26G30G02
 122501131.565 7  95455566.66344  23311156.813                    23311166.605
 111791707.161 8  87110492.570 7  21273252.094                    21273261.254
 106753162.483 8  83184389.387 8  20314413.164                    20314421.676
 120410520.111 7  93826410.894 7  22913357.195                    22913367.098
 113652688.823 8  88560603.260 7  21627389.195                    21627401.074
 125778167.391 6  98009068.95443  23934789.406                    23934802.570
 114408450.757 7  89149537.78745  21771208.250                    21771218.316
 113091470.678 8  88123414.08946  21520557.719                    21520564.418
 11  8 25  1 47 30.0000000  0  8G10G12G05G29G25G26G30G02
 122602966.493 7  95534918.54143  23330534.508                    23330544.941
 111845144.513 8  87152132.047 7  21283420.992                    21283430.020
 106771348.319 8  83198560.176 8  20317873.531                    20317882.125
 120327455.334 7  93761685.137 7  22897551.195                    22897560.125
 113642829.732 8  88552920.822 7  21625512.898                    21625524.477
 125683394.254 7  97935219.93044  23916755.000                    23916767.477
 114406791.027 8  89148244.47645  21770892.320                    21770902.066
 113127432.497 8  88151436.28545  21527401.305                    21527407.781
 11  8 25  1 48  0.0000000  0  8G10G12G05G29G25G26G30G02
 122704997.845 6  95614423.46343  23349950.531                    23349960.355
 111899053.043 8  87194138.685 7  21293679.484                    21293688.203
 106790071.686 8  83213149.825 8  20321436.625                    20321445.086
 120244432.928 7  93696992.400 6  22881752.398                    22881761.691
 113633548.980 8  88545689.044 7  21623747.477                    21623758.770
 125588635.980 6  97861382.45844  23898722.688                    23898734.852
 114405728.055 8  89147416.16145  21770690.141                    21770700.133
 113163480.487 8  88179525.61746  21534260.242                    21534267.539
 11  8 25  1 48 30.0000000  0  8G10G12G05G29G25G26G30G02
 122807222.946 6  95694079.37743  23369403.656                    23369413.707
 111953430.705 8  87236510.870 7  21304026.969                    21304035.949
 106809331.591 8  83228157.564 8  20325101.469                    20325110.328
 120161454.655 7  93632334.038 7  22865961.727                    22865971.805
 113624846.706 8  88538908.027 7  21622091.336                    21622102.777
 125493896.209 7  97787559.40443  23880694.086                    23880707.340
 114405261.537 8  89147052.62145  21770601.313                    21770611.086
 113199614.291 8  88207681.82546  21541136.664                    21541143.770
 11  8 25  1 49  0.0000000  0  8G10G12G05G29G25G26G30G02
 122909638.876 7  95773883.99143  23388892.609                    23388903.199
 112008275.234 8  87279246.848 7  21314464.008                    21314472.711
 106829126.002 8  83243581.786 8  20328868.391                    20328877.375
 120078521.622 7  93567710.931 7  22850180.258                    22850189.805
 113616722.565 8  88532577.495 7  21620545.336                    21620556.750
 125399178.029 6  97713753.16343  23862669.438                    23862682.453
 114405390.596 8  89147153.15645  21770626.141                    21770635.754
 113235833.473 8  88235904.55646  21548029.031                    21548035.855
 11  8 25  1 49 30.0000000  0  8G10G12G05G29G25G26G30G02
 123012242.971 7  95853835.19243  23408418.219                    23408427.465
 112063584.548 7  87322344.997 7  21324988.773                    21324997.996
 106849454.048 8  83259421.833 8  20332736.617                    20332744.844
 119995635.981 7  93503124.744 7  22834407.719                    22834417.359
 113609176.826 8  88526697.681 7  21619109.516                    21619121.332
 125304485.021 6  97639966.56443  23844650.758                    23844662.020
 114406114.944 8  89147717.55745  21770764.055                    21770773.910
 113272138.099 8  88264193.87746  21554937.320                    21554944.469
 11  8 25  1 50  0.0000000  0  8G10G12G05G29G25G26G30G02
 123115032.330 7  95933930.80544  23427978.617                    23427987.957
 112119355.803 8  87365803.098 7  21335601.648                    21335610.656
 106870314.143 8  83275676.465 8  20336706.164                    20336714.523
 119912799.397 7  93438576.791 7  22818644.086                    22818654.004
 113602209.142 8  88521268.297 7  21617783.547                    21617794.828
 125209820.427 6  97566202.07443  23826636.336                    23826648.055
 114407433.789 8  89148745.19045  21771015.125                    21771024.484
 113308527.623 8  88292549.34046  21561862.281                    21561869.285
 11  8 25  1 50 30.0000000  0  8G10G12G05G29G25G26G30G02
 123218004.218 7  96014168.61843  23447572.758                    23447583.031
 112175586.792 8  87409619.433 7  21346302.141                    21346310.977
 106891704.807 8  83292344.533 8  20340776.734                    20340785.074
 119830013.562 7  93374068.382 7  22802890.609                    22802900.277
 113595819.449 8  88516289.302 7  21616567.453                    21616579.141
 125115187.577 6  97492462.33143  23808628.289                    23808640.094
 114409346.463 7  89150235.55145  21771378.938                    21771388.891
 113345001.993 8  88320970.92246  21568803.328                    21568810.215
 11  8 25  1 51  0.0000000  0  8G10G12G05G29G25G26G30G02
 123321155.695 7  96094546.39543  23467201.922                    23467211.957
 112232275.266 7  87453792.252 7  21357089.289                    21357098.551
 106913624.294 8  83309424.660 8  20344947.422                    20344956.004
 119747279.993 7  93309600.695 7  22787147.039                    22787156.523
 113590007.422 8  88511760.441 7  21615461.305                    21615473.234
 125020589.747 6  97418749.88044  23790626.484                    23790638.605
 114411852.123 8  89152187.97445  21771856.063                    21771865.254
 113381560.990 8  88349458.45845  21575759.852                    21575767.336
 11  8 25  1 51 30.0000000  0  8G10G12G05G29G25G26G30G02
 123424484.708 7  96175062.49143  23486865.008                    23486874.719
 112289419.647 7  87498320.316 7  21367964.063                    21367972.660
 106936072.497 8  83326916.780 8  20349219.586                    20349227.871
 119664601.082 7  93245175.593 7  22771413.328                    22771423.449
 113584773.505 8  88507682.048 7  21614465.453                    21614477.016
 124926030.705 6  97345067.66844  23772632.063                    23772644.234
 114414950.719 8  89154602.42745  21772445.484                    21772455.344
 113418204.760 8  88378012.03946  21582732.641                    21582739.891
 11  8 25  1 52  0.0000000  0  8G10G12G05G29G25G26G30G02
 123527987.513 7  96255714.02543  23506560.469                    23506570.883
 112347016.422 7  87543200.903 7  21378924.320                    21378933.031
 106959046.362 8  83344818.498 8  20353591.766                    20353600.051
 119581977.900 7  93180793.913 7  22755690.656                    22755701.016
 113580116.861 8  88504053.493 7  21613579.484                    21613591.152
 124831513.515 6  97271418.06844  23754646.656                    23754658.730
 114418640.838 7  89157477.81445  21773147.391                    21773157.285
 113454932.424 8  88406630.99945  21589722.063                    21589728.977
 11  8 25  1 52 30.0000000  0  9G10G15G12G05G29G25G26G30G02
 123631661.610 7  96336499.03343  23526289.398                    23526298.922
 129488686.81016 100900366.33315  24640882.898
 112405063.588 7  87588432.426 7  21389970.078                    21389979.176
 106982544.678 8  83363128.885 8  20358062.742                    20358071.637
 119499412.328 7  93116457.128 7  22739978.570                    22739989.113
 113576037.350 7  88500874.659 7  21612802.992                    21612814.691
 124737041.474 6  97197803.63444  23736668.656                    23736681.133
 114422921.875 7  89160813.64445  21773962.391                    21773972.324
 113491743.688 7  88435315.10645  21596726.680                    21596733.953
 11  8 25  1 53  0.0000000  0  9G10G15G12G05G29G25G26G30G02
 123735503.951 7  96417415.11143  23546050.461                    23546059.934
 129396060.296 6 100828190.280 6  24623257.008                    24623272.176
 112463558.559 7  87634012.892 7  21401101.156                    21401110.438
 107006565.837 8  83381846.679 8  20362634.055                    20362642.605
 119416905.877 7  93052166.406 7  22724279.453                    22724288.270
 113572534.423 8  88498145.101 7  21612136.602                    21612148.078
 124642617.754 6  97124226.85744  23718700.375                    23718712.387
 114427792.665 7  89164609.04345  21774889.438                    21774899.066
 113528638.136 7  88464064.02946  21603747.445                    21603754.781
 11  8 25  1 53 30.0000000  0  9G10G15G12G05G29G25G26G30G02
 123839511.574 7  96498459.96643  23565841.625                    23565852.137
 129303297.671 6 100755908.154 6  24605604.188                    24605619.402
 112522498.557 7  87679940.140 7  21412317.695                    21412326.543
 107031107.998 8  83400970.450 8  20367304.305                    20367312.945
 119334460.141 7  92987923.004 7  22708589.500                    22708599.703
 113569607.643 8  88495864.502 7  21611579.539                    21611591.227
 124548245.616 6  97050690.28244  23700742.453                    23700753.527
 114433252.405 7  89168863.35445  21775928.039                    21775938.230
 113565615.772 8  88492877.78146  21610784.180                    21610790.988
 11  8 25  1 54  0.0000000  0  9G10G15G12G05G29G25G26G30G02
 123943682.815 7  96579632.33443  23585665.023                    23585675.508
 129210402.162 6 100683522.497 6  24587926.117                    24587942.000
 112581882.051 8  87726212.952 7  21423617.789                    21423626.742
 107056170.724 7  83420499.859 8  20372073.422                    20372081.676
 119252077.626 7  92923728.848 7  22692912.664                    22692922.367
 113567257.487 8  88494033.221 7  21611132.133                    21611144.105
 124453929.221 6  96977197.12144  23682793.719                    23682805.555
 114439300.891 8  89173576.42845  21777079.453                    21777089.109
 113602676.922 8  88521756.61245  21617836.789                    21617843.836
 11  8 25  1 54 30.0000000  0  9G10G15G12G05G29G25G26G30G02
 124048014.920 7  96660930.07843  23605519.250                    23605529.348
 129117376.166 5 100611035.124 6  24570224.047                    24570239.887
 112641706.724 7  87772829.552 7  21435001.727                    21435011.023
 107081752.258 8  83440433.527 8  20376941.352                    20376949.957
 119169759.953 7  92859585.227 7  22677248.102                    22677257.754
 113565483.599 8  88492650.974 7  21610794.828                    21610806.211
 124359672.105 6  96903750.15343  23664857.234                    23664868.805
 114445937.333 8  89178747.66545  21778342.516                    21778352.012
 113639821.125 8  88550700.15046  21624904.992                    21624912.285
 11  8 25  1 55  0.0000000  0  9G10G15G12G05G29G25G26G30G02
 124152504.880 7  96742350.78743  23625402.008                    23625412.633
 129024222.189 5 100538448.046 6  24552496.484                    24552512.496
 112701970.393 8  87819788.224 7  21446469.328                    21446478.867
 107107851.115 8  83460770.313 8  20381907.883                    20381916.184
 119087509.417 7  92795493.924 7  22661596.375                    22661606.340
 113564285.697 8  88491717.557 7  21610566.688                    21610578.266
 124265477.685 6  96830352.03543  23646932.156                    23646943.723
 114453160.820 8  89184376.34345  21779716.672                    21779726.688
 113677048.351 8  88579708.38746  21631989.594                    21631995.766
 11  8 25  1 55 30.0000000  0  9G10G15G12G05G29G25G26G30G02
 124257149.727 6  96823892.18943  23645315.484                    23645326.559
 128930942.266 6 100465762.864 6  24534746.031                    24534761.387
 112762669.892 8  87867086.500 7  21458020.133                    21458029.449
 107134465.121 8  83481508.510 8  20386972.406                    20386980.512
 119005327.551 7  92731456.134 7  22645957.945                    22645967.656
 113563663.156 8  88491232.471 7  21610448.422                    21610459.684
 124171349.116 6  96757005.24543  23629020.078                    23629031.781
 114460970.254 8  89190461.59645  21781203.148                    21781212.324
 113714358.533 8  88608781.27746  21639089.258                    21639095.652
 11  8 25  1 56  0.0000000  0  9G10G15G12G05G29G25G26G30G02
 124361947.094 6  96905552.43143  23665258.258                    23665268.805
 128837538.962 6 100392981.464 6  24516971.844                    24516987.004
 112823802.937 7  87914722.600 7  21469653.750                    21469662.992
 107161592.991 7  83502647.120 8  20392134.547                    20392143.383
 118923216.248 7  92667473.335 7  22630332.813                    22630342.496
 113563615.564 8  88491195.392 7  21610439.398                    21610450.535
 124077290.081 6  96683712.58143  23611121.609                    23611133.152
 114469364.689 8  89197002.70945  21782800.258                    21782810.461
 113751751.399 8  88637918.58646  21646204.859                    21646211.684
 11  8 25  1 56 30.0000000  0  9G10G15G12G05G29G25G26G30G02
 124466894.213 6  96987329.35544  23685229.047                    23685239.836
 128744015.195 6 100320106.185 6  24499174.805                    24499189.926
 112885367.241 7  87962694.749 7  21481369.070                    21481378.070
 107189233.151 8  83524184.915 8  20397394.266                    20397402.816
 118841176.975 7  92603546.650 7  22614721.180                    22614731.422
 113564142.559 8  88491606.046 7  21610539.617                    21610551.133
 123983304.063 6  96610476.83143  23593236.211                    23593247.367
 114478343.180 7  89203998.91845  21784508.828                    21784518.496
 113789226.785 8  88667120.20346  21653336.359                    21653343.051
 11  8 25  1 57  0.0000000  0  9G10G15G12G05G29G25G26G30G02
 124571988.250 7  97069220.79143  23705227.719                    23705237.910
 128650373.160 6 100247138.741 6  24481354.898                    24481369.691
 112947359.993 8  88011000.758 7  21493165.648                    21493174.609
 107217383.717 8  83546120.430 8  20402751.148                    20402759.711
 118759211.778 7  92539677.697 7  22599123.609                    22599133.234
 113565243.542 8  88492463.960 7  21610748.984                    21610760.750
 123889394.319 6  96537300.52143  23575365.531                    23575377.211
 114487904.643 7  89211449.41045  21786328.266                    21786338.250
 113826784.527 7  88696385.97745  21660482.992                    21660490.129
 11  8 25  1 57 30.0000000  0  9G10G15G12G05G29G25G26G30G02
 124677226.388 7  97151224.54343  23725254.070                    23725263.539
 128556615.095 6 100174080.833 6  24463513.695                    24463527.348
 113009778.421 7  88059638.464 7  21505043.656                    21505052.645
 107246042.758 8  83568452.159 8  20408204.648                    20408212.797
 118677322.563 7  92475867.963 7  22583540.633                    22583550.301
 113566917.887 8  88493768.652 7  21611067.469                    21611079.270
 123795564.215 6  96464186.27444  23557509.875                    23557521.449
 114498047.926 7  89219353.26245  21788258.742                    21788267.957
 113864423.840 7  88725715.31745  21667645.461                    21667652.488
 11  8 25  1 58  0.0000000  0  9G10G15G12G05G29G25G26G30G02
 124782606.264 7  97233338.70243  23745306.914                    23745317.203
 128462743.707 6 100100934.607 6  24445649.734                    24445664.211
 113072620.490 8  88108606.276 7  21517002.156                    21517010.949
 107275208.928 8  83591179.050 8  20413754.875                    20413763.289
 118595510.977 7  92412118.716 7  22567972.766                    22567982.246
 113569165.286 8  88495519.881 7  21611495.453                    21611507.258
 123701817.528 7  96391137.02744  23539670.758                    23539682.918
 114508772.138 7  89227709.79845  21790299.320                    21790309.227
 113902145.393 8  88755108.74345  21674823.914                    21674830.695
 11  8 25  1 58 30.0000000  0  9G10G15G12G05G29G25G26G30G02
 124888125.136 7  97315561.20343  23765386.695                    23765396.484
 128368761.971 6 100027702.409 6  24427765.039                    24427779.914
 113135883.715 8  88157902.267 7  21529040.727                    21529049.816
 107304880.536 8  83614299.788 8  20419401.508                    20419409.801
 118513779.082 7  92348431.570 7  22552419.289                    22552428.789
 113571985.162 8  88497717.193 7  21612031.875                    21612043.125
 123608157.660 7  96318155.45644  23521848.328                    23521859.453
 114520076.246 7  89236518.20245  21792450.102                    21792459.863
 113939948.890 8  88784566.01945  21682017.547                    21682024.539
 11  8 25  1 59  0.0000000  0  9G10G15G12G05G29G25G26G30G02
 124993780.334 7  97397889.92243  23785491.906                    23785502.074
 128274671.947 6  99954385.828 6  24409860.313                    24409875.113
 113199565.249 8  88207524.212 7  21541159.016                    21541168.250
 107335055.720 8  83637812.928 8  20425143.258                    20425151.840
 118432128.608 7  92284807.879 7  22536881.414                    22536891.242
 113575376.965 8  88500360.155 7  21612677.313                    21612689.008
 123514588.051 7  96245244.21644  23504041.734                    23504053.676
 114531959.078 8  89245777.55745  21794711.398                    21794720.988
 113977834.172 7  88814087.01445  21689226.727                    21689233.977
 11  8 25  1 59 30.0000000  0  9G10G15G12G05G29G25G26G30G02
 125099569.045 7  97480322.68943  23805623.219                    23805632.406
 128180476.255 6  99880986.895 6  24391935.609                    24391949.309
 113263662.675 8  88257470.229 7  21553356.469                    21553365.410
 107365732.660 8  83661717.042 8  20430980.930                    20430989.621
 118350561.529 7  92221249.159 7  22521359.336                    22521369.512
 113579340.033 8  88503448.265 7  21613431.867                    21613443.344
 123421112.237 7  96172406.07444  23486253.898                    23486266.012
 114544419.454 8  89255486.94545  21797082.453                    21797092.648
 114015800.992 8  88843671.55545  21696451.523                    21696458.543
 11  8 25  2  0  0.0000000  0  9G10G15G12G05G29G25G26G30G02
 125205488.791 6  97562857.58743  23825779.000                    23825789.129
 128086177.723 6  99807507.806 5  24373990.219                    24374004.594
 113328173.443 8  88307738.338 7  21565632.688                    21565641.465
 107396909.976 8  83686011.059 8  20436913.563                    20436922.227
 118269079.891 7  92157757.031 7  22505854.281                    22505864.176
 113583873.819 8  88506981.079 7  21614294.344                    21614305.727
 123327733.901 7  96099643.87444  23468484.984                    23468497.191
 114557456.367 8  89265645.59145  21799563.430                    21799573.430
 114053849.527 7  88873319.76145  21703691.773                    21703699.336
 11  8 25  2  0 30.0000000  0  9G10G15G12G05G29G25G26G30G02
 125311536.874 6  97645492.43543  23845959.117                    23845969.449
 127991778.697 6  99733950.404 5  24356027.078                    24356040.949
 113393095.088 7  88358326.613 7  21577986.508                    21577995.930
 107428585.680 8  83710693.427 8  20442941.281                    20442949.902
 118187685.568 7  92094332.954 7  22490365.133                    22490375.184
 113588977.754 8  88510958.158 7  21615265.414                    21615277.313
 123234456.566 7  96026960.37544  23450734.391                    23450746.004
 114571068.520 8  89276252.46645  21802153.766                    21802163.676
 114091979.402 7  88903031.33845  21710948.086                    21710955.059
 11  8 25  2  1  0.0000000  0  9G10G15G12G05G29G25G26G30G02
 125417710.447 6  97728225.06143  23866162.695                    23866173.723
 127897281.781 6  99660316.750 6  24338044.117                    24338058.895
 113458424.694 7  88409232.784 7  21590418.547                    21590427.840
 107460757.686 8  83735762.521 8  20449063.984                    20449072.059
 118106380.448 7  92030978.377 7  22474893.445                    22474903.070
 113594650.920 8  88515378.799 7  21616345.250                    21616356.688
 123141283.489 7  95954358.12044  23433003.734                    23433015.305
 114585254.652 8  89287306.60645  21804853.172                    21804863.082
 114130190.673 7  88932806.36245  21718219.328                    21718225.906
 11  8 25  2  1 30.0000000  0  9G10G15G12G05G29G25G26G30G02
 125524007.424 6  97811053.89243  23886391.039                    23886401.758
 127802689.791 6  99586609.053 6  24320044.078                    24320058.273
 113524159.927 7  88460455.025 7  21602927.578                    21602936.543
 107493424.708 7  83761217.356 8  20455279.977                    20455288.402
 118025166.411 7  91967694.774 7  22459438.992                    22459448.555
 113600892.936 8  88520242.699 7  21617532.898                    21617544.230
 123048218.392 7  95881839.98744  23415294.242                    23415305.898
 114600013.762 8  89298807.21345  21807661.938                    21807671.414
 114168483.376 7  88962644.80745  21725506.078                    21725513.359
 11  8 25  2  2  0.0000000  0  9G10G15G12G05G29G25G26G30G02
 125630424.637 6  97893976.36043  23906640.750                    23906652.168
 127708005.013 6  99512829.033 6  24302026.148                    24302040.195
 113590297.698 7  88511990.947 7  21615512.945                    21615521.949
 107526584.632 7  83787056.271 8  20461589.945                    20461598.469
 117944045.389 7  91904483.659 7  22444001.914                    22444011.473
 113607702.853 8  88525549.113 7  21618828.758                    21618840.629
 122955264.783 7  95809408.72144  23397606.055                    23397617.199
 114615344.406 8  89310753.17645  21810579.398                    21810588.926
 114206857.108 7  88992546.41345  21732808.539                    21732815.414
 11  8 25  2  2 30.0000000  0  9G10G15G12G05G29G25G26G30G02
 125736959.459 6  97976990.46043  23926914.305                    23926924.977
 127613230.247 6  99438978.902 6  24283990.031                    24284004.824
 113656835.699 7  88563838.735 7  21628174.797                    21628183.953
 107560235.378 7  83813277.637 8  20467993.242                    20468001.645
 117863019.343 7  91841346.541 7  22428583.125                    22428592.520
 113615079.768 8  88531297.339 7  21620232.891                    21620244.469
 122862425.923 7  95737066.88044  23379939.086                    23379950.762
 114631245.042 8  89323143.29045  21813605.008                    21813615.141
 114245311.883 7  89022511.16445  21740125.828                    21740132.770
 11  8 25  2  3  0.0000000  0  9G10G15G12G05G29G25G26G30G02
 125843609.149 6  98060094.07043  23947209.891                    23947219.645
 127518367.713 6  99365060.359 6  24265938.781                    24265952.254
 113723770.778 7  88615995.915 7  21640912.281                    21640921.223
 107594374.800 8  83839879.790 8  20474490.094                    20474498.500
 117782090.023 7  91778284.788 7  22413182.883                    22413192.020
 113623022.792 8  88537486.685 7  21621744.172                    21621755.770
 122769705.633 6  95664817.44144  23362295.125                    23362306.102
 114647714.423 8  89335976.57145  21816738.438                    21816748.781
 114283847.376 7  89052538.81245  21747459.188                    21747466.191
 11  8 25  2  3 30.0000000  0  9G10G15G12G05G29G25G26G30G02
 125950371.661 6  98143285.60943  23967525.188                    23967536.219
 127423420.442 6  99291075.787 6  24247870.672                    24247884.039
 113791100.681 7  88668460.776 7  21653724.500                    21653733.891
 107629001.841 8  83866861.912 8  20481079.648                    20481087.402
 117701259.546 7  91715300.061 7  22397801.141                    22397810.512
 113631531.518 8  88544116.844 7  21623363.320                    21623374.832
 122677107.396 6  95592663.11044  23344673.727                    23344685.367
 114664751.430 8  89349252.15645  21819981.008                    21819991.137
 114322463.739 8  89082629.47845  21754807.508                    21754814.102
 11  8 25  2  4  0.0000000  0  9G10G15G12G05G29G25G26G30G02
 126057244.168 6  98226562.85243  23987863.016                    23987873.035
 127328390.991 7  99217027.191 6  24229786.453                    24229800.457
 113858822.845 7  88721231.283 7  21666611.297                    21666620.813
 107664114.232 8  83894222.223 8  20487760.891                    20487769.453
 117620529.863 7  91652393.872 7  22382438.852                    22382448.023
 113640605.062 8  88551187.105 7  21625090.094                    21625101.531
 122584634.872 7  95520606.71744  23327077.039                    23327088.734
 114682354.716 8  89362968.99945  21823330.844                    21823340.563
 114361161.193 7  89112783.32945  21762171.328                    21762178.586
 11  8 25  2  4 30.0000000  0  9G10G15G12G05G29G25G26G30G02
 126164224.224 6  98309923.92843  24008220.297                    24008230.473
 127233282.108 7  99142916.671 6  24211688.328                    24211701.551
 113926934.500 7  88774305.285 7  21679573.102                    21679582.086
 107699710.223 8  83921959.364 8  20494534.578                    20494543.258
 117539902.988 7  91589567.778 7  22367096.336                    22367105.477
 113650242.441 8  88558696.715 7  21626923.945                    21626935.199
 122492291.598 7  95448651.02044  23309504.570                    23309515.801
 114700522.740 8  89377125.87745  21826788.477                    21826797.926
 114399939.430 7  89143000.11645  21769550.781                    21769557.941
 11  8 25  2  5  0.0000000  0  9G10G15G12G05G29G25G26G30G02
 126271308.959 6  98393366.56143  24028598.133                    24028607.992
 127138096.144 7  99068746.086 6  24193574.508                    24193587.918
 113995432.778 7  88827680.555 7  21692607.602                    21692617.313
 107735787.621 8  83950071.638 8  20501400.063                    20501408.188
 117459380.848 7  91526823.301 7  22351773.297                    22351782.648
 113660442.640 8  88566644.890 7  21628865.078                    21628876.746
 122400080.947 6  95376798.67644  23291957.656                    23291968.371
 114719254.013 8  89391721.66245  21830352.508                    21830362.570
 114438798.346 7  89173279.78345  21776945.297                    21776952.172
 11  8 25  2  5 30.0000000  0  9G10G15G12G05G29G25G26G30G02
 126378495.729 7  98476888.70943  24048994.766                    24049005.383
 127042835.520 7  98994517.337 6  24175446.555                    24175460.012
 114064314.606 7  88881354.697 7  21705715.688                    21705724.945
 107772344.330 7  83978557.407 8  20508356.664                    20508365.023
 117378965.531 7  91464162.068 7  22336470.617                    22336479.785
 113671204.704 8  88575030.883 7  21630912.820                    21630924.852
 122308006.512 6  95305052.46744  23274435.703                    23274447.316
 114738546.996 8  89406755.12945  21834024.133                    21834033.688
 114477737.923 7  89203622.30345  21784355.484                    21784362.910
 11  8 25  2  6  0.0000000  0  9G10G15G12G05G29G25G26G30G02
 126485782.297 6  98560488.61843  24069411.539                    24069421.070
 126947503.711 6  98920233.122 6  24157305.648                    24157318.883
 114133577.891 7  88935326.072 7  21718895.945                    21718904.984
 107809379.072 8  84007415.660 8  20515404.063                    20515412.391
 117298659.070 7  91401585.656 7  22321189.148                    22321198.324
 113682528.134 8  88583854.299 7  21633067.938                    21633079.773
 122216072.249 7  95233415.47344  23256941.367                    23256952.086
 114758400.651 8  89422225.47745  21837801.789                    21837811.742
 114516758.275 7  89234027.76445  21791781.023                    21791787.973
 11  8 25  2  6 30.0000000  0  9G10G15G12G05G29G25G26G30G02
 126593166.029 6  98644164.26543  24089845.055                    24089855.641
 126852103.039 6  98845895.231 6  24139150.242                    24139163.707
 114203219.849 8  88989592.513 7  21732148.508                    21732157.645
 107846889.720 8  84036644.747 8  20522542.383                    20522550.184
 117218463.590 7  91339095.717 7  22305928.227                    22305937.570
 113694411.872 8  88593114.331 7  21635329.164                    21635340.770
 122124281.637 7  95161890.43444  23239474.109                    23239485.188
 114778813.363 8  89438131.45845  21841686.367                    21841696.188
 114555859.565 7  89264496.29845  21799221.703                    21799228.555
 11  8 25  2  7  0.0000000  0  9G10G15G12G05G29G25G26G30G02
 126700644.137 6  98727913.43842  24110297.836                    24110307.461
 126756635.856 6  98771505.487 6  24120983.992                    24120997.453
 114273237.445 7  89044151.657 7  21745472.492                    21745481.477
 107884873.610 7  84066242.597 8  20529770.352                    20529778.805
 117138380.635 7  91276693.456 7  22290688.625                    22290697.781
 113706854.624 8  88602809.945 7  21637697.336                    21637708.559
 122032638.056 7  95090479.95944  23222034.758                    23222045.879
 114799783.344 8  89454471.66145  21845677.281                    21845687.055
 114595041.541 7  89295027.71445  21806677.523                    21806684.375
 11  8 25  2  7 30.0000000  0  9G10G15G12G05G29G25G26G30G02
 126808214.478 6  98811734.48442  24130767.305                    24130777.668
 126661105.348 6  98697066.401 6  24102804.414                    24102818.191
 114343628.298 7  89099001.650 7  21758867.602                    21758876.852
 107923329.429 8  84096208.177 8  20537088.070                    20537096.594
 117058412.637 7  91214380.776 7  22275471.641                    22275480.793
 113719855.574 8  88612940.529 7  21640171.195                    21640183.121
 121941145.223 7  95019186.95144  23204624.164                    23204635.324
 114821309.244 8  89471245.04945  21849773.078                    21849782.992
 114634304.359 7  89325622.11845  21814149.445                    21814156.188
 11  8 25  2  8  0.0000000  0  9G10G15G12G05G29G25G26G30G02
 126915874.494 6  98895625.37442  24151254.297                    24151264.555
 126565514.024 6  98622579.960 6  24084614.336                    24084627.379
 114414389.201 7  89154139.998 7  21772332.727                    21772341.676
 107962255.155 8  84126539.922 8  20544495.125                    20544503.621
 116978561.529 7  91152159.156 7  22260275.734                    22260285.867
 113733413.836 8  88623505.375 7  21642751.180                    21642762.699
 121849806.757 7  94948014.22344  23187243.672                    23187254.461
 114843389.610 8  89488450.49445  21853974.859                    21853985.141
 114673648.094 7  89356279.57745  21821636.313                    21821643.238
 11  8 25  2  8 30.0000000  0  9G10G15G12G05G29G25G26G30G02
 127023621.619 5  98979584.24142  24171758.016                    24171768.500
 126469864.644 6  98548048.246 6  24066412.602                    24066425.230
 114485517.534 7  89209564.647 7  21785868.094                    21785877.164
 108001648.725 8  84157236.226 8  20551991.617                    20552000.203
 116898829.499 7  91090030.347 7  22245103.727                    22245112.996
 113747528.178 8  88634503.543 7  21645436.656                    21645448.617
 121758626.449 7  94876964.73944  23169891.188                    23169903.480
 114866022.734 7  89506086.64545  21858281.734                    21858291.848
 114713072.376 7  89386999.80245  21829138.188                    21829144.961
 11  8 25  2  9  0.0000000  0  9G10G15G12G05G29G25G26G30G02
 127131453.279 5  99063608.84242  24192278.016                    24192287.898
 126374159.966 6  98473473.399 6  24048200.273                    24048213.125
 114557010.590 7  89265273.494 7  21799472.805                    21799482.063
 108041508.188 8  84188295.555 8  20559576.797                    20559584.996
 116819218.609 7  91027995.930 7  22229954.070                    22229963.539
 113762197.536 8  88645934.191 7  21648228.563                    21648239.875
 121667607.657 7  94806041.12544  23152571.703                    23152582.953
 114889206.992 8  89524152.25245  21862693.789                    21862704.066
 114752577.477 7  89417783.00545  21836655.898                    21836662.523
 11  8 25  2  9 30.0000000  0  9G10G15G12G05G29G25G26G30G02
 127239366.755 6  99147697.21943  24212813.367                    24212823.332
 126278402.191 7  98398857.159 6  24029978.234                    24029990.805
 114628864.876 7  89321263.828 7  21813146.313                    21813155.289
 108081830.620 8  84219715.646 8  20567249.797                    20567257.957
 116739730.354 7  90966057.052 7  22214828.055                    22214837.867
 113777420.345 8  88657796.106 7  21651125.664                    21651136.996
 121576753.569 7  94735245.85344  23135282.727                    23135293.922
 114912940.267 8  89542645.66845  21867210.195                    21867220.496
 114792163.025 7  89448628.88245  21844188.586                    21844195.402
 11  8 25  2 10  0.0000000  0  9G10G15G12G05G29G25G26G30G02
 127347359.878 6  99231847.68743  24233364.164                    24233374.328
 126182594.602 7  98324202.155 6  24011746.547                    24011759.133
 114701078.103 7  89377533.855 7  21826887.852                    21826896.738
 108122614.785 8  84251495.524 8  20575010.805                    20575019.270
 116660367.080 7  90904215.586 7  22199725.672                    22199735.469
 113793195.926 8  88670088.753 7  21654127.117                    21654138.895
 121486068.517 7  94664582.29044  23118025.203                    23118037.082
 114937221.457 8  89561566.02345  21871830.750                    21871840.813
 114831829.385 7  89479537.74545  21851736.906                    21851743.672
 11  8 25  2 10 30.0000000  0  9G10G15G12G05G29G25G26G30G02
 127455429.974 6  99316058.14443  24253928.805                    24253938.895
 126086739.857 7  98249510.411 6  23993506.203                    23993517.973
 114773647.864 7  89434081.692 7  21840697.500                    21840706.414
 108163858.510 8  84283633.496 8  20582859.234                    20582867.746
 116581131.244 7  90842473.410 7  22184647.195                    22184656.867
 113809523.118 8  88682811.231 7  21657234.281                    21657245.465
 121395555.881 7  94594053.06644  23100801.156                    23100812.625
 114962048.731 8  89580911.90745  21876555.602                    21876564.953
 114871576.429 7  89510509.48145  21859300.695                    21859307.711
 11  8 25  2 11  0.0000000  0  9G10G15G12G05G29G25G26G30G02
 127563574.346 6  99400326.47643  24274507.711                    24274517.738
 125990840.530 7  98174783.904 6  23975257.172                    23975269.230
 114846570.707 7  89490904.661 7  21854574.250                    21854583.652
 108205559.195 8  84316127.538 8  20590794.539                    20590803.113
 116502024.359 7  90780831.710 7  22169593.883                    22169603.383
 113826400.479 8  88695962.421 7  21660446.109                    21660457.828
 121305219.117 7  94523660.91244  23083610.719                    23083622.098
 114987420.307 8  89600681.92345  21881383.195                    21881393.168
 114911404.188 7  89541544.10045  21866879.320                    21866886.254
 11  8 25  2 11 30.0000000  0  9G10G15G12G05G29G25G26G30G02
 127671790.930 7  99484651.06843  24295101.141                    24295111.074
 125894899.626 7  98100024.988 6  23956999.273                    23957011.914
 114919843.940 7  89548000.663 7  21868517.633                    21868526.938
 108247715.463 8  84348976.590 8  20598816.852                    20598825.059
 116423048.743 7  90719292.309 7  22154565.078                    22154575.105
 113843827.113 8  88709541.607 7  21663762.125                    21663773.934
 121215062.231 7  94453408.91044  23066454.711                    23066465.383
 115013334.654 7  89620874.87845  21886314.367                    21886324.305
 114951313.139 7  89572641.98745  21874473.805                    21874480.922
 11  8 25  2 12  0.0000000  0  9G10G15G12G05G29G25G26G30G02
 127780077.110 7  99569029.89443  24315707.008                    24315716.813
 125798919.598 6  98025235.597 6  23938734.523                    23938746.926
 114993464.847 7  89605367.573 7  21882527.391                    21882536.379
 108290324.754 8  84382178.648 8  20606924.969                    20606933.195
 116344206.658 7  90657856.947 7  22139562.164                    22139571.367
 113861801.625 8  88723547.721 7  21667182.953                    21667194.063
 121125088.456 7  94383299.57044  23049332.938                    23049344.574
 115039789.898 7  89641489.32345  21891348.641                    21891358.941
 114991303.143 7  89603803.03745  21882083.469                    21882090.664
 11  8 25  2 12 30.0000000  0  9G10G15G12G05G29G25G26G30G02
 127888430.506 6  99653461.10443  24336325.813                    24336336.379
 125702903.306 7  97950417.957 6  23920463.430                    23920475.797
 115067430.708 7  89663003.275 7  21896602.047                    21896611.625
 108333385.192 8  84415732.248 8  20615119.008                    20615127.574
 116265500.240 7  90596527.308 7  22124584.680                    22124594.246
 113880322.889 8  88737979.877 7  21670707.203                    21670718.488
 121035301.752 7  94313336.03644  23032247.070                    23032258.121
 115066784.286 7  89662523.88645  21896485.695                    21896495.836
 115031374.134 7  89635027.19545  21889709.109                    21889715.781
 11  8 25  2 13  0.0000000  0  9G10G15G12G05G29G25G26G30G02
 127996848.718 6  99737942.81643  24356957.461                    24356967.230
 125606853.579 6  97875574.274 6  23902185.406                    23902197.891
 115141738.271 8  89720905.244 7  21910742.867                    21910752.055
 108376894.346 8  84449635.490 8  20623398.352                    20623406.777
 116186931.393 7  90535304.864 7  22109633.508                    22109642.922
 113899389.353 8  88752836.860 7  21674335.320                    21674346.734
 120945705.340 7  94243520.76844  23015197.266                    23015208.813
 115094315.865 7  89683977.04445  21901724.930                    21901735.000
 115071525.895 7  89666314.27745  21897349.391                    21897356.145
 11  8 25  2 13 30.0000000  0  9G10G15G12G05G29G25G26G30G02
 128105329.228 6  99822473.06443  24377601.320                    24377610.762
 125510773.430 6  97800706.872 6  23883901.070                    23883913.703
 115216384.881 7  89779071.412 7  21924947.383                    21924956.512
 108420850.477 8  84483887.028 8  20631762.805                    20631771.500
 116108502.287 7  90474191.306 7  22094709.023                    22094718.129
 113918999.937 8  88768117.833 7  21678067.242                    21678078.875
 120856303.479 7  94173857.10844  22998184.805                    22998195.801
 115122383.108 7  89705847.60645  21907065.766                    21907075.766
 115111758.923 7  89697664.69145  21905006.023                    21905012.488
 11  8 25  2 14  0.0000000  0  9G10G15G12G05G29G25G26G30G02
 128213869.942 6  99907050.21443  24398254.977                    24398265.105
 125414665.640 6  97725817.927 6  23865612.078                    23865624.879
 115291367.625 8  89837499.493 7  21939216.273                    21939225.887
 108465251.378 8  84518485.138 8  20640212.320                    20640220.938
 116030215.113 7  90413188.353 7  22079811.750                    22079820.617
 113939153.279 8  88783821.736 7  21681902.305                    21681913.629
 120767099.421 7  94104347.57244  22981209.594                    22981220.828
 115150984.016 7  89728134.01145  21912508.500                    21912518.535
 115152073.311 7  89729078.50345  21912676.992                    21912683.945
 11  8 25  2 14 30.0000000  0  9G10G15G12G05G29G25G26G30G02
 128322468.284 5  99991672.30443  24418920.297                    24418930.996
 125318533.049 6  97650909.616 6  23847319.320                    23847331.359
 115366683.781 7  89896187.384 7  21953548.898                    21953557.445
 108510095.042 8  84553428.263 8  20648746.008                    20648754.348
 115952072.136 7  90352297.764 7  22064941.320                    22064950.863
 113959848.115 8  88799947.573 7  21685839.953                    21685852.086
 120678096.970 7  94034995.10944  22964273.266                    22964283.867
 115180116.758 7  89750834.83845  21918052.258                    21918062.242
 115192468.999 7  89760555.66445  21920364.234                    21920370.988
 11  8 25  2 15  0.0000000  0  9G10G15G12G05G29G25G26G30G02
 128431121.730 5 100076337.28942  24439597.313                    24439607.320
 125222378.266 7  97575984.023 6  23829021.359                    23829033.527
 115442330.864 8  89955133.127 7  21967943.555                    21967953.043
 108555379.105 8  84588714.553 7  20657363.102                    20657371.859
 115874075.558 7  90291521.256 7  22050098.898                    22050108.117
 113981083.030 8  88816494.255 7  21689881.070                    21689892.438
 120589299.824 7  93965802.63644  22947375.820                    22947385.590
 115209779.504 7  89773948.66145  21923696.867                    21923707.285
 115232946.390 8  89792096.48545  21928066.930                    21928073.668
 11  8 25  2 15 30.0000000  0  9G10G15G12G05G29G25G26G30G02
 128539827.829 5 100161043.25442  24460281.883                    24460293.605
 125126203.891 7  97501043.167 6  23810720.047                    23810732.230
 115518304.871 8  90014333.615 7  21982401.297                    21982410.344
 108601100.888 8  84624341.922 8  20666063.734                    20666071.820
 115796226.981 7  90230860.055 7  22035284.992                    22035294.512
 114002856.308 8  88833460.432 7  21694024.352                    21694036.063
 120500711.355 7  93896772.76444  22930517.328                    22930528.207
 115239970.041 7  89797473.74845  21929442.148                    21929452.113
 115273505.270 7  89823700.80945  21935784.977                    21935791.910
 11  8 25  2 16  0.0000000  0  9G10G15G12G05G29G25G26G30G02
 128648584.279 5 100245788.50942  24480977.984                    24480989.254
 125030012.927 6  97426089.355 6  23792414.914                    23792427.098
 115594603.003 8  90073786.681 7  21996920.156                    21996929.430
 108647258.556 8  84660308.948 8  20674847.094                    20674855.641
 115718529.023 7  90170316.237 7  22020499.680                    22020508.906
 114025166.641 8  88850845.102 7  21698270.031                    21698281.715
 120412335.179 7  93827908.31044  22913700.156                    22913710.934
 115270686.484 7  89821408.63645  21935286.945                    21935296.945
 115314145.677 7  89855368.65645  21943518.844                    21943525.238
 11  8 25  2 16 30.0000000  0  9G10G15G12G05G29G25G26G30G02
 128757388.943 5 100330571.38142  24501682.898                    24501694.449
 124933808.491 7  97351125.028 6  23774108.406                    23774119.852
 115671222.778 8  90133490.368 7  22011500.695                    22011509.578
 108693850.147 8  84696614.095 7  20683713.289                    20683721.492
 115640983.734 7  90109891.366 7  22005742.938                    22005752.227
 114048012.764 8  88868647.249 7  21702617.461                    21702628.949
 120324175.238 7  93759212.36544  22896923.531                    22896934.453
 115301927.044 7  89845751.92445  21941231.773                    21941241.988
 115354867.860 7  89887100.22445  21951267.430                    21951274.555
 11  8 25  2 17  0.0000000  0  9G10G15G12G05G29G25G26G30G02
 128866239.193 5 100415389.79642  24522396.430                    24522407.984
 124837593.341 7  97276152.391 6  23755798.508                    23755810.664
 115748161.592 8  90193442.661 7  22026141.500                    22026150.668
 108740873.382 8  84733255.586 8  20692661.164                    20692669.340
 115563593.456 7  90049587.274 7  21991015.961                    21991025.258
 114071393.341 8  88886865.864 7  21707066.523                    21707078.469
 120236235.411 7  93690687.93544  22880188.977                    22880199.523
 115333689.895 7  89870502.18845  21947276.453                    21947286.453
 115395672.138 7  89918895.75345  21959032.570                    21959039.195
 11  8 25  2 17 30.0000000  0  9G10G15G12G05G29G25G26G30G02
 128975132.621 6 100500013.82552  24543118.719                    24543129.617
 124741369.946 7  97201173.337 6  23737488.422                    23737500.496
 115825416.209 8  90253641.034 7  22040842.273                    22040851.754
 108788325.737 8  84770231.454 7  20701691.266                    20701699.309
 115486360.337 8  89989405.654 7  21976318.992                    21976328.297
 114095306.518 8  88905499.492 7  21711617.047                    21711628.992
 120148519.074 7  93622337.65244  22863496.867                    22863507.789
 115365972.813 7  89895657.68445  21953419.297                    21953429.535
 115436558.349 7  89950755.13245  21966812.820                    21966819.430
 11  8 25  2 18  0.0000000  0  9G10G15G12G05G29G25G26G30G02
 129084067.076 6 100584897.81243  24563848.258                    24563858.719
 124645141.736 6  97126190.518 6  23719176.305                    23719188.469
 115902983.463 8  90314083.015 7  22055603.141                    22055612.523
 108836205.214 8  84807540.143 7  20710802.336                    20710810.527
 115409286.448 8  89929348.101 7  21961652.461                    21961662.066
 114119750.928 8  88924547.052 7  21716268.828                    21716280.340
 120061029.730 7  93554164.23744  22846848.492                    22846859.180
 115398773.707 7  89921216.81245  21959661.406                    21959671.258
 115477526.602 7  89982678.43945  21974608.922                    21974615.215
 11  8 25  2 18 30.0000000  0  9G10G15G12G05G29G25G26G30G02
 129193040.529 6 100669812.20043  24584585.227                    24584595.738
 124548911.647 6  97051206.238 6  23700864.109                    23700875.723
 115980861.221 7  90374766.952 7  22070422.750                    22070432.297
 108884510.086 8  84845180.315 7  20719994.352                    20720002.586
 115332374.217 8  89869416.513 7  21947016.852                    21947025.789
 114144725.432 8  88944007.682 7  21721021.539                    21721033.395
 119973771.721 7  93486171.07044  22830243.547                    22830254.078
 115432091.070 7  89947178.36745  21966001.133                    21966011.578
 115518577.628 7  90014666.25345  21982420.586                    21982427.715
 11  8 25  2 19  0.0000000  0  9G21G15G12G05G29G25G26G30G02
 132359598.44416                  25187199.188
 124452682.891 7  96976223.035 6  23682551.438                    23682563.570
 116059046.579 7  90435690.565 7  22085300.398                    22085310.281
 108933238.193 8  84883150.275 7  20729267.188                    20729275.566
 115255626.183 8  89809612.872 7  21932411.953                    21932421.023
 114170228.778 8  88963880.396 7  21725874.383                    21725886.074
 119886748.799 7  93418361.07744  22813683.102                    22813694.582
 115465923.119 7  89973540.98245  21972439.203                    21972449.316
 115559711.942 7  90046718.95645  21990248.492                    21990255.180
 11  8 25  2 19 30.0000000  0  9G21G15G12G05G29G25G26G30G02
 132304032.677 6 103094108.77753  25176625.484                    25176635.691
 124356457.928 6  96901242.754 6  23664240.703                    23664252.770
 116137535.947 7  90496851.081 7  22100237.016                    22100246.148
 108982386.997 8  84921448.046 7  20738620.266                    20738628.449
 115179044.353 7  89749938.742 7  21917838.430                    21917848.184
 114196258.931 8  88984163.614 7  21730827.555                    21730839.266
 119799964.493 7  93350737.03244  22797168.805                    22797179.625
 115500267.332 7  90000302.67345  21978975.258                    21978984.977
 115600929.054 7  90078836.17845  21998091.648                    21998098.625
 11  8 25  2 20  0.0000000  0  9G21G15G12G05G29G25G26G30G02
 132248472.398 6 103050815.08542  25166052.641                    25166062.902
 124260239.905 7  96826267.876 6  23645930.852                    23645943.109
 116216326.630 7  90558246.386 7  22115230.313                    22115239.598
 109031954.379 8  84960071.983 7  20748052.383                    20748060.512
 115102630.982 8  89690395.865 7  21903297.695                    21903307.039
 114222814.429 8  89004856.183 7  21735880.914                    21735892.840
 119713422.376 7  93283301.72644  22780700.008                    22780710.910
 115535121.644 7  90027461.85045  21985607.438                    21985617.758
 115642229.536 7  90111018.37045  22005950.711                    22005957.977
 11  8 25  2 20 30.0000000  0  9G21G15G12G05G29G25G26G30G02
 132192916.398 6 103007524.78542  25155480.031                    25155491.160
 124164030.612 7  96751299.799 6  23627623.078                    23627633.715
 116295414.893 8  90619873.568 7  22130280.789                    22130289.883
 109081936.813 8  84999019.343 7  20757563.313                    20757571.754
 115026387.454 8  89630985.341 7  21888789.000                    21888798.477
 114249892.687 8  89025956.106 7  21741033.828                    21741046.082
 119627125.405 7  93216057.43444  22764278.805                    22764289.508
 115570483.149 7  90055016.24245  21992336.797                    21992346.734
 115683612.402 7  90143264.75145  22013825.578                    22013832.918
 11  8 25  2 21  0.0000000  0  9G21G15G12G05G29G25G26G30G02
 132137364.480 6 102964237.62342  25144909.133                    25144919.656
 124067833.778 7  96676341.434 6  23609317.320                    23609328.609
 116374798.325 7  90681730.755 7  22145386.766                    22145396.211
 109132333.153 8  85038289.221 7  20767153.664                    20767161.945
 114950316.504 8  89571709.291 7  21874313.266                    21874322.688
 114277492.831 8  89047462.680 7  21746285.852                    21746297.895
 119541077.703 7  93149007.36544  22747904.516                    22747915.402
 115606350.288 7  90082964.62445  21999162.258                    21999171.488
 115725078.391 8  90175575.90945  22021716.930                    22021723.738
 11  8 25  2 21 30.0000000  0  9G21G15G12G05G29G25G26G30G02
 132081815.491 6 102920952.72042  25134338.422                    25134349.137
 123971651.839 7  96601394.673 6  23591013.914                    23591025.504
 116454474.022 7  90743815.692 7  22160548.281                    22160557.746
 109183140.455 8  85077879.331 7  20776822.219                    20776830.230
 114874420.108 8  89512569.272 7  21859870.844                    21859879.898
 114305612.769 8  89069374.312 7  21751637.039                    21751649.047
 119455282.688 7  93082154.19945  22731578.414                    22731588.797
 115642720.742 7  90111305.20645  22006082.742                    22006093.438
 115766627.712 8  90207951.98745  22029623.031                    22029630.461
 11  8 25  2 22  0.0000000  0  9G21G15G12G05G29G25G26G30G02
 132026268.825 6 102877669.69842  25123767.875                    25123778.586
 123875487.594 7  96526461.690 6  23572714.688                    23572726.160
 116534437.969 7  90806125.226 7  22175765.109                    22175774.270
 109234355.940 8  85117787.503 7  20786567.867                    20786576.305
 114798700.227 8  89453566.788 7  21845461.531                    21845470.965
 114334250.496 8  89091689.418 7  21757086.602                    21757098.223
 119369743.673 7  93015500.51045  22715300.313                    22715311.262
 115679591.908 7  90140035.95545  22013099.641                    22013109.207
 115808260.006 7  90240392.73745  22037545.508                    22037552.863
 11  8 25  2 22 30.0000000  0  9G21G15G12G05G29G25G26G30G02
 131970724.399 6 102834388.40942  25113198.211                    25113209.262
 123779344.672 6  96451545.304 6  23554419.172                    23554430.473
 116614688.457 7  90868658.037 7  22191036.508                    22191045.445
 109285978.797 8  85158013.116 7  20796391.563                    20796399.781
 114723159.894 8  89394704.219 7  21831086.547                    21831095.895
 114363405.111 8  89114407.290 7  21762634.641                    21762646.473
 119284465.301 7  92949049.90144  22699072.461                    22699082.910
 115716962.370 7  90169155.76145  22020210.578                    22020220.785
 115849976.318 7  90272898.95345  22045483.945                    22045491.047
 11  8 25  2 23  0.0000000  0  9G21G15G12G05G29G25G26G30G02
 131915181.061 6 102791107.91543  25102629.250                    25102640.270
 123683225.552 6  96376647.524 6  23536127.773                    23536139.602
 116695221.940 7  90931411.382 7  22206361.688                    22206370.496
 109338005.655 8  85198553.527 7  20806291.945                    20806300.176
 114647800.978 8  89335983.031 7  21816746.266                    21816755.504
 114393074.410 8  89137526.222 7  21768280.602                    21768292.184
 119199450.690 7  92882804.85044  22682894.648                    22682905.488
 115754829.334 7  90198662.46545  22027416.570                    22027426.758
 115891776.403 7  90305470.45545  22053438.016                    22053445.219
 11  8 25  2 23 30.0000000  0  9G21G15G12G05G29G25G26G30G02
 131859638.752 6 102747828.27943  25092059.930                    25092070.219
 123587133.332 7  96301770.695 6  23517841.453                    23517853.398
 116776035.952 8  90994383.317 7  22221739.625                    22221748.711
 109390434.844 8  85239407.449 7  20816268.555                    20816276.805
 114572625.770 8  89277404.988 7  21802440.969                    21802450.199
 114423256.907 8  89161045.046 7  21774024.445                    21774035.895
 119114703.881 7  92816768.45344  22666768.328                    22666778.145
 115793190.979 7  90228554.62245  22034717.070                    22034726.953
 115933660.814 7  90338107.65845  22061408.148                    22061415.398
 11  8 25  2 24  0.0000000  0  9G21G15G12G05G29G25G26G30G02
 131804096.304 6 102704548.43343  25081489.930                    25081500.574
 123491070.704 7  96226916.885 6  23499562.391                    23499573.578
 116857126.260 7  91057570.546 7  22237170.805                    22237180.098
 109443263.015 8  85280572.263 7  20826321.539                    20826329.996
 114497636.049 8  89218971.483 7  21788171.016                    21788180.203
 114453950.160 8  89184961.863 7  21779865.000                    21779876.609
 119030227.867 7  92750943.08345  22650692.984                    22650702.734
 115832044.344 7  90258829.95245  22042110.242                    22042120.125
 115975628.870 7  90370810.02245  22069394.695                    22069402.113
 11  8 25  2 24 30.0000000  0  9G21G15G12G05G29G25G26G30G02
 131748553.189 6 102661268.09743  25070920.891                    25070931.180
 123395040.234 7  96152088.152 6  23481287.773                    23481298.992
 116938490.159 7  91120970.949 7  22252653.945                    22252663.367
 109496488.054 8  85322046.312 7  20836450.242                    20836458.418
 114422834.336 8  89160684.492 7  21773936.531                    21773945.609
 114485152.510 8  89209275.383 7  21785802.711                    21785814.531
 118946026.438 7  92685331.64845  22634669.789                    22634679.695
 115871387.448 7  90289486.91145  22049597.031                    22049607.211
 116017681.206 7  90403578.06845  22077397.266                    22077403.828
 11  8 25  2 25  0.0000000  0  9G21G15G12G05G29G25G26G30G02
 131693009.406 6 102617987.24643  25060351.297                    25060361.641
 123299045.541 7  96077287.287 6  23463020.141                    23463031.605
 117020125.158 7  91184582.601 7  22268188.617                    22268197.996
 109550108.282 8  85363828.309 7  20846653.555                    20846661.801
 114348223.205 8  89102545.999 7  21759738.531                    21759747.676
 114516862.657 8  89233984.582 7  21791837.094                    21791848.313
 118862103.616 7  92619937.33144  22618699.445                    22618709.758
 115911218.299 8  90320523.92545  22057176.508                    22057186.605
 116059818.139 7  90436412.03745  22085415.594                    22085422.289
 11  8 25  2 25 30.0000000  0  9G21G15G12G05G29G25G26G30G02
 131637463.683 6 102574704.88543  25049781.656                    25049791.523
 123203089.193 7  96002516.291 6  23444760.578                    23444771.738
 117102027.969 7  91248402.948 7  22283774.117                    22283783.480
 109604120.701 8  85405915.910 7  20856931.789                    20856940.121
 114273804.608 8  89044557.541 7  21745577.297                    21745586.234
 114549078.339 8  89259087.717 7  21797967.352                    21797979.207
 118778462.897 7  92554762.83144  22602783.555                    22602793.563
 115951534.163 7  90351938.87645  22064848.641                    22064858.305
 116102039.926 7  90469312.12145  22093449.719                    22093456.910
 11  8 25  2 26  0.0000000  0  9G21G15G12G05G29G25G26G30G02
 131581915.634 6 102531420.70843  25039210.891                    25039221.004
 123107174.656 7  95927777.869 6  23426508.352                    23426519.293
 117184195.559 7  91312429.609 7  22299410.195                    22299419.484
 109658523.345 8  85448307.585 7  20867284.430                    20867292.637
 114199580.946 8  88986720.974 7  21731452.281                    21731461.742
 114581797.676 8  89284583.301 7  21804193.492                    21804205.090
 118695107.667 7  92489810.79344  22586920.836                    22586931.418
 115992332.870 7  90383730.06745  22072612.492                    22072622.379
 116144346.847 7  90502278.55345  22101500.539                    22101508.020
 11  8 25  2 26 30.0000000  0  9G21G15G12G05G29G25G26G30G02
 131526364.998 6 102488134.50943  25028639.422                    25028650.297
 123011304.608 7  95853074.094 6  23408265.055                    23408275.645
 117266625.389 7  91376660.620 7  22315096.125                    22315105.473
 109713314.100 8  85491001.682 7  20877710.570                    20877718.984
 114125554.792 8  88929038.316 7  21717366.063                    21717375.285
 114615019.236 8  89310470.228 7  21810515.320                    21810526.660
 118612042.243 7  92425084.57144  22571115.047                    22571124.414
 116033612.415 7  90415895.93445  22080467.422                    22080477.402
 116186739.361 7  90535311.67845  22109567.641                    22109574.469
 11  8 25  2 27  0.0000000  0  9G21G15G12G05G29G25G26G30G02
 131470811.168 6 102444845.85843  25018068.211                    25018079.012
 122915482.065 7  95778407.355 6  23390030.281                    23390040.699
 117349314.148 7  91441093.390 7  22330830.758                    22330840.371
 109768490.411 8  85533996.204 8  20888210.641                    20888218.984
 114051728.364 8  88871511.290 7  21703317.242                    21703326.348
 114648740.971 8  89336746.897 7  21816932.258                    21816944.313
 118529270.295 7  92360587.03145  22555362.617                    22555373.156
 116075370.226 8  90448434.49145  22088413.617                    22088423.969
 116229217.242 8  90568411.32645  22117651.156                    22117658.277
 11  8 25  2 27 30.0000000  0  9G21G15G12G05G29G25G26G30G02
 131415253.528 6 102401554.21242  25007495.586                    25007506.070
 122819710.101 7  95703780.021 6  23371804.789                    23371815.441
 117432258.765 7  91505725.530 7  22346614.891                    22346623.992
 109824050.015 8  85577289.411 7  20898782.570                    20898790.961
 113978103.897 8  88814141.627 7  21689307.078                    21689316.039
 114682960.883 8  89363411.763 7  21823444.031                    21823455.637
 118446795.049 7  92296320.68245  22539668.773                    22539678.734
 116117604.009 7  90481343.92945  22096450.656                    22096460.555
 116271781.241 8  90601578.07945  22125750.797                    22125757.992
 11  8 25  2 28  0.0000000  0  9G21G15G12G05G29G25G26G30G02
 131359691.035 6 102358258.77042  24996922.359                    24996932.824
 122723991.675 7  95629194.396 6  23353590.398                    23353600.887
 117515456.214 7  91570554.685 7  22362447.000                    22362456.355
 109879990.275 8  85620879.217 7  20909427.891                    20909436.469
 113904683.850 8  88756931.248 7  21675335.531                    21675344.410
 114717676.919 8  89390463.205 7  21830050.383                    21830062.629
 118364620.531 7  92232288.67545  22524031.555                    22524041.934
 116160311.155 7  90514622.21745  22104577.453                    22104587.602
 116314431.428 7  90634811.98545  22133866.898                    22133873.723
 11  8 25  2 28 30.0000000  0  9G21G15G12G05G29G25G26G30G02
 131304123.614 5 102314959.57642  24986348.172                    24986359.414
 122628329.549 7  95554652.649 6  23335386.430                    23335397.480
 117598903.478 7  91635578.490 7  22378326.133                    22378335.578
 109936308.817 8  85664763.797 7  20920145.156                    20920153.730
 113831469.999 8  88699881.540 7  21661403.188                    21661412.176
 114752887.144 8  89417899.741 7  21836750.750                    21836762.531
 118282750.120 7  92168493.62245  22508451.625                    22508462.004
 116203489.237 7  90548267.47245  22112794.023                    22112804.305
 116357168.044 7  90668113.25045  22141999.117                    22142006.020
 11  8 25  2 29  0.0000000  0  9G21G15G12G05G29G25G26G30G02
 131248550.548 5 102271655.99842  24975772.805                    24975784.133
 122532726.850 7  95480157.204 6  23317193.695                    23317204.770
 117682597.225 7  91700794.366 7  22394252.813                    22394262.512
 109993003.158 8  85708941.206 7  20930933.438                    20930941.910
 113758464.700 8  88642994.330 7  21647510.672                    21647519.801
 114788589.504 8  89445719.742 7  21843544.828                    21843556.016
 118201187.466 7  92104938.40045  22492930.688                    22492940.863
 116247135.851 7  90582277.81945  22121099.703                    22121109.613
 116399991.191 7  90701481.94945  22150148.109                    22150154.922
 11  8 25  2 29 30.0000000  0  9G21G15G12G05G29G25G26G30G02
 131192971.248 5                  24965196.172
 122437186.452 7  95405710.301 6  23299013.039                    23299023.336
 117766534.611 7  91766200.090 7  22410225.109                    22410235.242
 110050071.261 8  85753409.858 7  20941793.414                    20941801.641
 113685671.015 8  88586272.024 7  21633658.867                    21633667.992
 114824782.168 8  89473921.803 7  21850432.219                    21850443.453
 118119936.473 7  92041626.01345  22477469.531                    22477479.191
 116291248.695 7  90616651.45045  22129494.219                    22129504.613
 116442901.224 7  90734918.33845  22158313.555                    22158320.160
 11  8 25  2 30  0.0000000  0  9G21G15G12G05G29G25G26G30G02
 131137385.081 6                  24954618.445
 122341711.715 7  95331314.571 6  23280844.109                    23280855.223
 117850712.869 7  91831793.503 7  22426244.406                    22426253.914
 110107510.226 8  85798167.488 7  20952723.531                    20952731.895
 113613090.679 8  88529715.953 7  21619847.219                    21619855.926
 114861462.876 8  89502504.164 7  21857411.789                    21857423.781
 118039000.494 7  91978559.09445  22462067.734                    22462077.406
 116335824.952 7  90651386.20345  22137976.602                    22137986.691
 116485898.419 7  90768422.65145  22166495.664                    22166502.574
 11  8 25  2 30 30.0000000  0  9G21G15G12G05G29G25G26G30G02
 131081791.719 6 102141707.19252  24944039.570                    24944048.355
 122246305.776 7  95256972.445 6  23262689.469                    23262699.961
 117935129.030 7  91897572.299 7  22442307.914                    22442317.469
 110165318.413 8  85843212.828 7  20963724.383                    20963732.707
 113540726.069 8  88473327.983 7  21606076.539                    21606085.504
 114898629.973 8  89531465.525 7  21864484.945                    21864496.328
 117958383.550 7  91915740.76945  22446726.828                    22446736.750
 116380862.636 7  90686480.48445  22146547.234                    22146557.656
 116528983.314 7  90801995.30345  22174694.406                    22174701.098
 11  8 25  2 31  0.0000000  0  9G21G15G12G05G29G25G26G30G02
 131026190.035 6 102098381.29643  24933458.859                    24933469.297
 122150971.242 7  95182685.965 6  23244547.617                    23244558.406
 118019779.248 7  91963533.474 7  22458416.797                    22458426.207
 110223492.470 8  85888543.254 7  20974794.320                    20974802.664
 113468579.279 8  88417109.734 7  21592347.070                    21592356.184
 114936280.779 8  89560803.796 7  21871649.508                    21871660.941
 117878088.742 7  91853173.46045  22431446.867                    22431456.383
 116426358.564 7  90721931.83845  22155204.602                    22155214.535
 116572155.610 7  90835636.05745  22182909.891                    22182916.543
 11  8 25  2 31 30.0000000  0  9G21G15G12G05G29G25G26G30G02
 130970579.420 6 102055048.44843  24922876.461                    24922886.684
 122055710.836 7  95108457.265 6  23226419.648                    23226430.324
 118104660.240 7  92029674.474 7  22474569.016                    22474578.262
 110282029.949 8  85934156.879 7  20985934.031                    20985942.336
 113396652.822 8  88361063.180 7  21578660.336                    21578669.449
 114974413.176 8  89590517.332 7  21878905.734                    21878917.621
 117798119.680 7  91790859.97645  22416229.008                    22416239.160
 116472310.177 7  90757738.28045  22163948.648                    22163958.988
 116615415.748 7  90869345.26945  22191141.516                    22191148.832
 11  8 25  2 32  0.0000000  0  9G21G15G12G05G29G25G26G30G02
 130914959.698 6 102011708.50543  24912292.805                    24912303.086
 121960528.232 7  95034289.185 6  23208306.891                    23208317.172
 118189769.842 7  92095993.619 7  22490765.125                    22490774.281
 110340929.073 8  85980052.302 7  20997141.945                    20997149.969
 113324949.215 8  88305190.271 7  21565015.375                    21565024.512
 115013025.470 8  89620604.812 7  21886253.672                    21886265.246
 117718480.306 7  91728803.40045  22401074.594                    22401084.313
 116518715.400 7  90793898.17445  22172779.656                    22172789.855
 116658764.254 7  90903123.32945  22199391.094                    22199397.805
 11  8 25  2 32 30.0000000  0  9G21G15G12G05G29G25G26G30G02
 130859330.438 6 101968361.17843  24901706.547                    24901717.336
 121865426.572 7  94960184.144 6  23190209.695                    23190220.523
 118275105.167 7  92162488.656 7  22507003.641                    22507013.180
 110400187.978 8  86026228.068 7  21008418.531                    21008426.961
 113253471.274 8  88249493.212 7  21551413.758                    21551422.836
 115052115.990 8  89651064.930 7  21893692.578                    21893703.867
 117639174.708 7  91667006.91445  22385983.047                    22385992.578
 116565572.156 7  90830409.90745  22181696.039                    22181706.496
 116702201.746 7  90936970.73745  22207656.945                    22207663.680
 11  8 25  2 33  0.0000000  0  9G21G15G12G05G29G25G26G30G02
 130803690.933 6 101925005.81843  24891118.547                    24891129.297
 121770408.300 7  94886144.082 6  23172128.680                    23172138.844
 118360662.596 7  92229156.750 7  22523284.953                    22523294.352
 110459803.204 8  86072681.495 7  21019762.727                    21019770.969
 113182220.749 8  88193973.356 7  21537855.023                    21537864.145
 115091681.971 8  89681895.552 7  21901221.234                    21901233.469
 117560206.016 7  91605472.93845  22370955.398                    22370965.336
 116612877.184 7  90867270.95445  22190698.305                    22190708.211
 116745727.990 7  90970887.28745  22215939.641                    22215946.520
 11  8 25  2 33 30.0000000  0  9G21G15G12G05G29G25G26G30G02
 130748040.399 6 101881641.88943  24880528.578                    24880539.383
 121675476.708 7  94812171.575 6  23154062.953                    23154073.469
 118446439.522 7  92295995.881 7  22539607.664                    22539616.969
 110519772.455 8  86119410.784 7  21031174.320                    21031182.883
 113111200.049 8  88138632.589 7  21524340.133                    21524349.324
 115131721.354 8  89713095.050 7  21908840.523                    21908852.199
 117481577.743 7  91544204.21145  22355993.023                    22356002.887
 116660627.942 7  90904479.29845  22199784.828                    22199794.777
 116789343.434 7  91004873.35145  22224239.664                    22224246.160
 11  8 25  2 34  0.0000000  0  9G21G15G12G05G29G25G26G30G02
 130692378.531 6 101838269.08743  24869935.641                    24869946.688
 121580635.404 7  94738269.411 6  23136015.430                    23136025.773
 118532432.746 7  92363003.552 7  22555971.633                    22555980.813
 110580093.911 8  86166414.512 7  21042653.367                    21042661.930
 113040411.794 8  88083472.942 7  21510869.617                    21510878.902
 115172232.267 8  89744661.979 7  21916549.523                    21916561.219
 117403294.054 7  91483204.00145  22341095.945                    22341106.074
 116708822.279 7  90942033.30645  22208955.648                    22208965.527
 116833048.715 7  91038929.41745  22232555.875                    22232563.227
 11  8 25  2 34 30.0000000  0  9G21G15G12G05G29G25G26G30G02
 130636704.668 6 101794887.02543  24859341.156                    24859351.723
 121485886.675 7  94664439.392 6  23117984.922                    23117996.102
 118618638.970 7  92430177.195 7  22572375.641                    22572385.395
 110640764.441 8  86213690.257 7  21054198.625                    21054206.676
 112969857.666 8  88028495.743 7  21497443.227                    21497452.594
 115213212.037 8  89776594.253 7  21924347.766                    21924359.516
 117325357.878 7  91422474.59545  22326265.203                    22326275.473
 116757457.014 7  90979930.46645  22218210.539                    22218220.730
 116876843.740 7  91073055.40745  22240889.891                    22240897.004
 11  8 25  2 35  0.0000000  0  9G21G15G12G05G29G25G26G30G02
 130581018.003 6 101751494.95243  24848744.172                    24848755.164
 121391233.706 7  94590683.993 6  23099972.953                    23099984.027
 118705054.594 7  92497514.026 7  22588820.672                    22588830.012
 110701781.640 8  86261236.134 7  21065809.633                    21065818.051
 112899540.343 8  87973703.062 7  21484062.508                    21484071.582
 115254658.389 8  89808890.098 7  21932234.844                    21932246.227
 117247772.916 7  91362018.84545  22311501.859                    22311511.051
 116806529.499 7  91018168.73745  22227548.703                    22227558.996
 116920728.892 7  91107251.61145  22249241.031                    22249248.160
 11  8 25  2 35 30.0000000  0  9G21G15G12G05G29G25G26G30G02
 130525318.411 6 101708092.79343  24838144.906                    24838156.070
 121296679.613 7  94517005.655 7  23081980.188                    23081990.320
 118791677.210 7  92565012.134 7  22605304.281                    22605313.512
 110763143.446 8  86309050.522 7  21077486.781                    21077495.098
 112829462.444 8  87919096.948 7  21470727.367                    21470736.336
 115296569.487 8  89841548.084 7  21940210.008                    21940222.266
 117170543.226 7  91301839.94545  22296804.844                    22296814.738
 116856037.452 7  91056746.33645  22236970.086                    22236980.391
 116964704.643 7  91141518.42945  22257609.375                    22257616.883
 11  8 25  2 36  0.0000000  0  9G21G15G12G05G29G25G26G30G02
 130469604.905 6 101664679.79543  24827543.570                    24827553.832
 121202227.356 7  94443406.665 6  23064005.906                    23064016.902
 118878503.359 7  92632668.849 7  22621826.445                    22621835.914
 110824846.924 8  86357131.174 7  21089228.008                    21089236.707
 112759625.929 8  87864678.912 7  21457437.516                    21457447.137
 115338942.613 8  89874566.085 7  21948273.539                    21948285.699
 117093671.762 7  91241940.16745  22282176.641                    22282186.598
 116905977.668 7  91095660.75545  22246473.609                    22246483.465
 117008771.070 7  91175855.90745  22265995.148                    22266001.793
 11  8 25  2 36 30.0000000  0  9G21G15G12G05G29G25G26G30G02
 130413877.096 6 101621255.62643  24816938.844                    24816948.691
 121107880.093 7  94369889.459 6  23046052.063                    23046063.035
 118965530.295 7  92700482.010 7  22638387.836                    22638396.789
 110886889.930 8  86405476.380 7  21101034.328                    21101043.012
 112690033.299 8  87810450.935 7  21444195.047                    21444203.613
 115381775.709 8  89907942.512 7  21956424.234                    21956436.363
 117017162.388 7  91182322.53545  22267617.016                    22267627.125
 116956347.855 7  91134910.22245  22256058.000                    22256068.563
 117052928.573 7  91210264.34345  22274397.797                    22274405.074
 11  8 25  2 37  0.0000000  0  9G21G15G12G05G29G25G26G30G02
 130358134.532 6 101577819.92443  24806331.422                    24806341.305
 121013640.688 7  94296456.292 6  23028119.469                    23028129.586
 119052754.895 7  92768449.194 7  22654985.438                    22654995.031
 110949269.797 8  86454084.079 7  21112904.828                    21112913.555
 112620686.914 8  87756414.825 7  21430998.750                    21431007.809
 115425066.466 8  89941675.560 7  21964662.250                    21964674.184
 116941018.625 7  91122989.80245  22253127.742                    22253137.453
 117007145.209 7  91174492.56045  22265725.203                    22265735.027
 117097177.459 8  91244743.98045  22282818.320                    22282824.910
 11  8 25  2 37 30.0000000  0  9G21G15G12G05G29G25G26G30G02
 130302376.576 6 101534372.29143  24795720.852                    24795730.516
 120919512.391 7  94223109.710 6  23010206.633                    23010217.016
 119140174.043 7  92836567.979 7  22671621.461                    22671630.438
 111011984.241 8  86502952.489 7  21124839.602                    21124847.832
 112551589.204 8  87702572.478 7  21417849.813                    21417858.555
 115468812.583 8  89975763.438 7  21972987.086                    21972998.930
 116865244.104 7  91063944.77244  22238707.914                    22238718.234
 117058367.081 7  91214405.68445  22275471.656                    22275481.977
 117141518.155 7  91279295.15745  22291256.180                    22291262.848
 11  8 25  2 38  0.0000000  0  9G21G15G12G05G29G25G26G30G02
 130246602.776 6 101490912.30843  24785107.273                    24785117.254
 120825498.540 7  94149852.300 6  22992316.766                    22992326.602
 119227784.740 7  92904836.013 7  22688292.477                    22688302.723
 111075031.120 8  86552079.942 7  21136836.859                    21136845.215
 112482742.670 8  87648925.865 7  21404748.602                    21404757.504
 115513011.917 8  90010204.471 7  21981397.727                    21981409.801
 116789842.610 7  91005190.42945  22224360.148                    22224369.574
 117110010.832 7  91254647.54245  22285299.094                    22285309.805
 117185951.219 8  91313918.31045  22299711.469                    22299718.344
 11  8 25  2 38 30.0000000  0  9G21G15G12G05G29G25G26G30G02
 130190812.537 6 101447439.50543  24774490.672                    24774500.340
 120731602.177 7  94076686.426 6  22974448.789                    22974459.254
 119315583.877 7  92973250.886 7  22705000.641                    22705010.047
 111138407.652 8  86601464.262 7  21148896.875                    21148905.324
 112414149.522 8  87595476.695 7  21391695.797                    21391705.395
 115557662.058 8  90044996.787 7  21989894.359                    21989906.441
 116714817.591 7  90946729.44145  22210082.750                    22210092.566
 117162073.696 7  91295215.99645  22295207.109                    22295216.781
 117230476.818 7  91348613.56745  22308184.797                    22308190.965
 11  8 25  2 39  0.0000000  0 10G21G15G12G05G29G25G26G30G02G18
 130135005.361 6 101403953.53943  24763870.570                    24763880.715
 120637825.881 7  94003614.105 6  22956603.859                    22956613.840
 119403568.126 7  93041809.998 7  22721743.406                    22721753.004
 111202110.991 8  86651103.228 7  21161019.336                    21161027.305
 112345812.251 8  87542226.910 7  21378691.656                    21378700.512
 115602760.478 8  90080138.407 7  21998476.719                    21998488.047
 116640172.420 7  90888564.43645  22195878.156                    22195888.102
 117214552.816 7  91336108.80945  22305193.250                    22305203.500
 117275095.143 8  91383381.07845  22316674.734                    22316682.172
 129773460.89316                  24695074.695
 11  8 25  2 39 30.0000000  0 10G21G15G12G05G29G25G26G30G02G18
 130079180.234 6 101360453.54843  24753247.258                    24753257.629
 120544172.824 7  93930637.835 6  22938782.234                    22938791.875
 119491734.399 7  93110510.949 7  22738520.930                    22738530.305
 111266138.687 8  86700994.949 7  21173203.070                    21173211.813
 112277732.802 8  87489178.015 7  21365736.391                    21365745.273
 115648304.467 8  90115627.215 7  22007143.180                    22007154.863
 116565910.149 7  90830697.79945  22181746.984                    22181756.379
 117267445.113 7  91377323.57245  22315258.250                    22315268.359
 117319806.558 7  91418221.12545  22325183.273                    22325190.512
 129684100.814 6 101052623.74953  24678070.039                    24678083.359
 11  8 25  2 40  0.0000000  0 10G21G15G12G05G29G25G26G30G02G18
 130023336.516 6 101316939.11943  24742620.188                    24742631.223
 120450645.901 7  93857759.846 6  22920984.016                    22920994.309
 119580079.264 7  93179351.059 7  22755332.133                    22755341.961
 111330488.141 8  86751137.391 7  21185448.398                    21185456.992
 112209913.415 8  87436331.779 7  21352831.055                    21352839.781
 115694291.666 8  90151461.383 7  22015894.125                    22015906.609
 116492034.763 7  90773132.61745  22167688.758                    22167698.242
 117320747.712 7  91418858.05345  22325401.586                    22325411.648
 117364611.075 7  91453133.72045  22333709.211                    22333716.098
 129594905.335 6 100983121.02142  24661096.250                    24661110.164
 11  8 25  2 40 30.0000000  0 10G21G15G12G05G29G25G26G30G02G18
 129967474.275 6 101273410.24543  24731990.891                    24732000.656
 120357248.702 7  93784982.924 6  22903211.242                    22903221.641
 119668600.251 7  93248328.414 6  22772177.375                    22772186.871
 111395157.451 8  86801529.076 7  21197754.922                    21197763.012
 112142356.747 8  87383690.249 7  21339975.438                    21339984.086
 115740720.141 8  90187639.400 7  22024729.297                    22024741.301
 116418549.923 7  90715871.76245  22153704.500                    22153714.559
 117374458.423 7  91460710.54645  22335622.281                    22335632.301
 117409509.772 7  91488119.71845  22342253.039                    22342260.066
 129505876.109 6 100913747.84643  24644155.563                    24644167.258
 11  8 25  2 41  0.0000000  0 10G21G15G12G05G29G25G26G30G02G18
 129911593.104 6 101229866.64343  24721356.359                    24721366.793
 120263984.353 7  93712309.534 7  22885463.359                    22885474.027
 119757294.203 7  93317440.560 6  22789055.602                    22789064.773
 111460144.397 8  86852168.256 7  21210121.125                    21210130.043
 112075065.723 8  87331255.724 7  21327170.117                    21327178.770
 115787587.533 8  90224159.435 7  22033647.836                    22033659.953
 116345459.261 7  90658918.05145  22139796.453                    22139806.176
 117428574.389 7  91502878.82545  22345919.938                    22345930.480
 117454502.995 7  91523179.36445  22350815.102                    22350822.543
 129417014.347 6 100844505.17642  24627244.148                    24627257.441
 11  8 25  2 41 30.0000000  0 10G21G15G12G05G29G25G26G30G02G18
 129855692.706 6 101186308.01943  24710718.805                    24710729.227
 120170856.195 7  93639742.265 6  22867741.484                    22867751.418
 119846158.488 7  93386685.430 6  22805965.766                    22805974.883
 111525446.549 8  86903053.042 7  21222547.945                    21222556.352
 112008042.752 8  87279030.069 7  21314416.023                    21314424.809
 115834891.609 8  90261019.748 7  22042649.734                    22042661.590
 116272766.586 7  90602274.47145  22125962.781                    22125973.199
 117483093.117 7  91545360.95045  22356294.992                    22356305.246
 117499591.148 7  91558312.99045  22359395.039                    22359402.254
 129328321.752 6 100775394.32942  24610366.711                    24610380.016
 11  8 25  2 42  0.0000000  0 10G21G15G12G05G29G25G26G30G02G18
 129799772.132 6 101142733.69543  24700077.508                    24700087.207
 120077867.109 7  93567283.342 6  22850046.164                    22850056.309
 119935189.842 7  93456060.500 6  22822907.992                    22822916.688
 111591060.868 8  86954181.090 7  21235033.742                    21235042.516
 111941289.987 8  87227014.968 7  21301713.281                    21301722.184
 115882629.543 8  90298218.119 7  22051733.586                    22051745.625
 116200474.942 7  90545943.38645  22112206.180                    22112216.426
 117538011.352 7  91588154.37145  22366745.141                    22366755.227
 117544774.463 7  91593520.77345  22367993.445                    22367999.727
 129239799.276 6 100706416.02642  24593521.250                    24593534.496
 11  8 25  2 42 30.0000000  0 10G21G15G12G05G29G25G26G30G02G18
 129743830.587 6 101099142.97443  24689431.852                    24689441.984
 119985019.700 7  93494934.814 6  22832377.992                    22832387.996
 120024384.441 7  93525562.754 6  22839880.906                    22839890.273
 111656984.815 8  87005550.412 7  21247578.930                    21247586.863
 111874809.418 8  87175211.958 7  21289062.422                    21289071.527
 115930798.732 8  90335752.536 7  22060900.461                    22060911.836
 116128587.827 7  90489927.51145  22098527.070                    22098536.547
 117593326.135 7  91631256.80245  22377271.734                    22377281.891
 117590053.196 7  91628802.88045  22376609.805                    22376616.516
 129151448.242 5 100637571.30942  24576708.891                    24576721.605
 11  8 25  2 43  0.0000000  0 10G21G15G12G05G29G25G26G30G02G18
 129687868.060 6 101055535.91643  24678782.586                    24678792.781
 119892318.090 7  93422699.900 6  22814737.656                    22814747.348
 120113739.849 7  93595190.322 6  22856884.742                    22856894.016
 111723216.589 8  87057159.590 7  21260182.078                    21260190.574
 111808604.126 8  87123623.449 7  21276464.055                    21276472.777
 115979397.094 8  90373621.372 7  22070148.039                    22070159.773
 116057108.964 7  90434229.75345  22084924.766                    22084934.348
 117649034.967 7  91674666.26545  22387872.531                    22387882.848
 117635428.107 7  91664159.92745  22385244.008                    22385251.176
 129063269.827 6 100568861.12843  24559927.813                    24559940.766
 11  8 25  2 43 30.0000000  0 10G21G15G12G05G29G25G26G30G02G18
 129631884.171 6 101011912.16343  24668128.734                    24668138.879
 119799764.911 7  93350580.641 6  22797125.070                    22797134.633
 120203253.140 7  93664940.893 6  22873918.188                    22873927.793
 111789753.521 8  87109006.555 7  21272843.805                    21272852.441
 111742676.557 8  87072251.344 7  21263918.547                    21263927.074
 116028422.080 8  90411822.648 7  22079477.344                    22079488.730
 115986041.870 7  90378852.84745  22071400.758                    22071410.906
 117705135.021 7  91718380.58445  22398548.094                    22398558.094
 117680899.455 7  91699592.15245  22393896.461                    22393903.684
 128975265.385 6 100500286.45943  24543181.953                    24543194.105
 11  8 25  2 44  0.0000000  0 10G21G15G12G05G29G25G26G30G02G18
 129575878.312 6 100968271.29843  24657471.555                    24657481.078
 119707362.848 7  93278579.137 6  22779541.469                    22779551.289
 120292921.052 7  93734811.953 6  22890982.078                    22890991.379
 111856592.797 8  87161089.104 7  21285562.820                    21285571.230
 111677028.359 8  87021096.929 7  21251425.656                    21251435.133
 116077870.888 8  90450354.161 7  22088887.094                    22088898.531
 115915389.541 7  90323799.14245  22057956.531                    22057965.625
 117761623.128 7  91762397.28845  22409297.000                    22409307.418
 117726467.153 7  91735099.45945  22402567.875                    22402574.914
 128887436.271 6 100431848.45443  24526467.828                    24526480.523
 11  8 25  2 44 30.0000000  0 10G21G15G12G05G29G25G26G30G02G18
 129519849.365 6 100924612.49542  24646810.000                    24646818.602
 119615115.481 7  93206698.193 6  22761987.398                    22761997.105
 120382740.616 7  93804801.178 6  22908073.836                    22908083.945
 111923732.182 8  87213405.505 7  21298339.047                    21298347.609
 111611662.148 8  86970162.240 7  21238987.570                    21238996.195
 116127741.220 8  90489214.143 7  22098376.945                    22098389.336
 115845155.831 7  90269071.62845  22044591.445                    22044601.125
 117818496.645 7  91806714.30045  22420119.656                    22420130.109
 117772132.363 7  91770682.73945  22411257.852                    22411264.500
 128799783.529 6 100363547.91443  24509787.469                    24509800.277
 11  8 25  2 45  0.0000000  0 10G21G15G12G05G29G25G26G30G02G18
 129463797.361 6 100880935.66542  24636142.414                    24636152.398
 119523026.024 7  93134940.275 6  22744462.992                    22744472.652
 120472708.542 7  93874906.007 7  22925193.672                    22925203.906
 111991169.092 8  87265953.746 7  21311171.977                    21311180.254
 111546580.662 8  86919449.419 7  21226602.383                    21226611.684
 116178030.654 8  90528400.703 7  22107947.102                    22107958.895
 115775344.415 7  90214673.18145  22031306.281                    22031316.508
 117875752.654 7  91851329.36345  22431015.461                    22431025.453
 117817895.191 7  91806342.08245  22419966.781                    22419973.820
 128712308.716 6 100295385.97643  24493142.156                    24493154.746
 11  8 25  2 45 30.0000000  0 10G21G15G12G05G29G25G26G30G02G18
 129407721.960 6 100837240.58442  24625471.828                    24625482.191
 119431097.232 7  93063307.570 7  22726969.625                    22726979.457
 120562821.819 7  93945124.100 7  22942342.602                    22942352.020
 112058901.359 8  87318732.138 7  21324060.891                    21324069.488
 111481786.399 8  86868960.404 7  21214272.352                    21214281.508
 116228736.541 8  90567911.755 7  22117596.008                    22117607.934
 115705958.500 7  90160606.29445  22018102.953                    22018112.594
 117933388.335 7  91896240.25045  22441983.227                    22441993.438
 117863756.025 7  91842077.79445  22428693.539                    22428700.730
 128625012.969 6 100227363.56143  24476530.734                    24476542.297
 11  8 25  2 46  0.0000000  0 10G21G15G12G05G29G25G26G30G02G18
 129351622.175 6 100793526.61642  24614796.203                    24614806.367
 119339332.437 7  92991802.640 7  22709507.297                    22709516.836
 120653077.328 7  94015453.031 6  22959516.836                    22959526.945
 112126926.099 8  87371738.429 7  21337005.539                    21337013.754
 111417281.428 8  86818696.815 7  21201997.773                    21202006.320
 116279856.027 8  90607745.096 7  22127323.609                    22127335.793
 115637001.256 7  90106873.42945  22004980.953                    22004990.758
 117991400.410 7  91941444.45945  22453022.805                    22453032.914
 117909715.381 7  91877890.27445  22437439.477                    22437446.344
 128537897.312 6 100159481.46543  24459952.555                    24459964.738
 11  8 25  2 46 30.0000000  0 10G21G15G12G05G29G25G26G30G02G18
 129295497.755 6 100749793.31243  24604116.703                    24604126.395
 119247734.382 7  92920427.635 7  22692076.430                    22692086.016
 120743471.925 7  94085890.329 6  22976718.648                    22976728.434
 112195240.753 8  87424970.618 7  21350005.836                    21350014.043
 111353067.668 8  86768660.132 7  21189778.094                    21189787.352
 116331386.495 8  90647898.681 7  22137129.664                    22137141.090
 115568476.077 7  90053477.24145  21991940.719                    21991950.441
 118049786.011 7  91986939.70045  22464133.094                    22464143.141
 117955773.212 7  91913779.48945  22446203.563                    22446210.703
 128450962.950 6 100091740.65543  24443408.969                    24443420.621
 11  8 25  2 47  0.0000000  0 10G21G15G12G05G29G25G26G30G02G18
 129239348.295 6 100706040.59143  24593431.555                    24593440.973
 119156306.761 7  92849185.443 7  22674678.211                    22674688.281
 120834002.792 7  94156433.819 6  22993946.289                    22993956.293
 112263843.126 8  87478427.011 7  21363059.938                    21363068.086
 111289148.428 7  86718852.956 7  21177614.602                    21177623.359
 116383325.618 8  90688370.697 7  22147012.820                    22147025.199
 115500386.526 7  90000420.50945  21978983.906                    21978993.684
 118108542.385 7  92032723.87145  22475314.219                    22475324.301
 118001930.180 7  91949745.95945  22454987.078                    22454993.734
 128364211.498 6 100024142.36043  24426900.508                    24426912.082
 11  8 25  2 47 30.0000000  0 10G21G15G12G05G29G25G26G30G02G18
 129183172.878 6 100662267.60843  24582742.141                    24582751.340
 119065052.137 7  92778078.059 7  22657313.484                    22657323.160
 120924666.505 7  94227080.832 6  23011199.164                    23011208.695
 112332730.422 8  87532105.428 7  21376169.117                    21376177.172
 111225525.365 7  86669276.552 7  21165507.781                    21165516.617
 116435670.498 8  90729158.899 7  22156974.359                    22156986.191
 115432735.885 7  89947705.79545  21966110.227                    21966119.816
 118167666.315 7  92078794.43645  22486565.070                    22486575.141
 118048186.735 7  91985790.02845  22463789.688                    22463795.848
 128277643.502 6  99956686.97943  24410426.820                    24410438.680
 11  8 25  2 48  0.0000000  0 10G21G15G12G05G29G25G26G30G02G18
 129126971.621 7 100618474.46943  24572047.414                    24572056.695
 118973974.194 7  92707108.339 7  22639981.570                    22639991.074
 121015460.394 7  94297829.290 6  23028477.273                    23028486.363
 112401900.759 8  87586004.383 7  21389331.508                    21389340.008
 111162201.471 8  86619933.276 7  21153457.383                    21153466.246
 116488418.965 8  90770261.577 7  22167011.875                    22167023.402
 115365527.619 7  89895335.77145  21953321.023                    21953330.746
 118227155.268 7  92125149.43345  22497885.336                    22497895.793
 118094543.314 7  92021912.03745  22472611.180                    22472617.750
 128191260.628 6  99889375.92443  24393989.164                    24394001.254
 11  8 25  2 48 30.0000000  0 10G21G15G12G05G29G25G26G30G02G18
 129070743.609 6 100574660.48043  24561347.484                    24561356.777
 118883075.159 7  92636278.017 6  22622684.141                    22622693.688
 121106380.822 7  94368676.343 6  23045778.273                    23045788.484
 112471350.937 8  87640121.398 7  21402547.523                    21402555.727
 111099178.162 7  86570824.232 7  21141464.688                    21141473.145
 116541567.825 8  90811676.235 7  22177125.914                    22177137.770
 115298764.901 7  89843312.93945  21940616.406                    21940625.367
 118287005.824 7  92171786.20745  22509274.586                    22509284.992
 118141000.036 7  92058112.06945  22481451.328                    22481458.211
 128105063.628 6  99822209.69242  24377585.805                    24377597.867
 11  8 25  2 49  0.0000000  0 10G21G15G12G05G29G25G26G30G02G18
 129014488.243 7 100530825.23043  24550642.109                    24550652.383
 118792358.667 7  92565589.946 6  22605421.164                    22605430.945
 121197425.115 7  94439619.896 6  23063103.109                    23063113.004
 112541078.736 8  87694454.742 7  21415815.844                    21415824.523
 111036458.239 7  86521951.577 7  21129529.336                    21129538.215
 116595114.556 8  90853400.944 7  22187315.406                    22187327.188
 115232451.159 7  89791639.95145  21927997.242                    21928006.453
 118347215.071 7  92218702.46645  22520732.242                    22520742.379
 118187557.641 7  92094390.72245  22490310.813                    22490317.781
 128019054.073 6  99755189.51843  24361218.406                    24361230.266
 11  8 25  2 49 30.0000000  0 10G21G15G12G05G29G25G26G30G02G18
 128958205.528 6 100486968.59743  24539931.969                    24539941.352
 118701827.794 7  92495046.491 7  22588193.625                    22588203.219
 121288590.065 7  94510657.477 6  23080451.648                    23080460.949
 112611081.850 8  87749002.623 7  21429137.414                    21429145.785
 110974044.670 7  86473317.647 7  21117652.063                    21117661.082
 116649056.669 8  90895433.740 7  22197580.266                    22197591.781
 115166589.812 7  89740319.48245  21915464.195                    21915473.359
 118407780.237 7  92265896.07345  22532256.898                    22532267.328
 118234216.727 7  92130748.45045  22499189.469                    22499196.223
 127933232.839 6  99688316.00542  24344887.070                    24344898.824
 11  8 25  2 50  0.0000000  0 10G21G15G12G05G29G25G26G30G02G18
 128901895.284 6 100443090.57943  24529216.625                    24529225.965
 118611486.167 7  92424650.499 7  22571002.391                    22571012.137
 121379873.158 7  94581787.108 6  23097822.094                    23097832.227
 112681358.195 8  87803763.409 7  21442510.523                    21442518.895
 110911940.274 8  86424924.637 7  21105834.039                    21105843.043
 116703391.854 8  90937772.827 7  22207920.133                    22207931.645
 115101184.630 7  89689354.46645  21903017.469                    21903027.445
 118468698.638 7  92313364.91945  22543849.867                    22543860.402
 118280977.778 7  92167185.63745  22508088.328                    22508094.645
 127847601.672 6  99621590.63942  24328591.672                    24328603.555
 11  8 25  2 50 30.0000000  0 10G21G15G12G05G29G25G26G30G02G18
 128845556.051 6 100399189.95743  24518494.664                    24518504.574
 118521336.156 7  92354403.843 7  22553846.906                    22553856.531
 121471270.701 7  94653005.932 6  23115214.508                    23115224.457
 112751904.490 8  87858734.548 7  21455935.125                    21455943.668
 110850145.727 7  86376773.070 7  21094075.313                    21094083.855
 116758116.591 7  90980415.457 7  22218333.648                    22218345.676
 115036238.015 7  89638746.76545  21890658.680                    21890668.246
 118529966.565 7  92361106.13445  22555508.422                    22555518.758
 118327840.693 7  92203702.19444  22517005.617                    22517012.289
 127762161.224 6  99555013.88942  24312333.000                    24312344.871
 11  8 25  2 51  0.0000000  0 10G21G15G12G05G29G25G26G30G02G18
 128789188.166 6 100355267.04743  24507768.516                    24507777.977
 118431381.726 7  92284309.574 7  22536729.102                    22536739.160
 121562780.074 7  94724311.879 7  23132628.508                    23132638.426
 112822718.609 8  87913914.381 7  21469410.641                    21469418.762
 110788664.550 8  86328865.699 7  21082375.461                    21082384.473
 116813228.812 8  91023360.033 7  22228821.516                    22228833.410
 114971754.023 7  89588499.56545  21878388.148                    21878397.113
 118591581.447 7  92409117.70645  22567233.898                    22567243.813
 118374806.286 7  92240298.75945  22525942.813                    22525949.344
 127676912.940 6  99488586.88943  24296109.789                    24296122.500
 11  8 25  2 51 30.0000000  0 10G21G15G12G05G29G25G26G30G02G18
 128732790.976 6 100311321.25743  24497036.578                    24497045.820
 118341625.089 7  92214369.420 7  22519648.609                    22519658.844
 121654398.071 7  94795702.486 7  23150062.813                    23150072.332
 112893798.163 8  87969301.038 7  21482936.391                    21482944.945
 110727498.911 7  86281204.194 7  21070736.266                    21070745.051
 116868725.599 8  91066604.252 7  22239381.750                    22239393.574
 114907735.584 7  89538615.12845  21866205.320                    21866214.934
 118653540.238 7  92457397.25145  22579023.445                    22579033.840
 118421875.082 7  92276975.74845  22534899.852                    22534906.926
 127591857.726 6  99422310.31743  24279925.172                    24279937.094
 11  8 25  2 52  0.0000000  0 10G21G15G12G05G29G25G26G30G02G18
 128676364.469 6 100267352.63843  24486298.508                    24486308.230
 118252070.119 7  92144586.421 7  22502607.102                    22502617.066
 121746122.184 7  94867175.768 7  23167517.359                    23167527.316
 112965141.096 8  88024892.929 7  21496512.781                    21496521.160
 110666651.783 8  86233790.878 7  21059157.133                    21059166.219
 116924604.560 8  91110146.278 7  22250015.516                    22250027.805
 114844186.563 7  89489096.47345  21854112.828                    21854122.051
 118715840.264 7  92505942.70045  22590879.102                    22590889.449
 118469047.422 7  92313733.41245  22543876.742                    22543883.320
 127506997.010 6  99356185.27243  24263776.625                    24263787.836
 11  8 25  2 52 30.0000000  0 10G21G15G12G05G29G25G26G30G02G18
 128619907.351 6 100223360.17543  24475554.883                    24475564.492
 118162719.920 7  92074962.967 7  22485604.578                    22485613.938
 121837948.345 7  94938728.572 7  23184991.727                    23185001.324
 113036744.403 8  88080687.711 7  21510138.367                    21510146.867
 110606125.025 8  86186627.211 7  21047639.305                    21047648.473
 116980862.619 7  91153983.716 7  22260720.789                    22260733.242
 114781109.602 7  89439945.64745  21842109.586                    21842119.125
 118778477.917 7  92554751.23345  22602798.859                    22602809.262
 118516323.761 7  92350572.10845  22552873.008                    22552879.852
 127422332.018 7  99290212.76943  24247666.094                    24247676.805
 11  8 25  2 53  0.0000000  0 10G21G15G12G05G29G25G26G30G02G18
 128563419.824 6 100179344.01343  24464806.031                    24464815.242
 118073576.980 7  92005500.998 7  22468641.023                    22468650.383
 121929873.817 7  95010358.763 7  23202484.469                    23202494.445
 113108605.408 8  88136683.292 7  21523813.125                    21523821.426
 110545920.876 7  86139714.924 7  21036182.867                    21036191.793
 117037496.782 7  91198114.202 7  22271497.945                    22271509.859
 114718507.565 7  89391164.89045  21830196.406                    21830205.832
 118841450.160 7  92603820.49345  22614782.461                    22614792.379
 118563704.345 7  92387492.05745  22561889.453                    22561896.063
 127337863.059 6  99224393.00343  24231591.219                    24231602.613
 11  8 25  2 53 30.0000000  0 10G21G15G12G05G29G25G26G30G02G18
 128506900.887 6 100135303.38143  24454050.930                    24454060.758
 117984644.798 7  91936203.261 7  22451717.695                    22451726.695
 122021895.654 7  95082064.069 6  23219995.492                    23220005.238
 113180722.117 8  88192878.129 7  21537536.375                    21537544.238
 110486041.767 7  86093055.921 7  21024788.102                    21024797.055
 117094504.515 7  91242535.802 7  22282345.984                    22282358.348
 114656384.390 7  89342757.26445  21818375.250                    21818384.254
 118904754.052 7  92653148.18145  22626828.727                    22626838.559
 118611189.982 7  92424493.84045  22570925.305                    22570932.074
 127253591.720 6  99158727.21243  24215554.563                    24215565.789
 11  8 25  2 54  0.0000000  0 10G21G15G12G05G29G25G26G30G02G18
 128450350.369 6 100091238.12044  24443289.734                    24443299.465
 117895926.366 7  91867072.090 7  22434835.109                    22434844.340
 122114010.966 7  95153842.167 6  23237524.031                    23237534.121
 113253091.845 8  88249270.125 7  21551307.953                    21551316.191
 110426489.967 8  86046651.958 7  21013455.836                    21013464.734
 117151882.998 7  91287246.298 7  22293265.336                    22293277.582
 114594743.080 7  89294725.12045  21806645.148                    21806654.391
 118968386.529 7  92702731.90345  22638937.117                    22638947.180
 118658780.804 7  92461577.58745  22579981.625                    22579988.582
 127169519.117 6  99093216.29243  24199556.031                    24199567.234
 11  8 25  2 54 30.0000000  0 10G21G15G12G05G29G25G26G30G02G18
 128393768.021 7 100047148.06644  24432522.422                    24432531.418
 117807425.306 7  91798110.295 7  22417994.016                    22418003.563
 122206217.064 7  95225691.028 6  23255070.648                    23255080.398
 113325712.356 8  88305857.540 7  21565126.852                    21565135.809
 110367268.746 7  86000505.584 7  21002186.508                    21002195.523
 117209629.823 7  91332243.798 7  22304253.664                    22304265.730
 114533587.001 7  89247071.08445  21795007.219                    21795016.203
 119032344.901 7  92752569.58244  22651108.141                    22651117.789
 118706477.691 7  92498743.98845  22589057.805                    22589065.180
 127085646.807 6  99027861.45843  24183594.813                    24183606.535
 11  8 25  2 55  0.0000000  0 10G21G15G12G05G29G25G26G30G02G18
 128337153.078 7 100003032.62044  24421748.977                    24421758.711
 117719144.068 7  91729319.781 7  22401194.711                    22401203.516
 122298510.582 6  95297607.998 6  23272633.570                    23272642.965
 113398581.053 8  88362638.342 7  21578993.742                    21579002.051
 110308379.254 7  85954617.700 7  20990980.406                    20990989.020
 117267741.647 7  91377525.731 7  22315312.313                    22315324.461
 114472919.143 7  89199797.48445  21783462.664                    21783471.668
 119096625.441 7  92802658.29045  22663340.523                    22663350.324
 118754280.576 7  92535992.98345  22598154.086                    22598161.465
 127001975.280 6  98962663.05443  24167673.516                    24167684.320
 11  8 25  2 55 30.0000000  0 10G21G15G12G05G29G25G26G30G02G18
 128280505.252 6  99958891.54644  24410968.773                    24410978.680
 117631085.722 7  91660702.972 7  22384437.250                    22384446.734
 122390888.194 6  95369590.512 6  23290212.609                    23290221.848
 113471695.274 8  88419610.464 7  21592906.445                    21592915.090
 110249824.084 8  85908990.329 7  20979837.508                    20979846.059
 117326215.797 7  91423089.990 7  22326439.352                    22326451.555
 114412742.267 7  89152906.44845  21772011.461                    21772020.539
 119161225.351 7  92852995.86345  22675633.633                    22675643.660
 118802190.119 7  92573325.08845  22607271.438                    22607278.660
 126918505.402 6  98897621.78843  24151789.008                    24151800.180
 11  8 25  2 56  0.0000000  0 10G21G15G12G05G29G25G26G30G02G18
 128223824.452 6  99914724.77644  24400183.055                    24400192.277
 117543254.013 7  91592262.755 7  22367723.680                    22367732.406
 122483347.147 7  95441636.411 6  23307806.930                    23307816.766
 113545053.062 8  88476772.381 7  21606865.922                    21606874.656
 110191606.118 7  85863625.707 7  20968758.781                    20968767.590
 117385049.729 7  91468934.609 7  22337635.016                    22337647.207
 114353060.113 7  89106400.92145  21760653.891                    21760662.832
 119226141.735 7  92903580.04044  22687986.797                    22687996.406
 118850206.888 7  92610740.73445  22616408.516                    22616415.957
 126835238.948 6  98832739.08043  24135943.281                    24135955.121
 11  8 25  2 56 30.0000000  0 10G21G15G12G05G29G25G26G30G02G18
 128167110.224 6  99870531.95443  24389390.211                    24389399.469
 117455651.947 7  91524001.493 7  22351053.250                    22351062.918
 122575884.485 7  95513743.371 6  23325416.102                    23325426.434
 113618651.959 8  88534122.177 7  21620872.195                    21620880.352
 110133727.739 8  85818525.696 7  20957745.086                    20957753.621
 117444240.665 7  91515057.402 7  22348899.031                    22348910.988
 114293876.068 7  89060283.51645  21749391.656                    21749400.723
 119291371.589 7  92954408.47244  22700399.125                    22700409.539
 118898331.443 7  92648240.38744  22625566.367                    22625573.625
 126752176.690 6  98768015.47343  24120137.211                    24120148.145
 11  8 25  2 57  0.0000000  0 10G21G15G12G05G29G25G26G30G02G18
 128110361.779 6  99826312.49243  24378591.078                    24378600.914
 117368282.297 7  91455921.303 7  22334427.180                    22334436.992
 122668496.977 7  95585908.891 6  23343039.500                    23343049.840
 113692489.295 8  88591657.769 7  21634922.398                    21634930.891
 110076190.578 7  85773691.557 7  20946796.094                    20946804.789
 117503785.382 7  91561455.875 7  22360229.961                    22360241.906
 114235192.549 7  89014556.15045  21738224.664                    21738233.496
 119356911.402 7  93005478.43944  22712871.203                    22712881.547
 118946563.983 7  92685824.17544  22634744.906                    22634751.727
 126669319.442 6  98703451.54343  24104370.070                    24104380.652
 11  8 25  2 57 30.0000000  0 10G21G15G12G05G29G25G26G30G02G18
 128053579.120 6  99782066.36443  24367786.195                    24367795.059
 117281148.560 7  91388024.943 7  22317846.477                    22317855.219
 122761182.052 7  95658130.980 6  23360677.578                    23360687.293
 113766562.979 8  88649377.525 7  21649018.141                    21649026.457
 110018997.658 8  85729125.663 7  20935912.656                    20935921.379
 117563681.482 7  91608128.147 7  22371627.438                    22371639.684
 114177013.405 7  88969221.77845  21727153.188                    21727162.402
 119422758.596 7  93056787.91444  22725401.844                    22725411.547
 118994905.267 7  92723492.70045  22643944.063                    22643951.375
 126586668.701 6  98639048.54643  24088642.656                    24088652.359
 11  8 25  2 58  0.0000000  0 10G21G15G12G05G29G25G26G30G02G18
 127996761.864 6  99737793.25243  24356973.750                    24356983.098
 117194253.606 7  91320314.654 7  22301310.625                    22301319.527
 122853936.516 7  95730407.153 6  23378328.172                    23378337.875
 113840870.188 8  88707279.256 7  21663158.664                    21663166.840
 109962151.356 7  85684829.855 7  20925095.000                    20925103.926
 117623925.829 7  91655071.776 7  22383091.945                    22383103.926
 114119341.092 7  88924282.35245  21716178.813                    21716187.762
 119488909.691 7  93108334.20144  22737989.711                    22737999.746
 119043355.632 7  92761246.22545  22653163.742                    22653170.402
 126504225.146 6  98574807.01043  24072953.711                    24072964.164
 11  8 25  2 58 30.0000000  0 10G21G15G12G05G29G25G26G30G02G18
 127939909.590 6  99693492.86743  24346155.703                    24346164.512
 117107600.426 7  91252792.771 7  22284821.070                    22284830.703
 122946757.209 7  95802734.916 6  23395991.016                    23396001.031
 113915408.479 8  88765361.050 7  21677342.266                    21677350.781
 109905653.639 7  85640805.669 8  20914343.938                    20914352.316
 117684515.476 7  91702284.474 7  22394621.609                    22394633.844
 114062178.816 7  88879740.35145  21705300.977                    21705310.266
 119555361.485 7  93160114.79044  22750634.992                    22750645.512
 119091915.476 7  92799085.06744  22662404.438                    22662411.453
 126421989.522 6  98510727.47543  24057304.414                    24057315.094
 11  8 25  2 59  0.0000000  0 10G21G15G12G05G29G25G26G30G02G18
 127883021.481 6  99649164.58443  24335329.766                    24335339.188
 117021192.055 7  91185461.638 7  22268378.414                    22268387.578
 123039641.066 6  95875111.869 6  23413665.688                    23413676.609
 113990175.025 8  88823620.703 7  21691570.320                    21691578.590
 109849506.798 8  85597054.889 7  20903659.164                    20903668.336
 117745447.469 7  91749763.939 7  22406216.805                    22406228.840
 114005529.392 7  88835597.98245  21694520.656                    21694529.840
 119622110.766 7  93212127.17844  22763336.922                    22763347.430
 119140585.369 7  92837009.65544  22671666.070                    22671672.672
 126339962.932 6  98446810.85243  24041695.352                    24041705.781
 11  8 25  2 59 30.0000000  0 10G21G15G12G05G29G25G26G30G02G18
 127826097.636 6  99604808.40943  24324497.922                    24324506.535
 116935031.837 7  91118323.870 7  22251982.492                    22251991.645
 123132585.119 7  95947535.765 6  23431352.859                    23431362.586
 114065168.140 8  88882056.905 7  21705840.727                    21705849.465
 109793713.300 8  85553579.439 7  20893042.172                    20893051.082
 117806719.098 7  91797508.044 7  22417876.273                    22417887.930
 113949396.090 7  88791857.78945  21683839.039                    21683848.418
 119689154.670 7  93264369.16944  22776094.844                    22776105.266
 119189365.610 7  92875020.23545  22680948.836                    22680955.582
 126258146.645 6  98383058.09243  24026125.641                    24026136.141
 11  8 25  3  0  0.0000000  0 10G21G15G12G05G29G25G26G30G02G18
 127769136.967 6  99560423.55743  24313658.273                    24313667.285
 116849122.942 7  91051381.953 7  22235634.266                    22235643.406
 123225586.575 6  96020004.371 6  23449050.273                    23449060.934
 114140385.405 8  88940667.756 7  21720154.148                    21720162.953
 109738275.654 8  85510381.283 7  20882492.805                    20882501.496
 117868327.711 7  91845514.740 7  22429600.117                    22429611.910
 113893782.064 7  88748522.22245  21673256.063                    21673265.848
 119756490.065 7  93316838.27844  22788908.461                    22788918.902
 119238257.044 7  92913117.44844  22690252.102                    22690259.094
 126176541.902 7  98319470.13343  24010596.711                    24010607.398
 11  8 25  3  0 30.0000000  0 10G21G15G12G05G29G25G26G30G02G18
 127712139.802 6  99516010.25843  24302812.172                    24302820.934
 116763468.407 7  90984638.225 7  22219335.094                    22219344.016
 123318642.534 6  96092515.441 6  23466758.188                    23466768.168
 114215824.180 8  88999451.221 7  21734509.625                    21734517.938
 109683196.312 7  85467462.324 7  20872011.789                    20872020.539
 117930270.079 7  91893781.512 7  22441387.148                    22441399.102
 113838690.227 7  88705593.55245  21662772.680                    21662781.754
 119824113.818 7  93369532.07844  22801776.625                    22801787.141
 119287260.042 7  92951301.59044  22699576.883                    22699584.590
 126095149.238 7  98256047.44644  23995108.492                    23995118.430
 11  8 25  3  1  0.0000000  0 10G21G15G12G05G29G25G26G30G02G18
 127655105.711 6  99471568.18343  24291958.672                    24291967.457
 116678071.096 7  90918094.919 7  22203084.258                    22203093.664
 123411749.994 6  96165066.637 6  23484476.219                    23484486.496
 114291481.919 8  89058405.306 7  21748906.719                    21748915.422
 109628477.443 7  85424824.258 7  20861599.391                    20861608.004
 117992543.308 7  91942306.086 7  22453237.516                    22453249.656
 113784123.690 7  88663074.20545  21652388.797                    21652398.004
 119892022.681 7  93422448.06344  22814699.273                    22814710.027
 119336374.892 7  92989572.90244  22708923.555                    22708930.414
 126013969.744 7  98192790.86143  23979660.469                    23979671.086
 11  8 25  3  1 30.0000000  0 10G21G15G12G05G29G25G26G30G02G18
 127598034.501 6  99427097.19943  24281098.484                    24281107.090
 116592934.862 7  90851755.058 7  22186883.508                    22186892.719
 123504906.035 6  96237655.714 6  23502203.734                    23502213.465
 114367356.739 8  89117528.548 7  21763345.336                    21763353.891
 109574121.441 8  85382468.939 7  20851255.016                    20851264.023
 118055144.839 7  91991086.480 7  22465150.367                    22465161.973
 113730085.308 7  88620966.41345  21642105.797                    21642114.832
 119960213.823 7  93475583.98544  22827675.852                    22827686.332
 119385602.327 7  93027931.94245  22718291.555                    22718298.266
 125933004.435 7  98129701.18644  23964253.266                    23964263.754
 11  8 25  3  2  0.0000000  0 10G21G15G12G05G29G25G26G30G02G18
 127540925.287 6  99382596.59443  24270231.000                    24270239.410
 116508061.927 7  90785620.365 7  22170732.258                    22170741.695
 123598107.320 6  96310280.050 6  23519938.984                    23519948.492
 114443445.739 8  89176818.674 7  21777824.703                    21777832.629
 109520130.271 8  85340397.906 7  20840981.086                    20840990.078
 118118071.306 7  92040120.074 7  22477124.523                    22477136.660
 113676577.839 7  88579272.31845  21631923.383                    21631932.836
 120028683.631 7  93528937.05045  22840705.273                    22840715.762
 119434942.564 7  93066378.87344  22727680.297                    22727687.297
 125852254.385 6  98066779.22644  23948886.852                    23948897.086
 11  8 25  3  2 30.0000000  0 10G21G15G12G05G29G25G26G30G02G18
 127483778.021 6  99338066.35143  24259355.586                    24259364.910
 116423455.748 7  90719693.536 7  22154632.602                    22154641.762
 123691351.292 7  96382937.655 6  23537682.945                    23537692.246
 114519746.665 8  89236273.938 7  21792344.547                    21792352.672
 109466506.677 8  85298613.310 7  20830777.117                    20830785.871
 118181320.045 7  92089404.797 7  22489160.813                    22489172.449
 113623604.353 7  88537994.30745  21621842.789                    21621852.129
 120097429.222 7  93582505.02044  22853787.023                    22853797.699
 119484396.299 7  93104914.25444  22737090.938                    22737097.492
 125771720.711 6  98004025.88343  23933561.391                    23933572.461
 11  8 25  3  3  0.0000000  0 10G21G15G12G05G29G25G26G30G02G18
 127426592.722 6  99293506.45543  24248473.719                    24248482.418
 116339119.785 7  90653977.262 7  22138583.734                    22138592.961
 123784635.331 7  96455626.459 6  23555434.094                    23555444.238
 114596257.793 8  89295892.992 7  21806903.781                    21806912.613
 109413253.474 8  85257117.322 8  20820643.273                    20820651.977
 118244888.443 7  92138938.595 7  22501257.547                    22501269.004
 113571168.413 7  88497135.17045  21611864.500                    21611873.566
 120166447.872 7  93636285.76244  22866921.055                    22866931.953
 119533964.267 7  93143538.65844  22746523.727                    22746530.281
 125691404.325 6  97941441.85143  23918277.328                    23918288.129
 11  8 25  3  3 30.0000000  0 10G21G15G12G05G29G25G26G30G02G18
 127369368.449 6  99248916.17243  24237583.641                    24237593.527
 116255056.431 7  90588473.412 7  22122587.297                    22122596.004
 123877955.731 7  96528343.609 6  23573192.688                    23573202.863
 114672975.771 8  89355673.234 7  21821502.484                    21821511.141
 109360371.552 8  85215910.663 8  20810580.156                    20810588.922
 118308772.849 7  92188718.616 7  22513414.063                    22513426.203
 113519271.758 7  88456696.24645  21601988.828                    21601998.160
 120235735.579 7  93690276.14345  22880106.266                    22880116.742
 119583646.479 7  93182252.07244  22755977.789                    22755984.508
 125611305.323 6  97879027.20943  23903035.070                    23903045.336
 11  8 25  3  4  0.0000000  0 10G21G15G12G05G29G25G26G30G02G18
 127312105.133 6  99204295.45943  24226686.969                    24226695.730
 116171269.374 7  90523184.850 7  22106642.758                    22106651.707
 123971309.830 6  96601086.989 6  23590957.281                    23590967.926
 114749898.945 8  89415613.359 7  21836140.930                    21836149.234
 109307864.292 8  85174995.942 7  20800588.141                    20800596.926
 118372970.831 7  92238743.006 7  22525630.258                    22525642.699
 113467918.073 7  88416680.42145  21592216.578                    21592226.004
 120305289.750 7  93744474.16645  22893342.047                    22893352.723
 119633443.820 7  93221055.20144  22765454.008                    22765460.422
 125531425.631 6  97816783.45343  23887833.961                    23887845.027
 11  8 25  3  4 30.0000000  0 10G21G15G12G05G29G25G26G30G02G18
 127254802.581 6  99159644.18743  24215783.055                    24215791.629
 116087760.987 7  90458113.445 7  22090751.547                    22090760.445
 124064694.911 6  96673854.527 6  23608728.195                    23608738.020
 114827024.554 8  89475711.240 7  21850817.445                    21850825.617
 109255733.908 8  85134374.892 8  20790668.266                    20790677.078
 118437479.295 7  92289009.311 7  22537905.969                    22537918.105
 113417109.898 7  88377089.66445  21582548.000                    21582557.445
 120375107.074 7  93798877.24644  22906627.719                    22906638.105
 119683356.706 7  93259948.36444  22774951.875                    22774958.906
 125451765.632 6  97754710.89443  23872675.172                    23872685.895
 11  8 25  3  5  0.0000000  0 10G21G15G12G05G29G25G26G30G02G18
 127197460.477 7  99114962.06844  24204871.586                    24204880.063
 116004535.002 7  90393262.090 7  22074913.945                    22074923.488
 124158107.739 7  96746643.688 6  23626503.438                    23626513.617
 114904350.119 8  89535964.917 7  21865531.727                    21865540.195
 109203982.161 8  85094048.883 7  20780820.344                    20780828.926
 118502295.168 7  92339515.171 7  22550240.477                    22550252.441
 113366850.131 8  88337926.23345  21572983.852                    21572993.430
 120445184.336 7  93853482.87044  22919962.672                    22919973.449
 119733385.526 7  93298931.85644  22784471.633                    22784478.820
 125372326.041 6  97692810.06243  23857558.039                    23857569.102
 11  8 25  3  5 30.0000000  0 10G21G15G12G05G29G25G26G30G02G18
 127140078.026 7  99070248.50643  24193951.547                    24193960.531
 115921593.692 7  90328632.560 7  22059130.852                    22059140.090
 124251545.251 6  96819452.056 6  23644284.477                    23644294.523
 114981873.275 8  89596372.568 7  21880283.875                    21880292.539
 109152611.145 7  85054019.556 8  20771044.523                    20771053.547
 118567415.110 7  92390257.951 7  22562632.641                    22562644.332
 113317140.851 7  88299191.75445  21563524.695                    21563533.645
 120515517.859 7  93908288.19044  22933346.320                    22933358.043
 119783530.381 7  93338005.75844  22794014.516                    22794021.320
 125293107.964 6  97631081.84343  23842483.242                    23842494.023
 11  8 25  3  6  0.0000000  0 10G21G15G12G05G29G25G26G30G02G18
 127082655.650 6  99025503.81743  24183024.531                    24183033.047
 115838941.051 7  90264227.953 7  22043403.008                    22043411.879
 124345004.720 6  96892277.516 6  23662069.117                    23662079.500
 115059591.975 8  89656932.586 7  21895073.500                    21895082.195
 109101624.034 8  85014289.372 8  20761342.063                    20761350.746
 118632836.778 7  92441235.853 7  22575081.539                    22575093.707
 113267985.977 7  88260889.28445  21554170.813                    21554179.969
 120586105.326 7  93963291.37944  22946779.234                    22946789.648
 119833792.404 7  93377170.96044  22803578.641                    22803586.262
 125214112.635 6  97569527.19643  23827451.289                    23827460.770
 11  8 25  3  6 30.0000000  0 10G21G15G12G05G29G25G26G30G02G18
 127025192.451 7  98980727.34643  24172089.836                    24172098.434
 115756579.668 7  90200050.308 7  22027729.766                    22027738.402
 124438483.349 6  96965117.926 6  23679858.102                    23679867.898
 115137503.824 8  89717643.117 7  21909899.453                    21909907.785
 109051022.579 8  84974859.695 8  20751712.602                    20751721.488
 118698556.934 7  92492446.338 7  22587587.789                    22587600.078
 113219387.491 8  88223020.35945  21544922.891                    21544932.035
 120656943.041 7  94018489.56745  22960259.211                    22960269.652
 119884171.785 7  93416427.61244  22813166.000                    22813173.121
 125135340.610 6  97508146.47043  23812461.219                    23812470.707
 11  8 25  3  7  0.0000000  0 10G21G15G12G05G29G25G26G30G02G18
 126967688.148 6  98935918.81843  24161146.836                    24161155.910
 115674512.331 7  90136101.785 7  22012113.211                    22012121.293
 124531977.986 7  97037970.836 6  23697649.148                    23697659.043
 115215606.097 8  89778502.025 7  21924761.836                    21924770.289
 109000808.744 8  84935732.065 7  20742157.336                    20742166.395
 118764572.337 7  92543886.882 7  22600149.906                    22600162.375
 113171348.093 8  88185587.09145  21535781.398                    21535790.238
 120728027.711 7  94073880.19044  22973786.422                    22973796.695
 119934669.021 7  93455776.09744  22822775.453                    22822782.082
 125056792.490 7  97446940.26643  23797514.492                    23797523.320
 11  8 25  3  7 30.0000000  0 10G21G15G12G05G29G25G26G30G02G18
 126910142.969 7  98891078.43944  24150196.242                    24150205.199
 115592742.822 7  90072385.337 7  21996552.688                    21996561.305
 124625486.211 7  97110834.338 6  23715443.492                    23715452.859
 115293897.048 8  89839507.953 7  21939659.906                    21939668.258
 108950985.758 8  84896908.992 8  20732676.508                    20732685.207
 118830880.542 7  92595555.572 7  22612767.938                    22612779.770
 113123871.228 7  88148592.15745  21526746.578                    21526755.828
 120799356.742 7  94129461.23944  22987359.406                    22987370.434
 119985284.905 7  93495217.03644  22832407.039                    22832413.660
 124978469.749 7  97385909.66943  23782609.617                    23782619.500
 11  8 25  3  8  0.0000000  0 10G21G15G12G05G29G25G26G30G02G18
 126852556.253 7  98846205.72743  24139238.281                    24139246.430
 115511273.743 7  90008902.993 7  21981049.188                    21981058.348
 124719004.747 7  97183705.860 6  23733239.859                    23733249.293
 115372373.993 8  89900658.825 7  21954593.859                    21954602.254
 108901554.982 8  84858391.531 8  20723269.859                    20723278.766
 118897478.186 7  92647449.827 7  22625441.141                    22625452.891
 113076959.143 8  88112037.31045  21517819.625                    21517828.777
 120870926.521 7  94185229.87544  23000979.070                    23000989.523
 120036019.686 7  93534750.61544  22842060.953                    22842068.711
 124900372.744 7  97325054.95243  23767748.242                    23767758.113
 11  8 25  3  8 30.0000000  0 10G21G15G12G05G29G25G26G30G02G18
 126794928.177 6  98801300.79243  24128271.266                    24128280.207
 115430108.244 7  89945657.196 7  21965604.359                    21965613.352
 124812530.858 7  97256583.283 6  23751037.188                    23751046.941
 115451034.783 8  89961952.941 7  21969562.328                    21969570.797
 108852519.300 8  84820181.939 8  20713938.906                    20713947.570
 118964362.578 7  92699567.505 7  22638168.820                    22638180.957
 113030614.826 8  88075924.87945  21509000.539                    21509009.461
 120942734.310 7  94241183.96444  23014644.031                    23014654.004
 120086873.793 7  93574377.18444  22851739.211                    22851746.258
 124822502.862 7  97264377.20943  23752930.352                    23752939.891
 11  8 25  3  9  0.0000000  0 10G21G15G12G05G29G25G26G30G02G18
 126737257.803 6  98756362.88243  24117296.633                    24117306.016
 115349248.840 7  89882649.928 7  21950217.156                    21950226.133
 124906061.284 7  97329464.094 6  23768835.625                    23768845.230
 115529876.635 8  90023388.143 7  21984565.672                    21984574.000
 108803879.852 8  84782281.097 8  20704682.984                    20704691.785
 119031529.936 7  92751905.675 7  22650950.734                    22650962.871
 112984840.132 7  88040256.31045  21500289.758                    21500298.996
 121014775.877 7  94297320.22544  23028352.656                    23028363.027
 120137847.666 7  93614097.06844  22861438.469                    22861446.180
 124744860.301 6  97203876.59043  23738155.273                    23738164.570
 11  8 25  3  9 30.0000000  0 10G21G15G12G05G29G25G26G30G02G18
 126679545.415 6  98711392.24344  24106315.109                    24106323.559
 115268699.177 7  89819884.005 7  21934888.773                    21934898.055
 124999593.474 7  97402346.258 6  23786633.938                    23786644.090
 115608897.862 8  90084963.120 7  21999602.805                    21999610.633
 108755639.906 8  84744691.551 8  20695503.156                    20695512.051
 119098977.851 7  92804462.460 7  22663785.672                    22663797.578
 112939638.038 8  88005033.93545  21491688.016                    21491697.574
 121087048.899 7  94353636.84444  23042105.500                    23042115.969
 120188942.064 7  93653910.86744  22871162.219                    22871169.316
 124667445.973 7  97143553.83343  23723423.398                    23723433.461
 11  8 25  3 10  0.0000000  0 10G21G15G12G05G29G25G26G30G02G18
 126621790.720 7  98666388.64344  24095324.945                    24095333.059
 115188462.281 7  89757361.804 7  21919620.352                    21919629.406
 125093124.955 7  97475227.879 6  23804432.250                    23804442.289
 115688096.239 8  90146676.139 7  22014673.930                    22014682.258
 108707802.304 8  84707415.525 8  20686399.891                    20686409.082
 119166703.628 7  92857235.777 7  22676673.016                    22676685.324
 112895011.994 7  87970260.42145  21483195.953                    21483205.004
 121159550.475 7  94410131.55244  23055902.234                    23055912.801
 120240158.021 7  93693819.38044  22880907.516                    22880914.707
 124590260.995 6  97083409.78643  23708735.516                    23708745.801
 11  8 25  3 10 30.0000000  0 10G21G15G12G05G29G25G26G30G02G18
 126563992.575 7  98621351.19144  24084326.086                    24084334.965
 115108540.668 7  89695085.265 7  21904411.734                    21904420.785
 125186652.285 6  97548106.234 6  23822230.188                    23822240.602
 115767468.791 7  90208524.885 7  22029777.734                    22029785.785
 108660367.536 8  84670453.391 8  20677373.477                    20677382.113
 119234703.438 7  92910222.605 7  22689612.773                    22689625.012
 112850963.215 7  87935936.72745  21474813.656                    21474822.770
 121232276.487 7  94466801.15844  23069741.672                    23069751.883
 120291495.169 7  93733822.32045  22890676.805                    22890684.055
 124513305.757 6  97023444.76443  23694091.352                    23694101.922
 11  8 25  3 11  0.0000000  0 10G21G15G12G05G29G25G26G30G02G18
 126506151.670 7  98576280.39644  24073319.172                    24073327.719
 115028937.842 7  89633057.140 7  21889263.406                    21889272.500
 125280172.676 7  97620979.180 6  23840026.258                    23840036.930
 115847013.649 7  90270507.884 7  22044914.383                    22044923.184
 108613338.514 8  84633807.421 8  20668424.211                    20668432.934
 119302974.675 7  92963420.928 7  22702604.641                    22702617.238
 112807495.175 7  87902065.55845  21466542.352                    21466551.086
 121305224.221 7  94523643.51844  23083623.094                    23083634.012
 120342954.276 7  93773920.30944  22900469.383                    22900476.375
 124436581.300 6  96963659.59443  23679491.328                    23679501.398
 11  8 25  3 11 30.0000000  0 10G21G15G12G05G29G25G26G30G02G18
 126448267.684 6  98531176.06143  24062304.188                    24062313.180
 114949656.675 7  89571279.645 7  21874177.180                    21874185.789
 125373683.219 6  97693844.443 6  23857820.594                    23857831.340
 115926728.503 7  90332623.357 7  22060084.078                    22060092.094
 108566717.367 8  84597479.278 8  20659552.531                    20659560.770
 119371514.152 7  93016828.275 7  22715647.281                    22715659.512
 112764609.971 7  87868648.53745  21458380.977                    21458390.211
 121378390.352 7  94580656.05044  23097546.719                    23097557.344
 120394535.843 7  93814113.72644  22910285.891                    22910292.191
 124360088.245 6  96904054.70943  23664934.758                    23664945.082
 11  8 25  3 12  0.0000000  0 10G21G15G12G05G29G25G26G30G02G18
 126390340.262 6  98486037.89543  24051280.336                    24051289.570
 114870700.090 8  89509755.081 7  21859152.328                    21859160.930
 125467181.265 6  97766699.953 6  23875612.844                    23875623.285
 116006610.936 7  90394869.403 7  22075285.047                    22075293.586
 108520506.313 8  84561470.681 8  20650758.859                    20650767.195
 119440318.865 7  93070442.312 7  22728740.156                    22728752.551
 112722310.372 8  87835687.84845  21450331.914                    21450340.789
 121451771.684 7  94637836.27244  23111510.797                    23111520.605
 120446240.261 7  93854402.86145  22920124.133                    22920130.875
 124283827.590 6  96844630.92543  23650422.586                    23650433.105
 11  8 25  3 12 30.0000000  0 10G21G15G12G05G29G25G26G30G02G18
 126332369.462 6  98440865.92144  24040248.969                    24040258.211
 114792071.310 7  89448485.940 7  21844189.602                    21844198.461
 125560664.243 6  97839543.746 6  23893402.430                    23893412.563
 116086658.843 8  90457244.405 7  22090517.633                    22090525.902
 108474708.219 8  84525783.864 8  20642043.570                    20642052.164
 119509386.111 7  93124260.902 7  22741883.375                    22741895.605
 112680598.882 8  87803185.41245  21442394.203                    21442403.551
 121525365.426 7  94695182.02244  23125515.117                    23125525.434
 120498068.563 7  93894788.53144  22929986.609                    22929993.855
 124207800.030 7  96785388.78243  23635955.836                    23635965.555
 11  8 25  3 13  0.0000000  0 10G21G15G12G05G29G25G26G30G02G18
 126274354.600 7  98395659.62444  24029209.086                    24029218.176
 114713773.215 7  89387474.489 7  21829289.680                    21829298.895
 125654129.034 7  97912373.359 6  23911188.523                    23911198.836
 116166869.951 7  90519746.555 7  22105781.477                    22105789.594
 108429324.687 8  84490420.090 8  20633407.391                    20633415.926
 119578712.550 7  93178281.461 7  22755076.070                    22755088.555
 112639478.121 8  87771143.29445  21434569.195                    21434578.234
 121599168.017 7  94752690.51244  23139559.484                    23139569.664
 120550020.871 7  93935270.82144  22939872.992                    22939879.621
 124132006.638 7  96726329.10143  23621531.234                    23621542.332
 11  8 25  3 13 30.0000000  0 10G21G15G12G05G29G25G26G30G02G18
 126216295.228 7  98350418.63944  24018160.250                    24018169.332
 114635808.086 7  89326722.488 7  21814453.414                    21814462.355
 125747572.415 7  97985186.314 6  23928970.469                    23928980.547
 116247241.789 8  90582373.965 7  22121075.758                    22121083.801
 108384357.507 8  84455380.746 8  20624850.320                    20624858.664
 119648294.730 7  93232501.337 7  22768317.414                    22768329.242
 112598949.802 8  87739562.81045  21426856.852                    21426866.238
 121673175.911 7  94810358.97644  23153642.789                    23153652.945
 120602097.556 7  93975850.03644  22949783.234                    22949790.113
 124056447.746 7  96667452.13044  23607153.938                    23607164.055
 11  8 25  3 14  0.0000000  0 10G21G15G12G05G29G25G26G30G02G18
 126158191.699 7  98305143.23144  24007103.797                    24007112.969
 114558180.154 7  89266233.221 7  21799681.406                    21799690.055
 125840992.308 7  98057980.950 6  23946746.984                    23946758.359
 116327772.585 8  90645125.233 7  22136400.133                    22136408.973
 108339809.638 8  84420668.128 8  20616373.172                    20616381.621
 119718130.293 7  93286918.632 7  22781606.469                    22781618.469
 112559017.133 8  87708446.46245  21419257.719                    21419267.219
 121747386.584 7  94868185.44344  23167764.492                    23167774.723
 120654299.560 7  94016526.89944  22959716.602                    22959723.738
 123981123.997 7  96608758.38844  23592820.156                    23592830.340
 11  8 25  3 14 30.0000000  0 10G21G15G12G05G29G25G26G30G02G18
 126100043.785 7  98259833.26044  23996039.078                    23996047.652
 114480891.548 7  89206008.372 7  21784974.016                    21784982.281
 125934385.387 7  98130754.677 6  23964519.305                    23964529.820
 116408459.595 7  90707998.236 7  22151754.289                    22151762.457
 108295682.502 8  84386283.356 8  20607976.258                    20607984.355
 119788215.754 7  93341530.653 7  22794943.375                    22794954.996
 112519682.063 8  87677795.77945  21411772.719                    21411781.848
 121821796.424 7  94926167.10544  23181923.953                    23181934.172
 120706626.963 7  94057301.47744  22969674.711                    22969681.066
 123906036.118 6  96550248.44043  23578531.109                    23578541.160
 11  8 25  3 15  0.0000000  0 10G21G15G12G05G29G25G26G30G02G18
 126041851.251 7  98214488.50644  23984965.063                    23984973.879
 114403945.303 7  89146050.291 7  21770331.563                    21770340.500
 126027749.077 7  98203505.543 6  23982286.180                    23982296.457
 116489300.943 7  90770991.492 7  22167137.844                    22167146.609
 108251978.803 8  84352228.532 8  20599659.461                    20599668.035
 119858548.121 7  93396335.076 7  22808327.000                    22808339.188
 112480947.087 8  87647612.69645  21404401.836                    21404410.664
 121896402.302 7  94984301.51044  23196120.578                    23196131.559
 120759080.419 7  94098174.27544  22979655.555                    22979662.531
 123831185.082 7  96491923.04444  23564287.203                    23564296.840
